[[{"header":{"parameterUnit":"m.s-1","parameterCategory":1,"la1":30.6,"la2":28.766,"lo1":-90.7593,"lo2":-88.6598,"dy":0.0162,"dx":0.0183,"nx":116,"ny":114,"refTime":"2023-05-10T12:00:00:Z","depth":0,"parameterNumber":2,"parameterNumberName":"U-component_of_WINDS"},"data":[0.0,0.0,0.0,0.0,0.0,0.0,0.0,0.0,0.0,0.0,0.0,0.0,0.0,0.0,0.0,0.0,0.0,0.0,0.0,0.0,0.0,0.0,0.0,0.0,0.0,0.0,0.0,0.0,0.0,0.0,0.0,0.0,0.0,0.0,0.0,0.0,0.0,0.0,0.0,0.0,0.0,0.0,0.0,0.0,0.0,0.0,0.0,0.0,0.0,0.0,0.0,0.0,0.0,0.0,0.0,0.0,0.0,0.0,0.0,0.0,0.0,0.0,0.0,0.0,0.0,0.0,0.0,0.0,0.0,0.0,0.0,0.0,0.0,0.0,0.0,0.0,0.0,0.0,0.0,0.0,0.0,0.0,0.0,0.0,0.0,0.0,0.0,0.0,0.0,0.0,0.0,0.0,0.0,0.0,0.0,0.0,0.0,0.0,0.0,0.0,0.0,0.0,0.0,0.0,0.0,0.0,0.0,0.0,0.0,0.0,0.0,0.0,0.0,0.0,0.0,0.0,0.0,0.0,0.0,0.0,0.0,0.0,0.0,0.0,0.0,0.0,0.0,0.0,0.0,0.0,0.0,0.0,0.0,0.0,0.0,0.0,0.0,0.0,0.0,0.0,0.0,0.0,0.0,0.0,0.0,0.0,0.0,0.0,0.0,0.0,0.0,0.0,0.0,0.0,0.0,0.0,0.0,0.0,0.0,0.0,0.0,0.0,0.0,0.0,0.0,0.0,0.0,0.0,0.0,0.0,0.0,0.0,0.0,0.0,0.0,0.0,0.0,0.0,0.0,0.0,0.0,0.0,0.0,0.0,0.0,0.0,0.0,0.0,0.0,0.0,0.0,0.0,0.0,0.0,0.0,0.0,0.0,0.0,0.0,0.0,0.0,0.0,0.0,0.0,0.0,0.0,0.0,0.0,0.0,0.0,0.0,0.0,0.0,0.0,0.0,0.0,0.0,0.0,0.0,0.0,0.0,0.0,0.0,0.0,0.0,0.0,0.0,0.0,0.0,0.0,0.0,0.0,0.0,0.0,0.0,0.0,0.0,0.0,0.0,0.0,0.0,0.0,0.0,0.0,0.0,0.0,0.0,0.0,0.0,0.0,0.0,0.0,0.0,0.0,0.0,0.0,0.0,0.0,0.0,0.0,0.0,0.0,0.0,0.0,0.0,0.0,0.0,0.0,0.0,0.0,0.0,0.0,0.0,0.0,0.0,0.0,0.0,0.0,0.0,0.0,0.0,0.0,0.0,0.0,0.0,0.0,0.0,0.0,0.0,0.0,0.0,0.0,0.0,0.0,0.0,0.0,0.0,0.0,0.0,0.0,0.0,0.0,0.0,0.0,0.0,0.0,0.0,0.0,0.0,0.0,0.0,0.0,0.0,0.0,0.0,0.0,0.0,0.0,0.0,0.0,0.0,0.0,0.0,0.0,0.0,0.0,0.0,0.0,0.0,0.0,0.0,0.0,0.0,0.0,0.0,0.0,0.0,0.0,0.0,0.0,0.0,0.0,0.0,0.0,0.0,0.0,0.0,0.0,0.0,0.0,0.0,0.0,0.0,0.0,0.0,0.0,0.0,0.0,0.0,0.0,0.0,0.0,0.0,0.0,0.0,0.0,0.0,0.0,0.0,0.0,0.0,0.0,0.0,0.0,0.0,0.0,0.0,0.0,0.0,0.0,0.0,0.0,0.0,0.0,0.0,0.0,0.0,0.0,0.0,0.0,0.0,0.0,0.0,0.0,0.0,0.0,0.0,0.0,0.0,0.0,0.0,0.0,0.0,0.0,0.0,0.0,0.0,0.0,0.0,0.0,0.0,0.0,0.0,0.0,0.0,0.0,0.0,0.0,0.0,0.0,0.0,0.0,0.0,0.0,0.0,0.0,0.0,0.0,0.0,0.0,0.0,0.0,0.0,0.0,0.0,0.0,0.0,0.0,0.0,0.0,0.0,0.0,0.0,0.0,0.0,0.0,0.0,0.0,0.0,0.0,0.0,0.0,0.0,0.0,0.0,0.0,0.0,0.0,0.0,0.0,0.0,0.0,0.0,0.0,0.0,0.0,0.0,0.0,0.0,0.0,0.0,0.0,0.0,0.0,0.0,0.0,0.0,0.0,0.0,0.0,0.0,0.0,0.0,0.0,0.0,0.0,0.0,0.0,0.0,0.0,0.0,0.0,0.0,0.0,0.0,0.0,0.0,0.0,0.0,0.0,0.0,0.0,0.0,0.0,0.0,0.0,0.0,0.0,0.0,0.0,0.0,0.0,0.0,0.0,0.0,0.0,0.0,0.0,0.0,0.0,0.0,0.0,0.0,0.0,0.0,0.0,0.0,0.0,0.0,0.0,0.0,0.0,0.0,0.0,0.0,0.0,0.0,0.0,0.0,0.0,0.0,0.0,0.0,0.0,0.0,0.0,0.0,0.0,0.0,0.0,0.0,0.0,0.0,0.0,0.0,0.0,0.0,0.0,0.0,0.0,0.0,0.0,0.0,0.0,0.0,0.0,0.0,0.0,0.0,0.0,0.0,0.0,0.0,0.0,0.0,0.0,0.0,0.0,0.0,0.0,0.0,0.0,0.0,0.0,0.0,0.0,0.0,0.0,0.0,0.0,0.0,0.0,0.0,0.0,0.0,0.0,0.0,0.0,0.0,0.0,0.0,0.0,0.0,0.0,0.0,0.0,0.0,0.0,0.0,0.0,0.0,0.0,0.0,0.0,0.0,0.0,0.0,0.0,0.0,0.0,0.0,0.0,0.0,0.0,0.0,0.0,0.0,0.0,0.0,0.0,0.0,0.0,0.0,0.0,0.0,0.0,0.0,0.0,0.0,0.0,0.0,0.0,0.0,0.0,0.0,0.0,0.0,0.0,0.0,0.0,0.0,0.0,0.0,0.0,0.0,0.0,0.0,0.0,0.0,0.0,0.0,0.0,0.0,0.0,0.0,0.0,0.0,0.0,0.0,0.0,0.0,0.0,0.0,0.0,0.0,0.0,0.0,0.0,0.0,0.0,0.0,0.0,0.0,0.0,0.0,0.0,0.0,0.0,0.0,0.0,0.0,0.0,0.0,0.0,0.0,0.0,0.0,0.0,0.0,0.0,0.0,0.0,0.0,0.0,0.0,0.0,0.0,0.0,0.0,0.0,0.0,0.0,0.0,0.0,0.0,0.0,0.0,0.0,0.0,0.0,0.0,0.0,0.0,0.0,0.0,0.0,0.0,0.0,0.0,0.0,0.0,0.0,0.0,0.0,0.0,0.0,0.0,0.0,0.0,0.0,0.0,0.0,0.0,0.0,0.0,0.0,0.0,0.0,0.0,0.0,0.0,0.0,0.0,0.0,0.0,0.0,0.0,0.0,0.0,0.0,0.0,0.0,0.0,0.0,0.0,0.0,0.0,0.0,0.0,0.0,0.0,0.0,0.0,0.0,0.0,0.0,0.0,0.0,0.0,0.0,0.0,0.0,0.0,0.0,0.0,0.0,0.0,0.0,0.0,0.0,0.0,0.0,0.0,0.0,0.0,0.0,0.0,0.0,0.0,0.0,0.0,0.0,0.0,0.0,0.0,0.0,0.0,0.0,0.0,0.0,0.0,0.0,0.0,0.0,0.0,0.0,0.0,0.0,0.0,0.0,0.0,0.0,0.0,0.0,0.0,0.0,0.0,0.0,0.0,0.0,0.0,0.0,0.0,0.0,0.0,0.0,0.0,0.0,0.0,0.0,0.0,0.0,0.0,0.0,0.0,0.0,0.0,0.0,0.0,0.0,0.0,0.0,0.0,0.0,0.0,0.0,0.0,0.0,0.0,0.0,0.0,0.0,0.0,0.0,0.0,0.0,0.0,0.0,0.0,0.0,0.0,0.0,0.0,0.0,0.0,0.0,0.0,0.0,0.0,0.0,0.0,0.0,0.0,0.0,0.0,0.0,0.0,0.0,0.0,0.0,0.0,0.0,0.0,0.0,0.0,0.0,0.0,0.0,0.0,0.0,0.0,0.0,0.0,0.0,0.0,0.0,0.0,0.0,0.0,0.0,0.0,0.0,0.0,0.0,0.0,0.0,0.0,0.0,0.0,0.0,0.0,0.0,0.0,0.0,0.0,0.0,0.0,0.0,0.0,0.0,0.0,0.0,0.0,0.0,0.0,0.0,0.0,0.0,0.0,0.0,0.0,0.0,0.0,0.0,0.0,0.0,0.0,0.0,0.0,0.0,0.0,0.0,0.0,0.0,0.0,0.0,0.0,0.0,0.0,0.0,0.0,0.0,0.0,0.0,0.0,0.0,0.0,0.0,0.0,0.0,0.0,0.0,0.0,0.0,0.0,0.0,0.0,0.0,0.0,0.0,0.0,0.0,0.0,0.0,0.0,0.0,0.0,0.0,0.0,0.0,0.0,0.0,0.0,0.0,0.0,0.0,0.0,0.0,0.0,0.0,0.0,0.0,0.0,0.0,0.0,0.0,0.0,0.0,0.0,0.0,0.0,0.0,0.0,0.0,0.0,0.0,0.0,0.0,0.0,0.0,0.0,0.0,0.0,0.0,0.0,0.0,0.0,0.0,0.0,0.0,0.0,0.0,0.0,0.0,0.0,0.0,0.0,0.0,0.0,0.0,0.0,0.0,0.0,0.0,0.0,0.0,0.0,0.0,0.0,0.0,0.0,0.0,0.0,0.0,0.0,0.0,0.0,0.0,0.0,0.0,0.0,0.0,0.0,0.0,0.0,0.0,0.0,0.0,0.0,0.0,0.0,0.0,0.0,0.0,0.0,0.0,0.0,0.0,0.0,0.0,0.0,0.0,0.0,0.0,0.0,0.0,0.0,0.0,0.0,0.0,0.0,0.0,0.0,0.0,0.0,0.0,0.0,0.0,0.0,0.0,0.0,0.0,0.0,0.0,0.0,0.0,0.0,0.0,0.0,0.0,0.0,0.0,0.0,0.0,0.0,0.0,0.0,0.0,0.0,0.0,0.0,0.0,0.0,0.0,0.0,0.0,0.0,0.0,0.0,0.0,0.0,0.0,0.0,0.0,0.0,0.0,0.0,0.0,0.0,0.0,0.0,0.0,0.0,0.0,0.0,0.0,0.0,0.0,0.0,0.0,0.0,0.0,0.0,0.0,0.0,0.0,0.0,0.0,0.0,0.0,0.0,0.0,0.0,0.0,0.0,0.0,0.0,0.0,0.0,0.0,0.0,0.0,0.0,0.0,0.0,0.0,0.0,0.0,0.0,0.0,0.0,0.0,0.0,0.0,0.0,0.0,0.0,0.0,0.0,0.0,0.0,0.0,0.0,0.0,0.0,0.0,0.0,0.0,0.0,0.0,0.0,0.0,0.0,0.0,0.0,0.0,0.0,0.0,0.0,0.0,0.0,0.0,0.0,0.0,0.0,0.0,0.0,0.0,0.0,0.0,0.0,0.0,0.0,0.0,0.0,0.0,0.0,0.0,0.0,0.0,0.0,0.0,0.0,0.0,0.0,0.0,0.0,0.0,0.0,0.0,0.0,0.0,0.0,0.0,0.0,0.0,0.0,0.0,0.0,0.0,0.0,0.0,0.0,0.0,0.0,0.0,0.0,0.0,0.0,0.0,0.0,0.0,0.0,0.0,0.0,0.0,0.0,0.0,0.0,0.0,0.0,0.0,0.0,0.0,0.0,0.0,0.0,0.0,0.0,0.0,0.0,0.0,0.0,0.0,0.0,0.0,0.0,0.0,0.0,0.0,0.0,0.0,0.0,0.0,0.0,0.0,0.0,0.0,0.0,0.0,0.0,0.0,0.0,0.0,0.0,0.0,0.0,0.0,0.0,0.0,0.0,0.0,0.0,0.0,0.0,0.0,0.0,0.0,0.0,0.0,0.0,0.0,0.0,0.0,0.0,0.0,0.0,0.0,0.0,0.0,0.0,0.0,0.0,0.0,0.0,0.0,0.0,0.0,0.0,0.0,0.0,0.0,0.0,0.0,0.0,0.0,0.0,0.0,0.0,0.0,0.0,0.0,0.0,0.0,0.0,0.0,0.0,0.0,0.0,0.0,0.0,0.0,0.0,0.0,0.0,0.0,0.0,0.0,0.0,0.0,0.0,0.0,0.0,0.0,0.0,0.0,0.0,0.0,0.0,0.0,-4.0137,-3.9955,0.0,0.0,0.0,0.0,0.0,0.0,0.0,0.0,0.0,0.0,0.0,0.0,0.0,0.0,0.0,0.0,0.0,0.0,0.0,0.0,0.0,0.0,0.0,0.0,0.0,0.0,0.0,0.0,0.0,0.0,0.0,0.0,0.0,0.0,0.0,0.0,0.0,0.0,-3.2593,-3.2841,-3.3359,-3.4123,-3.4598,-3.4773,0.0,0.0,0.0,0.0,0.0,0.0,0.0,0.0,0.0,0.0,0.0,0.0,0.0,0.0,0.0,0.0,0.0,0.0,0.0,0.0,0.0,0.0,0.0,0.0,0.0,0.0,0.0,0.0,0.0,0.0,0.0,0.0,0.0,0.0,0.0,0.0,0.0,0.0,0.0,0.0,0.0,0.0,0.0,0.0,0.0,0.0,0.0,0.0,0.0,0.0,0.0,0.0,0.0,0.0,0.0,0.0,0.0,0.0,0.0,0.0,0.0,0.0,0.0,0.0,0.0,0.0,0.0,0.0,0.0,0.0,-4.0786,-4.0367,0.0,0.0,0.0,0.0,0.0,0.0,0.0,0.0,0.0,0.0,0.0,0.0,0.0,0.0,0.0,0.0,0.0,0.0,0.0,0.0,0.0,0.0,0.0,-3.2593,-3.2593,-3.2593,-3.2451,-3.2415,0.0,0.0,0.0,0.0,0.0,0.0,0.0,-3.2119,-3.2119,-3.2119,-3.2345,-3.2508,-3.2508,-3.3037,-3.3467,-3.3775,-3.3064,0.0,0.0,0.0,0.0,0.0,0.0,0.0,0.0,0.0,0.0,0.0,0.0,0.0,0.0,0.0,0.0,0.0,0.0,0.0,0.0,0.0,0.0,0.0,0.0,0.0,0.0,0.0,0.0,0.0,0.0,0.0,0.0,0.0,0.0,0.0,0.0,0.0,0.0,0.0,0.0,0.0,0.0,0.0,0.0,0.0,0.0,0.0,0.0,0.0,0.0,0.0,0.0,0.0,0.0,0.0,0.0,0.0,0.0,0.0,0.0,0.0,0.0,0.0,-4.2456,-4.2663,-4.2806,-4.2994,-4.3053,-4.2924,-4.1873,-4.1546,-4.1654,-4.0995,0.0,0.0,0.0,0.0,0.0,0.0,0.0,0.0,0.0,0.0,0.0,0.0,0.0,0.0,0.0,0.0,0.0,0.0,0.0,0.0,0.0,-3.2593,-3.2593,-3.2593,-3.1865,-3.1756,-3.2558,0.0,0.0,0.0,0.0,0.0,-3.0177,-3.0177,-3.0177,-3.0177,-3.143,-3.2057,-3.2084,-3.2629,-3.2906,-3.2993,-3.3172,-3.3661,-3.4242,0.0,0.0,0.0,0.0,0.0,0.0,0.0,0.0,0.0,0.0,0.0,0.0,0.0,0.0,0.0,0.0,0.0,0.0,0.0,0.0,0.0,0.0,0.0,0.0,0.0,0.0,0.0,0.0,0.0,0.0,0.0,0.0,0.0,0.0,0.0,0.0,0.0,0.0,0.0,0.0,0.0,-4.2312,-4.2841,0.0,0.0,0.0,0.0,0.0,0.0,0.0,0.0,0.0,0.0,0.0,0.0,0.0,-4.1873,-4.1254,-4.3016,-4.3105,-4.1555,-4.2694,-4.2423,-4.088,-4.1497,-4.1747,-4.1719,-4.1552,0.0,-4.2991,-4.241,0.0,0.0,0.0,0.0,0.0,0.0,0.0,0.0,0.0,0.0,0.0,0.0,0.0,0.0,0.0,0.0,0.0,0.0,0.0,0.0,0.0,-3.1033,-3.1033,-3.1033,-3.0646,-3.0608,-3.0996,-3.0254,0.0,0.0,0.0,-2.9804,-2.9804,-2.9804,-2.9955,-3.0256,-3.117,-3.1664,-3.1689,-3.2547,-3.2957,-3.2998,-3.3164,-3.3159,-3.2981,-3.2751,0.0,0.0,0.0,0.0,0.0,0.0,0.0,0.0,0.0,0.0,0.0,0.0,0.0,0.0,0.0,0.0,0.0,0.0,0.0,0.0,0.0,0.0,0.0,0.0,0.0,0.0,0.0,0.0,0.0,0.0,0.0,0.0,0.0,0.0,0.0,0.0,0.0,0.0,0.0,-4.2701,-4.3688,-4.288,-4.2691,-4.2147,0.0,0.0,0.0,0.0,0.0,0.0,0.0,0.0,0.0,-3.9942,-4.0831,-4.1185,-4.0879,-4.2108,-4.2477,-4.2032,-4.261,-4.2646,-4.2223,-4.2471,-4.2609,-4.2609,-4.2609,-4.2904,-4.3268,-4.1581,-4.0723,-4.0339,0.0,0.0,0.0,0.0,-3.7405,-3.7298,0.0,0.0,0.0,0.0,0.0,0.0,0.0,0.0,0.0,0.0,0.0,0.0,-2.9856,-2.9804,-2.9804,-2.9804,-2.9804,-2.9804,-2.9804,-2.9804,-2.9804,-2.9804,-2.9804,-2.9804,-2.9804,-2.993,-3.0206,-3.0608,-3.1286,-3.1612,-3.1637,-3.2767,-3.3294,-3.3294,-3.3445,-3.3115,-3.2462,-3.2033,-3.2011,-3.227,0.0,0.0,0.0,0.0,0.0,0.0,0.0,0.0,0.0,0.0,0.0,0.0,0.0,0.0,0.0,0.0,0.0,0.0,0.0,0.0,0.0,0.0,0.0,0.0,0.0,0.0,0.0,0.0,0.0,0.0,0.0,0.0,0.0,0.0,0.0,0.0,0.0,-4.3219,-4.4187,-4.2438,-4.3128,-4.2883,0.0,0.0,0.0,0.0,0.0,0.0,-3.9744,-3.9891,-3.9895,-3.9789,-4.0722,-4.1096,-4.0776,-4.158,-4.2093,-4.2276,-4.2276,-4.2351,-4.2544,-4.2544,-4.2544,-4.2544,-4.2544,-4.2544,-4.2409,-4.1014,-4.0222,-3.9837,-3.8791,-3.8143,-3.7896,-3.7603,-3.7519,-3.7476,0.0,0.0,0.0,0.0,0.0,0.0,0.0,0.0,0.0,0.0,0.0,-2.9856,-2.9804,-2.9804,-2.9804,-2.9804,-2.9804,-2.9804,-2.9804,-2.9804,-2.9804,-2.9804,-2.9804,-2.9804,-2.9804,-3.0306,-3.0583,-3.0608,-3.1662,-3.2164,-3.219,-3.3319,-3.3847,-3.3872,-3.4399,-3.4299,-3.3708,-3.2097,-3.1433,-3.1372,-3.0337,0.0,0.0,0.0,0.0,0.0,0.0,0.0,0.0,0.0,0.0,0.0,0.0,0.0,0.0,0.0,0.0,0.0,0.0,0.0,0.0,0.0,0.0,0.0,0.0,0.0,0.0,0.0,0.0,0.0,0.0,0.0,0.0,0.0,0.0,0.0,0.0,0.0,0.0,-4.1925,-4.3097,0.0,0.0,0.0,0.0,-3.9541,-3.9497,-3.9771,-4.0392,-4.0995,-4.1044,-4.054,-4.2276,-4.2623,-4.1558,-4.2773,-4.2801,-4.1663,-4.1663,-4.1043,-3.9878,-3.9878,-3.9878,-3.9878,-3.9878,-3.9878,-4.0032,-4.1672,-4.1672,-4.0587,-3.9865,-3.8886,-3.777,-3.6754,-3.6392,-3.6218,0.0,0.0,0.0,0.0,0.0,0.0,0.0,0.0,-3.097,-3.0381,-3.0011,-2.9804,-2.9804,-2.9804,-2.9804,-2.9804,-2.9804,-2.9482,-2.8767,-2.8727,-2.841,-2.773,-2.7689,-2.7789,-2.8075,-2.9001,-2.9828,-3.0465,-3.2027,-3.2767,-3.2792,-3.4274,-3.4731,-3.4449,-3.4956,-3.5107,-3.4806,-3.3194,-3.2265,-3.1813,-3.0758,-3.0306,0.0,0.0,0.0,0.0,0.0,0.0,0.0,0.0,0.0,0.0,0.0,0.0,0.0,0.0,0.0,0.0,0.0,0.0,0.0,0.0,0.0,0.0,0.0,0.0,0.0,0.0,0.0,0.0,0.0,0.0,0.0,0.0,0.0,0.0,0.0,0.0,0.0,-4.3897,-4.4999,0.0,-4.291,-4.1342,-4.052,-4.0643,-4.0331,-4.0404,-4.0974,-4.1207,-4.126,-4.1027,-4.1363,-4.1441,-4.1385,-4.1156,-4.1025,-4.0901,-4.0543,-4.0134,-3.9697,-3.9697,-3.9697,-3.9697,-3.9697,-3.9697,-3.9775,-4.0436,-4.0216,-3.9459,-3.8449,-3.7852,-3.7344,-3.6642,-3.6376,-3.6284,0.0,0.0,0.0,0.0,0.0,0.0,0.0,0.0,-3.0495,-2.9895,-2.9804,-2.9804,-2.9804,-2.9804,-2.9804,-2.9804,-2.9443,-2.891,-2.8124,-2.7763,-2.7238,-2.6524,-2.664,-2.6822,-2.7093,-2.8195,-2.918,-2.9973,-3.138,-3.2361,-3.3005,-3.4262,-3.4867,-3.4981,-3.5579,-3.5805,-3.573,-3.4449,-3.347,-3.2717,-3.1813,-3.1436,-3.1311,0.0,0.0,0.0,0.0,0.0,0.0,0.0,0.0,0.0,0.0,0.0,0.0,0.0,0.0,0.0,0.0,0.0,0.0,0.0,0.0,0.0,0.0,0.0,0.0,0.0,0.0,0.0,0.0,0.0,0.0,0.0,0.0,0.0,0.0,-4.3365,-4.5154,-4.3748,-4.5304,-4.5611,-4.3486,-4.2235,-4.1701,-4.1879,-4.1529,-4.143,-4.1605,-4.1806,-4.1731,-4.13,-4.1153,-4.1153,-4.1275,-4.0601,-4.0425,-4.0802,-4.0425,-4.0249,-4.0249,-4.0049,-3.9973,-3.9948,-3.9772,-3.9697,-3.9697,-3.9697,-3.9471,-3.9069,-3.8115,-3.7513,-3.7136,-3.6832,-3.6556,-3.6405,0.0,0.0,0.0,0.0,0.0,0.0,0.0,-3.0419,-2.9818,-2.9804,-2.9804,-2.9804,-2.9804,-2.9804,-2.9804,-2.974,-2.8727,-2.8084,-2.8004,-2.7035,-2.6442,-2.6423,-2.6785,-2.701,-2.7054,-2.8032,-2.8745,-2.9211,-2.9747,-3.0923,-3.2652,-3.3244,-3.4218,-3.5487,-3.6107,-3.6405,-3.638,-3.5805,-3.4906,-3.3922,-3.3345,-3.3093,-3.2993,0.0,0.0,0.0,0.0,0.0,0.0,0.0,0.0,0.0,0.0,0.0,0.0,0.0,0.0,0.0,0.0,0.0,0.0,0.0,0.0,0.0,0.0,0.0,0.0,0.0,0.0,0.0,0.0,0.0,0.0,0.0,0.0,0.0,-3.9772,-4.1656,-4.266,-4.1576,-4.389,-4.4669,-4.2564,-4.3263,-4.3639,-4.3062,-4.3037,-4.2811,-4.2313,-4.2766,-4.2509,-4.1401,-4.1907,-4.1907,-4.1351,-4.13,-4.13,-4.13,-4.1275,-4.125,-4.125,-4.0752,-4.0501,-4.045,-3.9923,-3.9697,-3.9697,-3.9697,-3.9697,-3.9647,-3.9069,-3.8215,-3.7211,-3.7161,-3.6883,-3.6405,0.0,0.0,0.0,0.0,0.0,0.0,-3.1462,-3.097,-3.0545,-2.9895,-2.9804,-2.9804,-2.9804,-2.9804,-2.9443,-2.8648,-2.8307,-2.7418,-2.5817,-2.542,-2.504,-2.4571,-2.4669,-2.5153,-2.6034,-2.7264,-2.8194,-2.8934,-3.0361,-3.1125,-3.1281,-3.3238,-3.4102,-3.4124,-3.5705,-3.6405,-3.6405,-3.6207,-3.5956,-3.56,-3.4223,-3.3671,-3.3596,0.0,0.0,0.0,0.0,0.0,0.0,0.0,0.0,0.0,0.0,0.0,0.0,0.0,0.0,0.0,0.0,0.0,0.0,0.0,0.0,0.0,0.0,0.0,0.0,0.0,0.0,0.0,0.0,0.0,0.0,0.0,-4.0475,-4.1932,-4.1584,-4.3388,-4.4844,-4.4945,-4.5974,-4.6276,-4.5271,-4.5447,-4.5221,-4.4242,-4.4568,-4.4543,-4.3966,-4.3714,-4.3438,-4.3137,-4.2484,-4.2338,-4.2534,-4.1731,-4.153,-4.1907,-4.1128,-4.0752,-4.0727,-4.0174,-3.9923,-3.9898,-3.9747,-3.9697,-3.9697,-3.9697,-3.9697,-3.9597,-3.8617,-3.8065,-3.7688,-3.6933,-3.6531,-3.6355,0.0,0.0,0.0,0.0,0.0,0.0,-3.1499,-3.1204,-3.0857,-2.9934,-2.9804,-2.9804,-2.9804,-2.9804,-2.9521,-2.8846,-2.7947,-2.6871,-2.5588,-2.4805,-2.4203,-2.3814,-2.4316,-2.4961,-2.5674,-2.679,-2.7659,-2.835,-2.9408,-3.0149,-3.0563,-3.2582,-3.3658,-3.3982,-3.5662,-3.6405,-3.6405,-3.6405,-3.6531,-3.6656,-3.5403,-3.5077,-3.5203,-3.4399,-3.4123,-3.4048,-3.347,-3.3545,-3.3796,-3.3144,0.0,0.0,0.0,0.0,0.0,0.0,0.0,0.0,0.0,0.0,0.0,0.0,0.0,0.0,0.0,0.0,0.0,0.0,0.0,0.0,0.0,0.0,0.0,0.0,-4.2534,-4.4091,-4.4217,-4.5171,-4.6024,-4.6602,-4.6928,-4.7004,-4.6702,-4.6652,-4.6376,-4.5723,-4.5773,-4.5573,-4.502,-4.4669,-4.4392,-4.4141,-4.3514,-4.3338,-4.3664,-4.2811,-4.2534,-4.2836,-4.1957,-4.1555,-4.153,-4.0752,-4.0375,-4.035,-3.9898,-3.9697,-3.9697,-3.9697,-3.9697,-3.9622,0.0,0.0,0.0,0.0,-3.6405,-3.6329,0.0,0.0,0.0,0.0,0.0,0.0,-3.1684,-3.1319,-3.0902,-2.9986,-2.9831,-2.9804,-2.9804,-2.9804,-2.974,-2.9624,-2.7787,-2.667,-2.6592,-2.4943,-2.4053,-2.4151,-2.5086,-2.5654,-2.5752,-2.6562,-2.7187,-2.7728,-2.7728,-2.8533,-3.012,-3.1571,-3.2955,-3.4239,-3.5715,-3.643,-3.6505,-3.6505,-3.6832,-3.7236,-3.6782,-3.6883,-3.7161,-3.6085,-3.5734,-3.5708,-3.5157,-3.4776,-3.4449,-3.4324,0.0,0.0,0.0,0.0,0.0,0.0,0.0,0.0,0.0,0.0,0.0,0.0,0.0,0.0,0.0,0.0,0.0,0.0,0.0,0.0,0.0,0.0,0.0,0.0,-4.4669,-4.62,-4.7179,-4.6954,-4.6803,-4.7179,-4.723,-4.723,-4.723,-4.728,-4.7255,-4.7093,-4.6728,-4.6225,-4.5623,-4.5522,0.0,0.0,0.0,-4.4618,-4.4618,-4.4091,-4.379,-4.379,-4.3162,-4.2861,-4.276,-4.1731,-4.1175,-4.105,-4.0124,-3.9697,-3.9697,-3.9697,-3.9697,-3.9672,-3.9546,-3.8818,-3.7688,-3.6782,-3.631,-3.6068,0.0,0.0,0.0,0.0,0.0,0.0,0.0,-3.2041,-3.1172,-3.0252,-2.9935,-2.9804,-2.9804,-2.9804,-2.9443,-2.8505,-2.8068,-2.7627,-2.7169,-2.5828,-2.5437,-2.6273,-2.5605,-2.5527,-2.625,-2.6426,-2.6894,-2.7728,-2.7728,-2.8029,-2.8741,-3.1184,-3.2431,-3.2783,-3.5307,-3.6656,-3.7036,-3.7036,-3.7337,-3.7839,-3.7739,-3.7739,-3.7764,-3.7111,-3.7136,-3.7462,-3.691,-3.7236,-3.7764,-3.686,-3.6835,-3.7111,-3.6558,-3.6128,0.0,0.0,0.0,0.0,0.0,0.0,0.0,0.0,0.0,0.0,0.0,0.0,0.0,0.0,0.0,0.0,0.0,0.0,0.0,-4.4066,-4.6451,-4.8209,-4.8435,-4.8736,-4.8661,-4.7857,-4.7757,-4.7757,-4.7757,-4.8184,-4.8083,-4.7143,-4.7431,-4.7179,-4.62,-4.5723,-4.5447,-4.5321,-4.4869,-4.4618,-4.4618,-4.4091,-4.379,-4.379,-4.2841,0.0,-4.163,-4.0978,-4.0425,-3.9998,-3.9798,-3.9697,-3.9697,-3.9697,-3.9697,-3.9597,-3.8693,-3.7663,-3.6707,-3.648,-3.5715,-3.4631,0.0,0.0,0.0,0.0,0.0,0.0,0.0,-3.2175,-3.1453,-3.0342,-3.0099,-2.996,-2.9793,-2.9804,-2.9585,-2.8988,-2.8426,-2.7877,-2.7347,-2.6866,-2.6731,-2.6911,-2.6736,-2.658,-2.6367,-2.6602,-2.7012,-2.7728,-2.7728,-2.7943,-2.8335,-3.103,-3.228,-3.2431,-3.5138,-3.6707,-3.7186,-3.7186,-3.7513,-3.8015,-3.8015,-3.8191,-3.8417,-3.814,-3.8191,-3.8442,-3.8442,-3.8617,-3.8818,-3.8542,-3.8617,-3.8793,-3.8542,-3.8241,-3.7814,0.0,0.0,0.0,0.0,0.0,0.0,0.0,0.0,0.0,0.0,0.0,0.0,0.0,0.0,-4.083,-4.1605,0.0,-4.4669,-4.605,-4.7908,-4.9289,-4.9565,-5.0092,-4.9916,-4.851,-4.8335,-4.8335,-4.8335,-4.8611,-4.8535,-4.7983,-4.7933,-4.7556,-4.6753,-4.6451,-4.6175,-4.5899,-4.5623,-4.5347,-4.5045,-4.4493,-4.4066,-4.379,-4.274,-4.2062,-4.1731,-4.0902,-4.0375,-4.0099,-3.9823,-3.9697,-3.9697,-3.9697,-3.9346,-3.8743,-3.7491,-3.6676,-3.6137,-3.5623,-3.4508,-3.3215,0.0,0.0,0.0,0.0,0.0,0.0,0.0,-3.2032,-3.1528,-3.05,-3.0414,-3.0273,-2.9783,-2.9935,-2.996,-2.9628,-2.8778,-2.8186,-2.7934,-2.8143,-2.8054,-2.775,-2.8199,-2.798,-2.7019,-2.7312,-2.7713,-2.8155,-2.8235,-2.8548,-2.8971,-3.1549,-3.2705,-3.2833,-3.5307,-3.6707,-3.7186,-3.7287,-3.7663,-3.8191,-3.8291,-3.8617,-3.907,-3.907,-3.907,-3.9094,-3.9546,-3.9396,-3.9094,-3.9546,-3.9772,-3.9848,-3.9848,-3.9923,-3.9697,-3.814,-3.8241,0.0,0.0,0.0,0.0,0.0,0.0,0.0,0.0,-4.0501,-4.0978,-4.2028,-4.2735,-4.3564,-4.4995,-4.5824,-4.6753,-4.8159,-4.9339,-5.0193,-5.0544,-5.1071,-5.0896,-4.9439,-4.9163,-4.9088,-4.9088,-4.8987,-4.8887,-4.8786,-4.8335,-4.7857,-4.7244,-4.7179,-4.6928,-4.6476,-4.6376,-4.61,-4.5648,-4.497,-4.4392,-4.394,-4.2791,-4.2162,-4.1957,-4.0978,-4.045,-4.0272,-3.9613,-3.9413,-3.9645,-3.9077,-3.866,-3.8166,-3.6285,-3.5577,-3.5459,-3.4395,-3.3105,-3.1816,0.0,0.0,0.0,0.0,0.0,0.0,0.0,0.0,-3.1177,-3.1013,-3.1282,-3.0926,-2.9609,-3.0404,-3.0488,-2.9114,-2.8875,-2.9222,-3.0174,-2.9725,-2.9781,-3.0681,-2.9784,-2.9209,-2.9071,-2.9137,-2.9333,-2.9723,-3.0259,-3.0722,-3.1208,-3.3195,-3.419,-3.4239,-3.5715,-3.6707,-3.7211,-3.7713,-3.8241,-3.8818,-3.932,-3.9546,-3.9597,-3.9597,-3.9597,-3.9622,-3.9672,-3.9647,-3.9622,-3.9672,-4.0023,-4.0425,-4.0425,-4.0752,-4.0874,-3.9747,-3.9145,-3.8718,-3.8015,-3.8291,-3.9245,-4.1257,-4.143,-4.1852,0.0,-4.4744,-4.4392,-4.5522,-4.62,-4.6778,-4.7431,-4.841,-4.9364,-5.0017,-5.1096,-5.1674,-5.1247,-5.1674,-5.1749,-5.1071,-5.0544,-5.0243,-5.0243,-4.9791,-4.9289,-4.8875,-4.8711,-4.8435,-4.7857,-4.738,-4.7043,-4.6993,-4.6577,-4.6276,-4.6225,-4.5146,-4.4593,-4.4518,-4.2911,-4.1907,-4.1351,-4.0802,-4.0249,-3.9721,-3.8319,-3.8477,-3.9517,-3.6888,-3.7246,-3.9139,-3.5486,-3.4125,-3.4094,-3.2943,-3.1673,-3.0451,0.0,0.0,0.0,0.0,0.0,0.0,0.0,0.0,0.0,-3.113,-3.1237,-3.0987,-3.0187,-3.0405,-3.0303,-2.9479,-2.9428,-2.9905,-3.0984,-3.0786,-3.0834,-3.1175,-3.0732,-3.0124,-2.9418,-2.9396,-2.9777,-3.0513,-3.0785,-3.1278,-3.199,-3.363,-3.4385,-3.4483,-3.6157,-3.7136,-3.7688,-3.8266,-3.8642,-3.8969,-3.9471,-3.9496,-3.9245,-3.9572,-3.9496,-3.922,-3.922,-3.922,0.0,-3.9597,-3.9848,-4.0149,-4.0802,-4.0874,-4.0701,-3.9923,-3.9747,-3.9772,-3.9521,-4.035,-4.1404,-4.2062,-4.2961,-4.4116,-4.5522,-4.5974,-4.6401,-4.7506,-4.8435,-4.9213,-4.9766,-5.0268,-5.0645,-5.0896,-5.1599,-5.2026,-5.18,-5.2226,-5.2377,-5.1825,-5.1548,-5.1147,-5.0494,-4.9916,-4.949,-4.9264,-4.9264,-4.9012,-4.8435,-4.7883,-4.7431,-4.7093,-4.6276,-4.5824,-4.5824,-4.4719,-4.4141,-4.4116,-4.2459,-4.1555,-4.125,-4.0425,-3.9923,-3.9645,-3.8137,-3.7849,-3.8243,-3.6162,-3.5839,-3.635,-3.3652,-3.249,-3.2144,-3.1421,-3.0276,-2.9104,0.0,0.0,0.0,0.0,0.0,0.0,0.0,0.0,0.0,0.0,-3.1351,-3.1444,-3.1299,-3.0608,-3.0121,-3.0091,-2.9678,-2.991,-3.1004,-3.1019,-3.1117,-3.1443,-3.1448,-3.1124,-3.0463,-3.0557,-3.0997,-3.1738,-3.2016,-3.2526,-3.3195,-3.4412,-3.4921,-3.4993,-3.655,-3.7412,-3.7839,-3.8567,-3.8919,-3.8969,-3.9471,-3.9446,-3.912,-3.9371,-3.912,-3.8642,-3.8869,-3.8768,-3.8668,-3.8919,-3.922,-3.9546,-4.0049,-4.0249,-4.0174,-3.9622,-3.9848,-4.03,-4.03,-4.148,-4.276,-4.2866,-4.4392,-4.6024,-4.6326,-4.7255,-4.8309,-4.9264,-5.0218,-5.1071,-5.1624,-5.1724,-5.1724,-5.1724,-5.2076,-5.2327,-5.2327,-5.2553,-5.2553,-5.2151,-5.1699,-5.1222,-5.0695,-5.0293,-4.9992,-4.9841,-4.9816,-4.959,-4.9038,-4.8309,-4.7732,-4.7355,-4.6276,-4.5723,-4.5723,-4.4593,-4.4041,-4.4016,-4.2153,-4.1275,-4.125,-4.0199,-3.9465,-3.9025,-3.753,-3.6865,-3.6757,-3.4847,-3.423,-3.4213,-3.2045,-3.1096,-3.0905,-3.0077,-2.9164,-2.8242,0.0,0.0,0.0,0.0,0.0,0.0,0.0,0.0,0.0,0.0,0.0,0.0,0.0,-3.1223,-3.019,-3.073,-2.9395,-2.9031,-3.0141,-2.9998,-3.0557,-3.2123,-3.2156,-3.2406,-3.2982,-3.3508,-3.3809,-3.3834,-3.484,-3.539,-3.544,-3.606,-3.6358,-3.6383,-3.6935,-3.7186,-3.7287,-3.8391,-3.8919,-3.8969,-3.9471,-3.9697,-3.9622,-3.9094,-3.8542,-3.8115,-3.8668,-3.8517,-3.7939,-3.7437,-3.799,-3.8768,-3.7638,-3.8417,-3.9622,-3.9069,-3.9295,-3.9722,-3.9722,-4.0927,-4.2615,-4.4141,-4.5824,-4.7355,-4.8435,-4.9515,-5.0494,-5.1096,-5.1649,-5.2226,-5.2779,-5.2879,-5.2879,-5.2879,-5.2904,-5.2904,-5.2904,-5.2452,-5.2126,-5.2101,-5.067,-5.0092,-5.1147,-5.1247,-5.0996,-5.0444,-5.0393,-5.0142,-4.959,-4.851,-4.7908,-4.7883,-4.6853,-4.6276,-4.6276,-4.5171,-4.4593,-4.4568,-4.2329,-4.1275,-4.125,-4.0199,-3.8921,-3.7453,-3.5999,-3.5343,-3.5123,-3.2207,-3.2431,-3.4289,-3.0968,-3.0247,-3.0905,-2.906,-2.8354,-2.8301,0.0,0.0,0.0,0.0,0.0,0.0,0.0,0.0,0.0,0.0,0.0,0.0,0.0,0.0,0.0,0.0,-3.087,-3.088,-3.1685,-3.1639,-3.2177,-3.3539,-3.4005,-3.4006,-3.3509,-3.4095,-3.4452,-3.4449,-3.4781,-3.5378,-3.6081,-3.6329,-3.6405,-3.6455,-3.7312,-3.7739,-3.7814,-3.8944,-3.9622,-3.9923,-3.9371,-3.9597,-4.0099,-3.8793,-3.7939,-3.7387,0.0,-3.6486,-3.6235,-3.573,-3.6282,-3.7089,-3.6137,-3.69,-3.7841,-3.6748,-3.7986,-3.9592,-3.9075,-4.1027,-4.3564,-4.4869,-4.6175,-4.7431,-4.851,-4.9615,-5.0469,-5.067,-5.0569,-5.0494,-5.067,-5.0419,-5.0419,-5.1147,-5.19,-5.2503,-5.2879,-5.2779,-5.2377,-5.1649,-5.1373,-5.1272,-5.1272,-5.0594,-5.0243,-5.0393,-5.077,-5.0594,-4.964,-4.8887,-4.8309,-4.7908,-4.6502,-4.5773,-4.5773,-4.4644,-4.4091,-4.4066,-4.2153,-4.0953,-4.0249,-3.9873,-3.8921,-3.7423,-3.5945,-3.4736,-3.3655,-3.1368,-3.094,-3.1487,-2.9782,-2.9372,-2.9553,-2.8652,-2.8301,-2.8301,0.0,0.0,0.0,0.0,0.0,0.0,0.0,0.0,0.0,0.0,0.0,0.0,0.0,0.0,0.0,0.0,0.0,-3.2066,-3.2674,-3.2422,-3.277,-3.3945,-3.4396,-3.4421,-3.3899,-3.4527,-3.4827,-3.4856,-3.5271,-3.5885,-3.6612,-3.7046,-3.7274,-3.7326,-3.847,-3.899,-3.9042,-3.9956,-4.0048,-3.9598,-3.9087,-3.884,-3.8617,-3.7538,-3.691,0.0,-3.5127,-3.4801,-3.4831,-3.4324,-3.4876,-3.5665,-3.4964,-3.5404,-3.5966,-3.4775,-3.6189,-3.8094,-3.7895,-4.0346,-4.3259,-4.4565,-4.6002,-4.7431,-4.851,-4.9464,-5.0117,-5.0117,-4.969,-4.9238,-4.9038,-4.856,-4.8485,-4.9364,-5.0293,-5.1247,-5.2201,-5.2,-5.1624,-5.1322,-5.1247,-5.1147,-5.0996,-5.0318,-5.0117,-5.0695,-5.087,-5.0569,-4.964,-4.9063,-4.851,-4.7933,-4.6728,-4.5974,-4.5773,-4.4669,-4.3689,-4.2911,-4.1802,-4.0486,-3.8921,-3.8921,-3.7796,-3.5868,-3.4958,-3.3698,-3.2223,-3.0772,-3.0098,-2.9902,-2.9199,-2.8828,-2.8652,-2.8398,-2.8301,-2.8301,0.0,0.0,0.0,0.0,0.0,0.0,0.0,0.0,0.0,0.0,0.0,0.0,0.0,0.0,0.0,0.0,0.0,0.0,-3.3124,-3.2422,-3.2409,-3.3467,-3.355,-3.3781,-3.4313,-3.4843,-3.5134,-3.5123,-3.6248,-3.6824,-3.6879,-3.8158,-3.8723,-3.8778,-3.9963,-4.0487,-4.057,-4.1131,-4.0114,-3.8206,-3.8616,-3.7557,-3.5625,-3.5508,-3.5483,-3.5257,-3.3721,-3.347,-3.3822,-3.3269,-3.3803,-3.4635,-3.4179,-3.4252,-3.4306,-3.3362,-3.4213,-3.5635,-3.6394,-3.8965,-4.1828,-4.335,-4.5404,-4.738,-4.8435,-4.9088,-4.9464,-4.9439,-4.8937,-4.8335,-4.7633,-4.7157,-4.6995,-4.7508,-4.8183,-4.9207,-5.0855,-5.0222,-5.0012,-5.1064,-5.0303,-4.9916,-5.0444,-5.0444,-5.067,-5.1272,-5.082,-5.0243,-4.9665,-4.9138,-4.856,-4.7933,-4.7405,-4.6853,-4.6276,-4.5146,-4.3489,-4.1275,-4.1275,-4.0009,-3.7636,-3.753,-3.5922,-3.3191,-3.3134,-3.2264,-3.0859,-3.0371,-2.9922,-2.9531,-2.9062,-2.8652,-2.8301,-2.8301,-2.8301,-2.8301,0.0,0.0,0.0,0.0,0.0,0.0,0.0,0.0,0.0,0.0,0.0,0.0,0.0,0.0,0.0,0.0,0.0,0.0,-3.4125,-3.3965,-3.4156,-3.4945,-3.5443,-3.5421,-3.4761,-3.5386,-3.5517,-3.5123,-3.5425,-3.577,-3.6168,-3.651,-3.6647,-3.6674,-3.7414,-3.799,-3.8483,-3.9113,-3.9223,-3.8996,-3.797,-3.7429,-3.7097,-3.5957,-3.5232,-3.4831,-3.4449,-3.4123,-3.3822,-3.3269,-3.3695,-3.4726,-3.5974,-3.599,-3.5395,-3.4328,-3.5876,-3.763,-3.6453,-3.9281,-4.2732,-4.3517,-4.511,-4.6702,-4.7405,-4.7657,-4.7631,-4.723,-4.605,-4.4577,-4.293,-4.2951,-4.3307,-4.345,-4.5177,-4.682,-4.7951,-4.9132,-4.9848,-4.9704,-5.0765,-5.1523,-5.1649,-5.0921,-5.082,-5.1825,-5.1749,-5.1247,-5.0268,-5.0067,-4.9364,-4.7958,-4.7405,-4.6677,-4.5698,-4.4568,-4.3112,-4.1275,-4.1275,-4.0539,-3.9077,-3.8031,-3.6487,-3.4681,-3.3564,-3.2264,-3.084,-3.0059,-2.9668,-2.9492,-2.875,-2.8398,-2.8301,-2.8301,-2.8301,-2.8301,0.0,0.0,0.0,0.0,0.0,0.0,0.0,0.0,0.0,0.0,0.0,0.0,0.0,0.0,0.0,0.0,0.0,0.0,0.0,-3.4921,-3.51,-3.5489,-3.5848,-3.5763,-3.5195,-3.5546,-3.559,-3.5296,-3.5552,-3.5866,-3.6199,-3.6712,-3.7006,-3.7035,-3.7624,-3.8079,-3.8478,-3.8808,-3.8569,0.0,0.0,-3.6692,-3.5591,-3.5535,-3.5156,-3.468,-3.468,-3.4826,-3.4977,-3.4901,-3.5362,-3.6161,-3.7144,-3.7103,-3.663,-3.6109,-3.7109,-3.8275,-3.7813,-4.0311,-4.3065,-4.3588,-4.5013,-4.6326,-4.6401,-4.6401,-4.6175,-4.5372,-4.3581,-4.1736,-4.0305,-4.0118,-4.0372,-4.0796,-4.275,-4.4928,-4.7273,-4.8357,-4.9288,-5.0312,-5.1439,-5.2,-5.1774,-5.1398,-5.1423,-5.2051,-5.1423,-5.082,-5.0444,-5.0193,-4.9389,-4.7958,-4.7631,-4.6702,-4.5121,-4.4242,-4.2961,-4.1275,-4.1275,-4.0408,-3.8687,-3.721,-3.5727,-3.4236,-3.2758,-3.1652,-3.082,-2.9941,-2.9626,-2.9492,-2.8633,-2.8301,-2.8301,-2.8301,-2.8301,-2.8301,0.0,0.0,0.0,0.0,0.0,0.0,0.0,0.0,0.0,0.0,0.0,0.0,0.0,0.0,0.0,0.0,0.0,0.0,0.0,0.0,-3.5519,-3.5519,-3.5519,-3.5519,-3.5519,-3.5519,-3.5519,-3.5519,-3.6088,-3.6357,-3.6387,-3.7494,-3.8003,-3.8033,-3.8631,-3.896,-3.902,-3.902,-3.7843,-3.6164,-3.7218,-3.5899,-3.3407,0.0,-3.5349,-3.4805,-3.4821,-3.5529,-3.6631,-3.7287,-3.7889,-3.8316,-3.8198,-3.8292,-3.8407,-3.8378,-3.8352,-3.8598,-3.9717,-4.1538,-4.3245,-4.3612,-4.4964,-4.605,-4.5497,-4.5271,-4.4819,-4.3714,-4.1661,-3.9754,-3.8817,-3.8378,-3.8372,-3.8935,-4.0954,-4.3624,-4.7214,-4.7789,-4.8776,-5.1507,-5.2065,-5.2026,-5.1548,-5.1875,-5.2101,-5.2101,-5.0619,-4.9941,-5.0494,-4.9941,-4.9012,-4.7732,-4.7631,-4.6602,-4.4543,-4.3966,-4.2911,-4.1275,-4.12,-3.9882,-3.7477,-3.5945,-3.4515,-3.3021,-3.1556,-3.0898,-3.082,-2.9941,-2.9626,-2.9492,-2.8633,-2.8301,-2.8301,-2.8301,-2.8301,-2.8301,0.0,0.0,0.0,0.0,0.0,0.0,0.0,0.0,0.0,0.0,-3.7525,-3.7543,0.0,0.0,0.0,0.0,0.0,0.0,0.0,0.0,0.0,-3.5519,-3.5519,-3.5519,-3.5519,-3.5519,-3.5519,-3.5519,-3.5609,-3.5669,-3.5669,-3.5908,-3.5998,-3.5998,-3.6118,-3.6477,-3.6985,-3.6985,-3.6768,-3.6476,-3.6809,-3.6319,-3.5458,-3.646,0.0,0.0,-3.537,-3.6107,-3.7262,-3.8768,-3.9622,-4.0147,-4.0561,-4.133,-4.1898,-4.1075,-4.1046,-4.1242,-4.0564,-4.1985,-4.3612,-4.3707,-4.4695,-4.5472,-4.4895,-4.4066,-4.3112,-4.2007,-4.1039,-3.9511,-3.653,-3.7699,-3.8574,-3.6872,-4.0171,-4.336,-4.462,-4.7584,-4.9769,-5.0337,-5.1763,-5.2754,-5.2653,-5.2327,-5.2101,-5.2101,-5.0971,-5.0519,-5.1096,-5.0167,-4.8661,-4.6652,-4.615,-4.5271,-4.3966,-4.3388,-4.2534,-4.1275,-4.0824,-3.9537,-3.7477,-3.5945,-3.4515,-3.3021,-3.1556,-3.0898,-3.082,-2.9941,-2.9626,-2.9492,-2.8633,-2.8301,-2.8301,-2.8301,-2.8301,-2.8301,0.0,0.0,0.0,0.0,0.0,0.0,0.0,-3.7686,-3.8038,-3.8388,-3.8438,-3.8256,-3.7841,-3.7084,-3.66,0.0,0.0,0.0,0.0,0.0,0.0,0.0,-3.5519,-3.5519,-3.5519,-3.5519,-3.5519,-3.5519,0.0,-3.5519,-3.5519,-3.5519,-3.5519,-3.5519,-3.5519,-3.5669,-3.5968,-3.5968,-3.6178,-3.6533,-3.6945,-3.6801,-3.6466,0.0,0.0,0.0,-3.607,-3.6483,-3.7362,-3.8442,-3.9572,-4.0752,-4.2183,-4.2785,-4.3025,-4.3078,-4.3238,-4.3319,-4.3192,-4.4049,-4.5074,-4.5074,-4.525,-4.5196,-4.4041,-4.3137,-4.2158,-4.0777,-3.9646,-3.8161,-3.5772,-3.6952,-3.7718,-3.607,-3.9171,-4.266,-4.5121,-4.7306,-4.9429,-5.1275,-5.2327,-5.2929,-5.2929,-5.2678,-5.2427,-5.2126,-5.1348,-5.0745,-5.0419,-4.9063,-4.7707,-4.6351,-4.5472,-4.4644,-4.3815,-4.2961,-4.1778,-4.0171,-3.9634,-3.8323,-3.6325,-3.4847,-3.3789,-3.3021,-3.1556,-3.0898,-3.082,-2.9941,-2.9626,-2.9492,-2.8633,-2.8301,-2.8301,-2.8301,-2.8301,-2.8301,0.0,0.0,0.0,0.0,0.0,0.0,0.0,-3.8159,-3.8396,-3.914,-3.9242,-3.9008,-3.8381,-3.7587,-3.7083,0.0,0.0,0.0,0.0,0.0,0.0,0.0,0.0,0.0,-3.5519,0.0,0.0,-3.5519,-3.5639,0.0,0.0,0.0,0.0,0.0,-3.5519,-3.5519,-3.5519,-3.5519,-3.5878,0.0,0.0,-3.7517,0.0,0.0,0.0,0.0,0.0,-3.6871,-3.7111,-3.7789,-3.8894,-4.0325,-4.2308,-4.2936,-4.3162,-4.4016,-4.4443,-4.4719,-4.5171,-4.5799,-4.6301,-4.6301,-4.5799,-4.4895,-4.3338,-4.2514,-4.1555,-3.9998,-3.8792,-3.7423,-3.5617,-3.6623,-3.726,-3.5823,-3.8494,-4.2093,-4.595,-4.7183,-4.8884,-5.2348,-5.2854,-5.2929,-5.2929,-5.2829,-5.2528,-5.1975,-5.1071,-5.0167,-4.9289,-4.7782,-4.6652,-4.5974,-4.497,-4.4192,-4.3639,-4.2232,-4.0722,-3.9078,-3.8107,-3.6662,-3.4792,-3.362,-3.2907,-3.2587,-3.1383,-3.084,-3.0684,-2.9902,-2.9512,-2.9355,-2.8594,-2.8301,-2.8301,-2.8301,-2.8301,-2.8301,0.0,0.0,0.0,0.0,0.0,0.0,0.0,-3.8903,-3.914,-3.991,-4.0011,-3.9961,-3.9901,-3.9183,-3.869,0.0,0.0,0.0,0.0,0.0,0.0,0.0,0.0,0.0,0.0,0.0,0.0,-3.5519,-3.6118,0.0,0.0,0.0,0.0,0.0,0.0,-3.5519,-3.5519,-3.5519,0.0,0.0,0.0,0.0,0.0,0.0,0.0,0.0,0.0,-3.7315,-3.6656,-3.7638,-3.8115,-3.8442,-3.9697,-4.1404,-4.2986,-4.3112,-4.384,-4.4644,-4.4694,-4.5497,-4.6301,-4.6301,-4.5497,-4.4392,-4.3237,-4.2158,-4.1025,-3.9923,-3.9569,-3.8635,-3.5836,-3.7596,-3.8629,-3.6018,-3.8799,-4.2394,-4.5444,-4.7055,-4.9034,-5.1822,-5.2628,-5.2929,-5.2929,-5.2477,-5.195,-5.1398,-4.9414,-4.8184,-4.8058,-4.7004,-4.5899,-4.4819,-4.4192,-4.3614,-4.3062,-4.0616,-3.9292,-3.9078,-3.6691,-3.4781,-3.3304,-3.3191,-3.2358,-3.1112,-3.0957,-3.0644,-3.0234,-2.9766,-2.9336,-2.8926,-2.8476,-2.8301,-2.8301,-2.8301,-2.8301,-2.8301,0.0,0.0,0.0,0.0,0.0,0.0,-3.9639,-3.9673,-3.9774,-4.0079,-4.0113,-4.0113,-4.0113,-3.9791,-3.942,-3.8935,0.0,0.0,0.0,0.0,0.0,0.0,0.0,0.0,0.0,0.0,-3.6088,-3.6088,-3.6716,0.0,0.0,0.0,0.0,0.0,0.0,-3.5878,-3.5519,-3.5938,0.0,0.0,0.0,0.0,0.0,0.0,0.0,0.0,0.0,0.0,-3.7387,-3.7121,-3.7236,-3.7588,-3.804,-3.9019,-4.0174,-4.1204,-4.2509,-4.3714,-4.4041,-4.5196,-4.6301,-4.6301,-4.5221,-4.3915,-4.3162,-4.1882,-4.0626,-3.9848,-3.9697,-3.9077,-3.6972,-3.8319,-3.9034,-3.7051,-3.9054,-4.1636,-4.3835,-4.4937,-4.6749,-5.0203,-5.0795,-5.1448,-5.2804,-5.2427,-5.1599,-5.0368,-4.8812,-4.7782,-4.7456,-4.6401,-4.5447,-4.4644,-4.3118,-4.2004,-4.1208,-3.8817,-3.7099,-3.5957,-3.5491,-3.409,-3.1825,-3.2701,-3.2322,-3.0898,-3.0898,-3.0625,-3.0156,-2.9746,-2.9316,-2.8887,-2.8457,-2.8301,-2.8301,-2.8301,-2.8301,-2.8301,0.0,0.0,0.0,0.0,0.0,-4.0113,-4.0113,-4.0113,-4.0113,-4.0113,-4.0113,-4.018,-4.0417,-4.0248,-4.0044,-3.9914,-3.8101,0.0,0.0,0.0,0.0,0.0,0.0,0.0,0.0,0.0,-3.6776,-3.6776,-3.7375,-3.7584,0.0,0.0,-3.7375,-3.6776,0.0,0.0,0.0,0.0,0.0,0.0,0.0,0.0,0.0,0.0,0.0,0.0,0.0,0.0,0.0,0.0,0.0,-3.6935,-3.6935,-3.7211,-3.7814,-3.932,-4.1053,-4.261,-4.3162,-4.4669,-4.61,-4.6276,-4.5045,-4.3664,-4.3112,-4.1706,-4.035,-3.9798,-3.9697,-3.9258,-3.7796,-3.8687,-3.9258,-3.7743,-3.8412,-3.9848,-4.1818,-4.2324,-4.3752,-4.7332,-4.8258,-4.9439,-5.1498,-5.1498,-5.072,-4.9213,-4.8209,-4.738,-4.6677,-4.5748,-4.497,-4.4392,-4.2181,-4.0554,-3.973,-3.719,-3.5452,-3.4554,-3.4194,-3.3155,-3.1536,-3.215,-3.1883,-3.0879,-3.0742,-3.043,-2.998,-2.9551,-2.9121,-2.8711,-2.8398,-2.8301,-2.8301,-2.8301,-2.8301,-2.8301,0.0,0.0,0.0,0.0,0.0,0.0,-4.0113,-4.0113,-4.0113,-4.0113,-4.0113,-4.0383,-4.1102,-4.0527,-4.0688,-4.2151,-3.9514,0.0,0.0,0.0,0.0,0.0,0.0,0.0,0.0,0.0,-3.7404,-3.7404,-3.8063,-3.8033,-3.7434,-3.8063,-3.8033,-3.7404,0.0,0.0,0.0,0.0,0.0,0.0,0.0,0.0,0.0,0.0,0.0,0.0,0.0,0.0,0.0,0.0,0.0,0.0,0.0,-3.643,-3.6656,-3.7713,-3.9597,-4.148,-4.2032,-4.3847,-4.5623,-4.6175,-4.5045,-4.3664,-4.3112,-4.1706,-4.035,-3.9798,-3.9697,-3.9258,-3.7796,-3.8687,-3.9258,-3.7743,-3.6631,-3.6928,-3.9632,-3.9579,-4.0295,-4.3034,-4.5108,-4.7004,-4.8661,-4.9314,-4.9138,-4.8008,-4.7431,-4.6652,-4.5573,-4.4945,-4.4367,-4.384,-4.1339,-3.9706,-3.9102,-3.5628,-3.4668,-3.6028,-3.2605,-3.171,-3.3021,-3.1594,-3.0898,-3.0859,-3.041,-2.9961,-2.9607,-2.9101,-2.8672,-2.8301,-2.8301,-2.8301,-2.8301,-2.8301,-2.8301,-2.8301,0.0,0.0,0.0,0.0,0.0,0.0,0.0,-4.0113,-4.0113,-4.0113,-4.0113,-4.018,-4.0392,-4.0696,-4.1035,-4.1508,-4.021,0.0,0.0,0.0,0.0,0.0,0.0,0.0,0.0,-3.7734,-3.8093,-3.8093,-3.8751,-3.923,-3.9439,-3.92,-3.899,-3.8751,-3.8302,-3.7823,0.0,0.0,0.0,0.0,0.0,0.0,-4.329,0.0,0.0,0.0,0.0,0.0,0.0,0.0,0.0,0.0,0.0,0.0,0.0,-3.6832,-3.8467,-4.0249,-4.0425,-4.2082,-4.3714,-4.357,-4.2785,-4.2082,-4.1907,-4.0877,-3.9898,-3.9722,-3.9697,-3.9594,-3.9077,-3.9413,-3.9258,-3.7743,-3.722,-3.6944,-3.6796,-3.8501,-4.0129,-4.1237,-4.5171,-4.781,-4.7889,-4.8951,-4.8812,-4.6954,-4.6652,-4.6075,-4.4945,-4.4016,-4.3413,-4.3237,-4.0073,-3.7965,-3.7038,-3.3833,-3.2387,-3.2526,-3.244,-3.2092,-3.1594,-3.215,-3.1883,-3.0859,-3.0391,-2.9961,-2.9531,-2.9101,-2.8672,-2.8301,-2.8301,-2.8301,-2.8301,-2.8301,-2.8301,-2.8301,0.0,0.0,0.0,0.0,0.0,0.0,0.0,-4.0113,-4.0113,-4.0113,-4.0113,-4.0214,-4.0485,-4.0933,-4.1441,-4.1982,-4.1607,0.0,0.0,0.0,0.0,0.0,0.0,0.0,-3.7764,-3.8422,-3.8901,-3.914,-3.9589,-4.0127,-4.0756,-4.0337,-4.0157,-4.0157,-3.9709,-3.929,0.0,0.0,0.0,0.0,0.0,0.0,-4.329,0.0,0.0,0.0,0.0,0.0,0.0,0.0,0.0,0.0,0.0,0.0,0.0,0.0,-3.7638,-3.9145,-3.9572,-4.1153,-4.269,-4.2564,-4.1907,-4.1275,-4.1275,-4.0475,-3.9697,-3.9697,-3.9697,-3.9697,-3.9697,-3.9697,-3.9258,-3.7743,-3.7026,-3.6495,-3.6004,-3.719,-3.8571,-3.9824,-4.4124,-4.6727,-4.6072,-4.7774,-4.8234,-4.6451,-4.6125,-4.5497,-4.4367,-4.3463,-4.2785,-4.2384,-3.8878,-3.6622,-3.5815,-3.2789,-3.1426,-3.171,-3.2092,-3.2092,-3.1767,-3.1909,-3.1506,-3.0586,-2.998,-2.957,0.0,-2.8867,-2.8535,-2.8301,-2.8301,-2.8301,-2.8301,-2.8301,-2.8301,-2.8301,0.0,0.0,0.0,0.0,0.0,0.0,0.0,-4.0113,-4.0113,-4.0113,-4.0113,-4.0383,-4.1035,-4.1238,-4.1847,-4.3172,0.0,0.0,0.0,0.0,0.0,0.0,0.0,0.0,-3.8452,-3.914,-3.9798,-4.0397,-4.0457,-4.0816,-4.1444,-4.1414,-4.1452,-4.1444,-4.1414,-4.1422,-4.1414,-4.2111,-4.241,-4.244,-4.306,-4.329,0.0,0.0,0.0,0.0,0.0,0.0,0.0,0.0,0.0,0.0,0.0,0.0,0.0,0.0,0.0,0.0,0.0,-4.0752,-4.2137,-4.2559,-4.1957,-4.1175,-4.1175,-4.0425,0.0,-3.9697,-3.9697,-3.9697,-3.9697,-3.9645,-3.9077,-3.7583,-3.6108,-3.5491,-3.6543,-3.5817,-3.6237,-3.9023,-4.2224,-4.3977,-4.3553,-4.6053,-4.7307,-4.6276,-4.5723,-4.492,-4.379,-4.3187,-4.2329,-4.1193,-3.7839,-3.5815,-3.5288,-3.2379,-3.1614,-3.2907,-3.1536,-3.1594,-3.2845,-3.1037,-3.0176,-3.0098,-2.9277,-2.8926,-2.8887,-2.8457,-2.8301,-2.8301,-2.8301,-2.8301,-2.8301,-2.8301,-2.8301,-2.8301,0.0,0.0,0.0,0.0,0.0,0.0,0.0,0.0,0.0,0.0,-4.0113,-4.018,-4.035,-4.1373,-4.2185,0.0,0.0,0.0,0.0,0.0,0.0,0.0,0.0,0.0,-3.917,-3.9828,-4.0247,-4.0397,-4.0905,-4.1542,-4.2141,-4.1662,-4.1692,-4.2141,-4.1632,-4.1422,-4.1414,-4.2111,-4.241,-4.244,-4.306,-4.329,0.0,0.0,0.0,0.0,-4.2029,-4.0873,0.0,0.0,0.0,0.0,0.0,0.0,0.0,0.0,-3.7136,-3.8065,-3.8341,0.0,-4.0199,-3.9898,-3.9948,-4.0074,0.0,-3.9873,-3.9697,-3.9697,-3.9697,-3.9697,-3.9697,-3.8792,-3.753,-3.6054,-3.457,-3.3834,-3.4504,-3.6093,-3.8422,-4.175,-4.2049,-4.2547,-4.3914,-4.5111,-4.5632,-4.5053,-4.4895,-4.4342,-4.3237,-4.2258,-4.1067,-3.9654,-3.6916,-3.54,-3.5288,-3.2379,-3.1054,-3.1383,-3.1054,-3.0877,-3.0903,-3.0406,-3.0019,-2.9687,-2.916,-2.8926,-2.8887,-2.8457,-2.8301,-2.8301,-2.8301,-2.8301,-2.8301,-2.8301,-2.8301,-2.8301,0.0,0.0,0.0,0.0,0.0,0.0,0.0,0.0,0.0,0.0,0.0,-4.0113,-4.0113,-4.1433,0.0,0.0,0.0,0.0,0.0,0.0,0.0,0.0,0.0,-3.9187,-3.9409,-3.9768,-4.0247,-4.0846,-4.1205,-4.1863,-4.2791,-4.2432,-4.2462,-4.2791,-4.2432,-4.2282,-4.2312,-4.2671,-4.2791,-4.2851,-4.314,0.0,0.0,0.0,0.0,0.0,-4.2589,-4.1657,0.0,-3.9316,-3.8179,-3.7103,0.0,0.0,0.0,0.0,-3.7008,-3.7688,-3.7939,-3.8843,-3.9622,-3.932,-3.9471,-3.9697,-3.9697,-3.9697,-3.9517,-3.8844,-3.8687,-3.8477,-3.782,-3.7049,-3.5999,-3.4515,-3.3813,-3.377,-3.4942,-3.6687,-3.8777,-4.1269,-4.1103,-4.1435,-4.3219,-4.4466,-4.5011,-4.4619,-4.4618,-4.4141,-4.3037,-4.1932,-4.0631,-3.9133,-3.6635,-3.4958,-3.4292,-3.2055,-3.0898,-3.0898,-3.0898,-3.0644,-3.0195,-3.0,-2.9668,-2.9238,-2.8828,-2.8633,-2.8613,-2.8379,-2.8301,-2.8301,-2.8301,-2.8301,-2.8301,-2.8301,-2.8301,-2.8301,0.0,0.0,0.0,0.0,0.0,0.0,0.0,0.0,0.0,0.0,0.0,0.0,0.0,0.0,0.0,0.0,0.0,0.0,0.0,0.0,0.0,0.0,-3.9133,-3.9043,-3.9373,-3.9529,-4.0157,-4.1422,-4.1632,-4.2312,-4.3439,-4.3439,-4.3379,-4.329,-4.3409,-4.3379,-4.329,-4.329,-4.329,-4.329,-4.329,0.0,0.0,0.0,0.0,0.0,0.0,0.0,0.0,-4.0275,-3.9094,-3.788,-3.6756,0.0,0.0,0.0,0.0,0.0,-3.7864,-3.8768,-3.9597,-3.9672,-3.9697,-3.9697,-3.9697,-3.9517,-3.9025,-3.7743,-3.7293,-3.678,-3.5598,-3.5235,-3.4646,-3.3494,-3.3728,-3.4596,-3.6227,-3.7397,-3.8444,-3.9542,-3.9771,-4.0392,-4.2016,-4.3399,-4.4191,-4.4218,-4.417,-4.3762,-4.2911,-4.1882,-4.0498,-3.8682,-3.6479,-3.4459,-3.2794,-3.1498,-3.0898,-3.0898,-3.0898,-3.0605,-3.0098,-2.9783,-2.9297,-2.8809,-2.8437,-2.8301,-2.8301,-2.8301,-2.8301,-2.8301,-2.8301,-2.8301,-2.8301,-2.8301,-2.8301,-2.8281,0.0,0.0,0.0,0.0,0.0,0.0,0.0,0.0,0.0,0.0,0.0,0.0,0.0,0.0,0.0,0.0,0.0,0.0,0.0,0.0,0.0,-4.0284,-4.0858,-4.0654,-3.9439,-3.9978,-4.0636,-4.1422,-4.2521,-4.3449,-4.4167,-4.4167,-4.3828,-4.3319,-4.3858,-4.3828,-4.329,-4.329,-4.329,-4.329,-4.329,0.0,0.0,0.0,0.0,0.0,0.0,0.0,0.0,-4.0275,-3.9094,-3.788,-3.6756,0.0,0.0,0.0,0.0,0.0,-3.7864,-3.8492,-3.912,-3.9572,-3.9697,-3.9697,-3.9697,-3.8739,-3.7796,-3.7583,-3.6487,-3.5698,-3.577,-3.4766,-3.4001,-3.4169,-3.4945,-3.5604,-3.605,-3.7697,-3.9088,-3.9625,-3.8829,-3.9004,-4.1041,-4.0236,-4.0401,-4.2317,-4.2112,-4.1995,-4.2278,-4.1681,-3.9813,-3.6667,-3.5746,-3.3979,-3.1286,-3.0995,-3.0898,-3.0898,-3.0898,-3.0469,-2.9668,-2.9646,-2.9141,-2.8379,-2.832,-2.8301,-2.8301,-2.8301,-2.8301,-2.8301,-2.8301,-2.8301,-2.8301,-2.8301,-2.8301,-2.8242,0.0,0.0,0.0,0.0,0.0,0.0,0.0,0.0,0.0,0.0,0.0,0.0,0.0,0.0,0.0,0.0,0.0,0.0,0.0,0.0,-4.2341,-4.101,-4.1684,-4.123,-3.9439,-4.0068,-4.0905,-4.1961,-4.288,-4.3868,-4.4825,-4.4496,-4.4167,-4.3828,-4.4167,-4.4137,-4.3828,-4.3828,-4.3828,-4.3798,0.0,0.0,0.0,0.0,0.0,0.0,0.0,0.0,0.0,0.0,-3.9536,-3.8738,-3.6989,0.0,0.0,0.0,0.0,0.0,-3.7337,-3.7764,-3.8165,-3.9019,-3.9471,-3.9465,-3.8687,-3.7979,-3.7026,-3.5431,-3.457,-3.3995,-3.3628,-3.3366,-3.3538,-3.4405,-3.4952,-3.5497,-3.6476,-3.685,-3.7543,-3.8828,-3.7975,-3.8015,-3.986,-3.9141,-3.9239,-4.0693,-4.0928,-4.0985,-4.0916,-4.0141,-3.8554,-3.6196,-3.4834,-3.3098,-3.0898,-3.0898,-3.0898,-3.0898,-3.0898,-3.043,-2.9626,-2.9626,-2.9101,-2.8301,-2.8301,-2.8301,-2.8301,-2.8301,-2.8301,-2.8301,-2.8301,-2.8301,-2.8301,-2.8301,-2.8301,-2.8223,0.0,0.0,0.0,0.0,0.0,0.0,0.0,0.0,0.0,0.0,0.0,0.0,0.0,0.0,0.0,0.0,0.0,0.0,0.0,-4.3142,-4.2807,-4.146,-4.2051,-4.1632,-3.9918,-4.0516,-4.1414,-4.262,-4.3389,-4.4377,-4.5514,-4.5035,-4.4616,-4.4317,-4.4466,-4.4466,-4.4317,-4.4466,-4.4556,-4.4496,0.0,0.0,0.0,0.0,0.0,0.0,0.0,0.0,0.0,0.0,0.0,0.0,0.0,0.0,0.0,-3.6006,-3.578,-3.5533,-3.6684,-3.6985,-3.7262,-3.8391,-3.8766,-3.8625,-3.7838,-3.7042,-3.5881,-3.3863,-3.3127,-3.2615,-3.184,-3.2363,-3.3301,-3.4375,-3.4726,-3.5383,-3.6787,-3.625,-3.6293,-3.7954,-3.7228,-3.7034,-3.8335,-3.7939,-3.795,-3.8909,-3.9203,-3.9244,-3.9075,-3.824,-3.7017,-3.5456,-3.3869,-3.2358,-3.0898,-3.0898,-3.0898,-3.0898,-3.0898,-3.0469,-2.9707,-2.9609,-2.916,-2.8437,-2.834,-2.8301,-2.8301,-2.8301,-2.8301,-2.8301,-2.8301,-2.8301,-2.8301,-2.8301,-2.8301,-2.8223,0.0,0.0,0.0,0.0,0.0,0.0,0.0,0.0,0.0,0.0,0.0,0.0,0.0,0.0,0.0,0.0,0.0,0.0,0.0,-4.1704,-4.1505,-4.1422,-4.2051,-4.2051,-4.1265,-4.1931,-4.2551,-4.323,-4.4526,-4.5514,-4.6262,-4.616,-4.5514,-4.4347,-4.4945,-4.4885,-4.4347,-4.4975,-4.5214,-4.5214,-4.5185,0.0,0.0,0.0,0.0,0.0,0.0,0.0,0.0,0.0,0.0,0.0,0.0,0.0,-3.4831,-3.5408,-3.5157,-3.5027,-3.6179,-3.6455,-3.6732,-3.7789,-3.7142,-3.6589,-3.778,-3.5635,-3.3593,-3.4169,-3.3214,-3.2252,-3.217,-3.2812,-3.3535,-3.4043,-3.4805,-3.5692,-3.6612,-3.6631,-3.6808,-3.7289,-3.6592,-3.6074,-3.6191,-3.5139,-3.506,-3.6603,-3.6006,-3.5978,-3.6892,-3.6466,-3.5356,-3.3367,-3.3212,-3.2358,-3.0898,-3.0898,-3.0898,-3.0898,-3.0898,-3.0625,-3.0137,-2.9746,-2.9316,-2.8848,-2.8457,-2.8301,-2.8301,-2.8301,-2.8301,-2.8301,-2.8301,-2.8301,-2.8301,-2.8301,-2.8301,-2.8223,0.0,0.0,0.0,0.0,0.0,0.0,0.0,0.0,0.0,0.0,0.0,0.0,0.0,0.0,0.0,0.0,0.0,0.0,0.0,-4.2399,-4.252,-4.146,-4.2402,-4.2851,-4.2611,-4.2851,-4.3509,-4.4556,-4.5903,-4.6471,-4.6279,-4.5873,-4.5185,-4.4347,-4.5005,-4.4915,-4.4377,-4.5484,-4.5693,-4.5304,-4.5304,-4.4915,0.0,0.0,0.0,0.0,0.0,0.0,0.0,0.0,-3.9747,-3.9191,-3.7099,-3.5604,-3.4826,-3.5332,-3.4856,-3.4374,-3.5127,-3.5604,-3.6031,-3.6784,-3.5328,-3.4137,-3.5839,-3.4624,-3.2981,-3.265,-3.2592,-3.2715,-3.3262,-3.3828,-3.4355,-3.4824,-3.5391,-3.5898,-3.623,-3.6504,-3.6621,-3.6523,-3.6211,-3.5918,-3.5664,-3.4687,-3.4201,-3.4538,-3.4634,-3.4741,-3.4833,-3.4474,-3.3869,-3.3134,-3.2207,-3.1441,-3.0898,-3.0898,-3.0898,-3.0898,-3.0898,-3.0508,-2.9805,-2.9648,-2.9199,-2.8516,-2.8359,-2.8301,-2.8301,-2.8301,-2.8301,-2.8301,-2.8301,-2.8301,-2.8301,-2.8301,-2.8301,-2.8223,0.0,0.0,0.0,0.0,0.0,0.0,0.0,0.0,0.0,0.0,0.0,0.0,0.0,0.0,0.0,0.0,0.0,0.0,-4.0606,-4.1806,-4.2103,-4.113,-4.2132,-4.2871,-4.329,-4.3569,-4.4197,-4.5304,-4.6651,-4.698,-4.6279,-4.5603,-4.5065,-4.4646,-4.4885,-4.4855,-4.4706,-4.5843,-4.6052,-4.5633,-4.5843,-4.5394,0.0,0.0,0.0,0.0,0.0,0.0,0.0,0.0,-3.9775,-3.9218,-3.6847,-3.5353,-3.4525,-3.4881,-3.4374,-3.3746,-3.4299,-3.4751,-3.5203,-3.5931,-3.417,-3.2721,-3.4476,-3.357,-3.2336,-3.2114,-3.248,-3.3008,-3.373,-3.3984,-3.4238,-3.4707,-3.5234,-3.5605,-3.5605,-3.5859,-3.5937,-3.5644,-3.5488,-3.5293,-3.5,-3.418,-3.3555,-3.3242,-3.3357,-3.3364,-3.3035,-3.2605,-3.2436,-3.2436,-3.1441,-3.0898,-3.0898,-3.0742,-3.0664,-3.0664,-3.0547,-3.0215,-2.9766,-2.9629,-2.918,-2.8476,-2.8359,-2.8301,-2.8301,-2.8301,-2.8301,-2.8301,-2.8301,-2.8301,-2.8301,-2.8301,-2.8301,-2.8262,0.0,0.0,0.0,0.0,0.0,0.0,0.0,0.0,0.0,0.0,0.0,0.0,0.0,0.0,0.0,0.0,0.0,0.0,-3.9747,-3.9538,-3.9709,-4.0367,-4.1025,-4.1983,-4.326,-4.3917,-4.4646,-4.5304,-4.6651,-4.695,-4.6249,-4.5603,-4.5274,-4.5244,-4.4586,-4.4676,-4.5334,-4.6022,-4.6279,-4.6309,-4.704,-4.6501,-4.5274,0.0,0.0,0.0,0.0,0.0,0.0,0.0,-3.9514,-3.8632,-3.6282,-3.4801,-3.3922,-3.3897,-3.352,-3.3194,-3.3746,-3.3897,-3.4148,-3.5207,-3.3812,-3.2581,-3.3977,-3.2538,-3.1367,-3.3066,-3.3086,-3.293,-3.334,-3.3086,-3.293,-3.3359,-3.4141,-3.4687,-3.4707,-3.4707,-3.4707,-3.4707,-3.4336,-3.4082,-3.4062,-3.3301,-3.2793,-3.2793,-3.1992,-3.1523,-3.1504,-3.1113,-3.0898,-3.0898,-3.0898,-3.0898,-3.0879,-3.043,-3.0195,-3.0176,-2.9766,-2.9785,-3.0176,-2.9746,-2.9336,-2.8887,-2.8476,-2.8301,-2.8301,-2.8301,-2.8301,-2.8301,-2.8301,-2.8301,-2.8301,-2.8301,-2.8301,-2.8301,0.0,0.0,0.0,0.0,0.0,0.0,0.0,0.0,0.0,0.0,0.0,0.0,0.0,0.0,0.0,0.0,0.0,0.0,-3.8997,-4.0242,-4.0634,-3.9709,-4.0786,-4.1811,-4.2641,-4.3748,-4.4885,-4.6022,-4.6411,-4.598,-4.4915,-4.4706,-4.4347,-4.3928,-4.4197,-4.4167,-4.3947,-4.5125,-4.5334,-4.5005,-4.6142,-4.5813,-4.4646,0.0,0.0,0.0,0.0,0.0,0.0,0.0,0.0,0.0,-3.7395,-3.5961,-3.4856,-3.4123,-3.3796,-3.3596,-3.3395,-3.3319,-3.3596,-3.47,-3.3268,-3.1945,-3.3465,-3.2309,-3.1367,-3.3066,-3.3086,-3.293,-3.334,-3.332,-3.3281,-3.3398,-3.3887,-3.4355,-3.4668,-3.4707,-3.4707,-3.4707,-3.4336,-3.3945,-3.3652,-3.3125,-3.2539,-3.1934,-3.166,-3.1387,-3.1094,-3.0957,-3.0898,-3.0898,-3.0898,-3.0742,-3.041,-3.0586,-3.0371,-2.9766,-2.9922,-2.9766,-2.9297,-2.918,-2.8887,-2.8476,-2.834,-2.8301,-2.8301,-2.8301,-2.8301,-2.8301,-2.8301,-2.8301,-2.8301,-2.8301,-2.8301,-2.8301,0.0,0.0,0.0,0.0,0.0,0.0,0.0,0.0,0.0,0.0,-4.4465,0.0,0.0,0.0,0.0,0.0,0.0,0.0,-3.9044,-3.9883,-4.0228,-3.9798,-4.0576,-4.1534,-4.2731,-4.3778,-4.4706,-4.5514,-4.5783,-4.5364,-4.4317,-4.4317,-4.4067,-4.3708,-4.4137,-4.4107,-4.3738,-4.4855,-4.4915,-4.4436,-4.5741,-4.5514,-4.4377,0.0,0.0,0.0,0.0,0.0,0.0,0.0,0.0,0.0,-3.7597,-3.6148,-3.4956,-3.3897,-3.3395,-3.3219,-3.3093,-3.3111,-3.3345,-3.4449,-3.3743,-3.2881,-3.3309,-3.2493,-3.1992,-3.3184,-3.3223,-3.3164,-3.3594,-3.3398,-3.3223,-3.3398,-3.3633,-3.3906,-3.416,-3.4199,-3.4199,-3.4199,-3.3965,-3.3652,-3.3203,-3.2793,-3.2266,-3.1562,-3.1367,-3.1152,-3.0898,-3.0898,-3.0898,-3.0898,-3.0898,-3.0664,-3.0195,-3.0312,-3.0019,-2.9316,-2.9394,-2.916,-2.8672,-2.8848,-2.8691,-2.8301,-2.8301,-2.8301,-2.8301,-2.8301,-2.8301,-2.8281,-2.8105,-2.8144,-2.8262,-2.791,-2.7891,-2.8008,0.0,0.0,0.0,0.0,0.0,0.0,0.0,0.0,0.0,0.0,-4.3355,0.0,0.0,0.0,0.0,0.0,0.0,0.0,0.0,-3.8875,-3.902,-4.0247,-4.0487,-4.1414,-4.317,-4.3898,-4.4227,-4.4227,-4.4885,-4.4855,-4.4227,-4.4227,-4.4257,-4.4317,-4.4257,-4.4257,-4.4347,-4.4885,-4.4766,-4.4347,-4.5592,-4.5323,-4.4287,-4.4945,0.0,0.0,0.0,0.0,0.0,0.0,0.0,0.0,-3.7343,-3.5815,-3.4575,-3.342,-3.2742,-3.2491,-3.3018,-3.3162,-3.3345,-3.45,-3.4798,-3.4555,-3.3377,-3.2891,-3.2793,-3.3164,-3.332,-3.3476,-3.3887,-3.3359,-3.2969,-3.3359,-3.3418,-3.3418,-3.3379,-3.3359,-3.3359,-3.3359,-3.332,-3.3164,-3.2773,-3.2363,-3.1934,-3.1504,-3.1113,-3.0898,-3.0898,-3.0898,-3.0898,-3.0898,-3.0898,-3.0644,-3.0137,-2.9805,-2.9375,-2.8848,-2.8516,-2.834,-2.8301,-2.8691,-2.8652,-2.8301,-2.8301,-2.8301,-2.8281,-2.8262,-2.8242,-2.8203,-2.7826,-2.7832,-2.8086,-2.7305,-2.7266,-2.7611,0.0,0.0,0.0,0.0,0.0,0.0,0.0,0.0,0.0,0.0,0.0,0.0,0.0,0.0,0.0,0.0,0.0,0.0,0.0,-3.9007,-3.932,-3.9619,-4.1115,-4.2171,-4.2551,-4.321,-4.3499,-4.3499,-4.4197,-4.4197,-4.3499,-4.3499,-4.3798,-4.4287,-4.3738,-4.3798,-4.4287,-4.3858,-4.3648,-4.3589,-4.4396,-4.4216,-4.3589,-4.4287,-4.3977,0.0,0.0,0.0,0.0,0.0,0.0,0.0,-3.8281,-3.6709,-3.5031,-3.352,-3.3294,-3.3571,-3.3696,-3.3395,-3.3445,-3.4931,-3.4625,-3.3763,-3.3218,-3.2426,-3.1816,-3.1914,-3.2461,-3.2969,-3.3047,-3.3184,-3.332,-3.3398,-3.3418,-3.3301,-3.2969,-3.293,-3.293,-3.293,-3.2637,-3.2402,-3.2305,-3.1914,-3.1484,-3.1055,-3.0937,-3.0898,-3.0898,-3.0898,-3.0898,-3.0898,-3.0898,-3.0508,-2.9707,-2.9941,-2.9512,-2.8437,-2.8672,-2.8613,-2.8301,-2.8379,-2.8379,-2.8301,-2.8301,-2.8301,-2.8262,-2.793,-2.7865,-2.7754,-2.7324,-2.7207,-2.7266,-2.709,-2.707,-2.7148,0.0,0.0,0.0,0.0,0.0,0.0,0.0,0.0,0.0,0.0,0.0,0.0,0.0,0.0,0.0,0.0,0.0,0.0,0.0,0.0,-3.9709,-4.0337,-4.1953,-4.2821,-4.2821,-4.311,-4.314,-4.288,-4.3539,-4.3618,-4.329,-4.329,-4.3469,-4.3798,-4.3768,-4.3658,-4.3389,-4.3688,-4.3449,-4.294,-4.3928,-4.3748,-4.297,-4.3958,-4.3718,-4.291,-4.32,0.0,0.0,0.0,0.0,0.0,0.0,0.0,-3.4525,-3.3395,-3.3294,-3.3495,-3.3495,-3.3671,-3.4248,-3.5906,-3.5138,-3.3959,-3.3758,-3.2457,-3.1211,-3.1211,-3.1894,-3.25,-3.25,-3.2832,-3.3125,-3.3125,-3.3281,-3.334,-3.3125,-3.3105,-3.3027,-3.2812,-3.2598,-3.2305,-3.1894,-3.166,-3.1348,-3.0918,-3.0898,-3.0801,-3.0566,-3.0566,-3.0469,-3.0273,-3.0254,-2.9941,-2.9258,-2.9473,-2.9043,-2.7988,-2.8418,-2.8496,-2.8281,-2.8086,-2.8105,-2.8262,-2.7851,-2.7793,-2.7969,-2.7539,-2.7344,-2.7305,-2.6875,-2.6836,-2.6973,-2.6512,-2.6543,-2.668,0.0,0.0,0.0,0.0,0.0,0.0,0.0,0.0,0.0,0.0,0.0,0.0,0.0,0.0,0.0,0.0,0.0,0.0,0.0,0.0,0.0,-4.1324,-4.2521,-4.311,-4.311,-4.311,-4.2851,-4.2231,-4.2731,-4.308,-4.329,-4.329,-4.3349,-4.3469,-4.3838,-4.3449,-4.262,-4.3449,-4.318,-4.2321,-4.3389,-4.315,-4.2351,-4.3389,-4.321,-4.244,-4.2851,-4.3021,-4.315,-4.2991,0.0,0.0,0.0,0.0,-3.4034,-3.333,-3.3111,-3.3093,-3.3194,-3.4022,-3.5228,-3.6684,-3.5839,-3.4575,-3.4339,-3.2756,-3.1189,-3.0839,-3.1465,-3.2051,-3.2051,-3.2402,-3.2695,-3.2695,-3.3047,-3.3262,-3.3105,-3.3164,-3.3047,-3.2617,-3.2519,-3.2226,-3.1582,-3.1445,-3.1269,-3.0918,-3.0898,-3.0684,-3.0215,-3.0195,-3.0,-2.9646,-2.9626,-2.9355,-2.8926,-2.8926,-2.8535,-2.7826,-2.8125,-2.8301,-2.8281,-2.7773,-2.7832,-2.8242,-2.7461,-2.7324,-2.7669,-2.7109,-2.6914,-2.6875,-2.6445,-2.6484,-2.6699,-2.5947,-2.5977,-2.623,0.0,0.0,0.0,0.0,0.0,0.0,0.0,0.0,0.0,0.0,-4.1841,0.0,0.0,0.0,0.0,0.0,0.0,0.0,0.0,0.0,0.0,-4.1392,-4.2141,-4.253,-4.253,-4.253,-4.2201,-4.1504,-4.1594,-4.2222,-4.329,-4.329,-4.3589,-4.4137,-4.309,-4.2851,-4.311,-4.2192,-4.1683,-4.1572,-4.1713,-4.1722,-4.1572,-4.1713,-4.2051,-4.2321,-4.1841,-4.2013,-4.244,-4.1833,-4.0695,0.0,0.0,0.0,-3.5018,-3.352,-3.3111,-3.3194,-3.3671,-3.46,-3.5558,-3.6332,-3.6037,-3.5282,-3.4163,-3.3332,-3.2349,-3.0638,-3.0996,-3.1601,-3.1601,-3.1953,-3.2246,-3.2246,-3.2598,-3.2617,-3.1875,-3.209,-3.2168,-3.1738,-3.1367,-3.125,-3.1504,-3.1191,-3.0957,-3.0898,-3.0898,-3.0684,-3.0215,-3.0195,-3.0,-2.9646,-2.9626,-2.9355,-2.8926,-2.8926,-2.8672,-2.8203,-2.8262,-2.8301,-2.8262,-2.7461,-2.7539,-2.8262,-2.7793,-2.7669,-2.765,-2.6797,-2.6465,-2.6426,-2.5996,-2.581,-2.5849,-2.5732,-2.5732,-2.5771,0.0,0.0,0.0,0.0,0.0,0.0,0.0,0.0,0.0,0.0,0.0,-4.094,0.0,0.0,0.0,0.0,0.0,0.0,0.0,0.0,0.0,-4.0816,-4.1841,-4.2231,-4.1871,-4.2201,-4.1901,-4.0816,-4.1205,-4.1863,-4.2791,-4.311,-4.3648,-4.4257,-4.3359,-4.2671,-4.2192,-4.1624,-4.1175,-4.0876,-4.1235,-4.1145,-4.0876,-4.1235,-4.1324,-4.1265,-4.1354,-4.1602,-4.1811,-4.1512,-4.04,-3.8943,-3.7597,0.0,0.0,0.0,-3.3294,-3.3721,-3.46,-3.5132,-3.5633,-3.6232,-3.6357,-3.578,-3.3779,-3.3041,-3.2162,-3.026,-3.0156,-3.0586,-3.1074,-3.1523,-3.1797,-3.1797,-3.2363,-3.2578,-3.1973,-3.2246,-3.2266,-3.1601,-3.1348,-3.123,-3.1172,-3.0996,-3.0898,-3.0898,-3.0644,-3.0312,-2.9863,-2.9609,-2.9297,-2.8867,-2.8848,-2.8652,-2.8223,-2.8223,-2.8008,-2.7578,-2.7344,-2.7344,-2.7559,-2.7187,-2.7363,-2.7891,-2.6973,-2.6719,-2.6894,-2.6269,-2.6016,-2.5996,-2.5771,-2.5693,-2.5693,-2.5693,-2.5693,-2.5693,0.0,0.0,0.0,0.0,0.0,0.0,0.0,0.0,0.0,0.0,0.0,0.0,0.0,0.0,0.0,0.0,0.0,0.0,0.0,0.0,0.0,-4.0367,-4.1175,-4.1474,-4.1145,-4.1662,-4.1332,-4.0157,-4.0816,-4.1471,-4.2149,-4.2801,-4.3378,-4.3835,-4.3496,-4.2821,-4.1833,-4.1354,-4.0935,-4.0666,-4.0816,-4.0576,-4.0187,-4.0487,-4.0546,-4.0427,-4.0576,-4.0846,-4.1115,-4.0935,-4.003,-3.8726,-3.7342,-3.6076,0.0,0.0,0.0,-3.3872,-3.4655,-3.5082,-3.5382,-3.583,-3.6407,-3.6204,-3.3861,-3.3285,-3.2596,-3.0394,-3.0028,-3.0194,-3.0487,-3.0898,-3.1211,-3.1348,-3.1992,-3.2324,-3.1894,-3.2207,-3.2187,-3.1445,-3.1367,-3.123,-3.0918,-3.0898,-3.0898,-3.0898,-3.0449,-3.0019,-2.959,-2.916,-2.873,-2.8301,-2.8184,-2.7988,-2.7728,-2.7559,-2.7344,-2.7012,-2.6699,-2.6719,-2.7012,-2.6914,-2.7031,-2.7285,-2.6328,-2.6094,-2.6348,-2.5869,-2.5693,-2.5693,-2.5693,-2.5693,-2.5693,-2.5693,-2.5693,-2.5693,0.0,0.0,0.0,0.0,0.0,0.0,0.0,0.0,0.0,0.0,0.0,0.0,-3.9463,-3.9379,-3.8805,-3.7524,-3.7973,0.0,0.0,0.0,0.0,-4.0307,-3.9858,0.0,-4.0427,-4.0487,-4.0157,-3.9433,-4.0127,-4.0811,-4.1475,-4.215,-4.249,-4.2611,-4.3082,-4.326,-4.308,-4.1235,-4.0786,-4.1235,-4.0008,-3.9463,-3.9409,-3.8781,-3.932,-4.0247,-3.899,-3.9349,-4.0337,-3.9738,-3.9463,-3.8973,-3.6894,-3.6172,-3.5734,0.0,0.0,0.0,-3.3194,-3.3972,-3.4731,-3.4801,-3.5984,-3.665,-3.4748,-3.5017,-3.4711,-3.1572,-3.1237,-3.1114,-2.9889,-2.998,-3.041,-3.0859,-3.1289,-3.1445,-3.1016,-3.1328,-3.1426,-3.0976,-3.0918,-3.0918,-3.0898,-3.0898,-3.0898,-3.0898,-3.0449,-3.0019,-2.959,-2.916,-2.873,-2.8301,-2.791,-2.7748,-2.7728,-2.7266,-2.7031,-2.7012,-2.6992,-2.6992,-2.7012,-2.6602,-2.6426,-2.6445,-2.6387,-2.6367,-2.6348,-2.5869,-2.5693,-2.5693,-2.5693,-2.5693,-2.5693,-2.5693,-2.5693,-2.5693,0.0,0.0,0.0,0.0,0.0,0.0,0.0,0.0,0.0,0.0,0.0,0.0,0.0,-3.926,-3.8392,-3.7494,-3.7255,0.0,0.0,0.0,0.0,-3.9709,-3.9948,-3.9948,-3.9768,-4.0187,-4.0068,-3.9373,-3.8929,-3.9286,-4.0366,-4.0265,-4.0485,-4.093,-4.1736,-4.167,-4.0872,-3.9402,-3.8688,-3.8631,-3.8455,-3.8397,-3.8405,-3.8858,-3.9349,-3.9709,-3.923,-3.9349,-3.9738,-3.9499,-3.9373,-3.9017,-3.6877,-3.6212,-3.5774,-3.37,-3.3111,-3.3187,-3.3495,-3.3897,-3.4349,-3.5031,-3.5956,-3.6297,-3.4726,-3.4909,-3.4738,-3.2354,-3.1077,-3.0402,-3.0471,-3.0322,-3.0254,-3.041,-3.1055,-3.1367,-3.0957,-3.125,-3.1367,-3.0937,-3.0898,-3.0898,-3.0898,-3.0898,-3.0898,-3.0898,-3.0215,-2.9726,-2.9626,-2.8906,-2.832,-2.791,-2.7806,-2.7454,-2.6855,-2.6406,-2.6142,-2.6142,-2.6142,-2.6142,-2.6142,-2.6035,-2.5977,-2.5977,-2.5977,-2.5977,-2.5957,-2.5752,-2.5693,-2.5693,-2.5693,-2.5693,-2.5693,-2.5693,-2.5693,-2.5693,0.0,0.0,0.0,0.0,0.0,0.0,0.0,0.0,-4.1474,-4.0816,0.0,0.0,0.0,0.0,-3.8482,-3.7793,-3.7165,-3.7255,-3.8332,-3.8182,-3.8571,-3.9709,-3.9738,-3.9738,-3.9738,-3.9948,-3.9593,-3.8582,-3.8132,-3.7939,-3.809,-3.8158,-3.8288,-3.8505,-3.9333,-3.984,-3.9952,-3.848,-3.781,-3.7717,-3.7405,-3.7252,-3.7396,-3.8472,-3.887,-3.8907,-3.9265,-3.9373,-3.9373,-3.9373,-3.9043,-3.8289,-3.6704,-3.5734,-3.487,-3.3513,-3.3111,-3.3169,-3.352,-3.3746,-3.4123,-3.5006,-3.5554,-3.5669,-3.4918,-3.5017,-3.475,-3.284,-3.1676,-3.0867,-3.0537,-3.0329,-3.0131,-3.0054,-3.0605,-3.0976,-3.0703,-3.1035,-3.1211,-3.0918,-3.0898,-3.0898,-3.0898,-3.0898,-3.0898,-3.0898,-3.0078,-2.9626,-2.9626,-2.875,-2.8027,-2.7461,-2.7441,-2.7031,-2.6172,-2.6035,-2.5879,-2.5693,-2.5693,-2.5693,-2.5693,-2.5693,-2.5693,-2.5693,-2.5693,-2.5693,-2.5693,-2.5693,-2.5693,-2.5693,-2.5693,-2.5693,-2.5693,-2.5693,-2.5693,-2.5693,0.0,0.0,0.0,0.0,0.0,0.0,0.0,0.0,-4.2171,-4.1512,0.0,0.0,0.0,0.0,0.0,-3.8512,-3.7853,-3.7734,-3.8422,-3.7823,-3.8332,-4.0277,0.0,0.0,-4.0337,-3.9702,-3.8611,-3.7032,-3.7601,-3.6788,-3.4718,-3.5828,-3.6015,-3.5429,-3.5971,-3.7836,-4.0449,-3.8668,-3.8282,-3.871,-3.6889,-3.6172,-3.629,-3.7357,-3.7738,-3.7881,-3.8943,-3.9301,-3.9301,-3.9301,-3.8282,-3.6859,-3.6331,-3.4747,-3.3086,-3.3111,-3.3111,-3.3086,0.0,0.0,0.0,-3.455,-3.47,-3.4806,-3.5357,-3.5483,-3.4984,-3.3145,-3.3125,-3.2642,-3.0069,-2.9868,-2.9949,-2.9652,-2.9959,-3.0176,-3.0195,-3.0586,-3.0879,-3.0898,-3.0898,-3.0898,-3.0898,-3.0898,-3.0898,-3.0898,-3.0078,-2.9626,-2.9626,-2.875,-2.7891,-2.7051,-2.7012,-2.6582,-2.5693,-2.6152,-2.6152,-2.5693,-2.5693,-2.5693,-2.5693,-2.5693,-2.5693,-2.5693,-2.5693,-2.5693,-2.5693,-2.5693,-2.5693,-2.5693,-2.5693,-2.5693,-2.5693,-2.5693,-2.5693,-2.5693,0.0,0.0,0.0,0.0,0.0,-4.312,-4.25,-4.241,-4.2171,0.0,0.0,0.0,-4.0457,-3.9798,-3.9529,-3.9828,-3.923,-3.914,-3.9798,-3.923,-3.911,-3.9679,-3.932,-3.932,-3.9679,-3.8708,-3.802,-3.7584,-3.5831,-3.4633,-3.4057,-3.3601,-3.331,-3.3169,-3.4103,-3.4827,-3.5262,-3.5504,-3.5732,-3.5849,-3.5304,-3.5342,-3.5746,-3.6377,-3.6643,-3.6682,-3.6954,-3.7098,-3.7098,-3.7098,-3.6764,-3.6264,-3.5386,-3.3892,-3.2541,-3.2943,-3.2792,-3.2541,-3.2968,0.0,0.0,0.0,0.0,0.0,-3.4781,-3.4906,-3.4765,-3.4272,-3.325,-3.2441,-3.2404,-3.0624,-2.936,-2.9981,-2.9899,-2.9844,-3.0156,-3.0312,-3.0508,-3.0859,-3.0898,-3.0898,-3.0898,-3.0898,-3.0898,-3.0898,-3.0078,-2.9626,-2.9626,-2.853,-2.7578,-2.7031,-2.6719,-2.6289,-2.5693,-2.581,-2.581,-2.5693,-2.5693,-2.5693,-2.5693,-2.5693,-2.5693,-2.5693,-2.5693,-2.5693,-2.5693,-2.5693,-2.5693,-2.5693,-2.5693,-2.5693,-2.5693,-2.5693,-2.5693,-2.5693,0.0,0.0,0.0,0.0,0.0,-4.3509,-4.2851,-4.3,-4.294,0.0,0.0,0.0,-4.0876,-4.0217,-3.9978,-4.0367,-3.9798,-3.9589,-3.9978,-3.9619,-3.9493,-3.9798,-3.9559,-3.9559,-3.9828,-3.8477,-3.7472,-3.6807,-3.479,-3.3447,-3.2794,-3.238,-3.2089,-3.1913,-3.2792,-3.2893,-3.2475,-3.328,-3.3794,-3.4016,-3.4024,-3.4218,-3.4588,-3.5558,-3.5791,-3.5669,-3.6356,-3.6432,-3.6212,-3.6212,-3.5934,-3.5319,-3.3811,-3.2986,-3.2591,-3.2692,-3.2641,-3.2641,-3.2993,-3.3111,-3.3219,-3.3771,0.0,0.0,-3.3972,-3.4048,-3.3897,-3.342,-3.2896,-3.2499,-3.2459,-3.1175,-3.0246,-3.073,-3.0579,-3.0289,-2.9993,-3.0078,-3.0371,-3.084,-3.0898,-3.0898,-3.0898,-3.0898,-3.0898,-3.0898,-3.0078,-2.9414,-2.9062,-2.7988,-2.7285,-2.7031,-2.6602,-2.6172,-2.5693,-2.5869,-2.5869,-2.5693,-2.5693,-2.5693,-2.5693,-2.5693,-2.5693,-2.5674,-2.5547,-2.5449,-2.5449,-2.5449,-2.5566,-2.5693,-2.5693,-2.5693,-2.5693,-2.5693,-2.5693,-2.5693,0.0,0.0,-4.3499,-4.4197,-4.4317,-4.4137,-4.3589,-4.3947,-4.4137,0.0,-4.291,-4.2291,-4.1654,-4.0995,-4.0636,-4.0726,-4.0068,-3.9649,-3.9649,-3.9463,-3.9679,-4.0277,-3.9599,-3.9496,-4.0129,-3.8359,-3.6729,-3.5322,-3.4206,-3.2872,-3.1486,-3.1913,-3.1838,-3.1336,-3.1863,-3.1788,-3.126,-3.1938,-3.2466,-3.2893,-3.3061,-3.3162,-3.3323,-3.4777,-3.5,-3.4729,-3.6225,-3.636,-3.5854,-3.5854,-3.5278,-3.4162,-3.2193,-3.219,-3.2817,-3.2416,-3.2591,-3.296,0.0,0.0,0.0,-3.3696,-3.3445,0.0,-3.3111,-3.3111,-3.2792,-3.1788,-3.2365,-3.2723,-3.156,-3.1677,-3.1926,-3.166,-3.1614,-3.1215,-3.0123,-3.0181,-3.0522,-3.0974,-3.0976,-3.0898,-3.0898,-3.0898,-3.0898,-3.0898,-3.0078,-2.9199,-2.834,-2.7519,-2.707,-2.7012,-2.6602,-2.6152,-2.5615,-2.6094,-2.6094,-2.5615,-2.5674,-2.5693,-2.5693,-2.5693,-2.5693,-2.5674,-2.5254,-2.5145,-2.5137,-2.5145,-2.5293,-2.5615,-2.5674,-2.5693,-2.5693,-2.5693,-2.5693,-2.5693,0.0,-4.3379,-4.3499,-4.4197,-4.4317,-4.4436,-4.4855,-4.4556,-4.4466,-4.4855,-4.3868,-4.309,-4.2931,-4.2372,-4.2192,-4.2662,-4.1683,-4.0995,-4.0995,-4.0008,-3.9433,-3.9619,-3.8642,-3.8165,-3.8281,-3.6362,-3.517,-3.486,-3.3266,-3.2348,-3.2039,-3.1712,-3.126,-3.0783,-3.1311,-3.1009,-3.0206,-3.1612,-3.2014,-3.1788,-3.2717,-3.3345,-3.374,-3.3647,-3.353,-3.3454,-3.3785,-3.3802,-3.37,-3.37,-3.3598,-3.3318,-3.2902,-3.2265,-3.1888,-3.2667,-3.234,-3.1913,-3.2842,-3.3111,-3.3136,-3.3219,-3.3169,0.0,-3.3111,-3.3111,-3.3061,-3.2792,-3.296,-3.3151,-3.3314,-3.2911,-3.2511,-3.2465,-3.2271,-3.219,-3.2306,-3.174,-3.1457,-3.1911,-3.1317,-3.0898,-3.0898,-3.0898,-3.0898,-3.0898,-3.0078,-2.9199,-2.834,-2.7812,-2.7383,-2.7031,-2.6602,-2.5996,-2.5215,-2.5644,-2.5644,-2.5195,-2.5566,-2.5693,-2.5693,-2.5693,-2.5693,-2.5674,-2.5254,-2.5273,-2.5586,-2.5215,-2.5165,-2.5234,-2.5557,-2.5693,-2.5693,-2.5693,-2.5693,-2.5693,-4.3708,-4.3529,-4.3618,-4.4616,-4.4796,-4.4915,-4.5244,-4.5304,-4.5066,-4.4418,-4.2992,-4.2129,-4.2415,-4.1366,-4.0781,-4.1097,-4.0222,-3.9531,-3.9254,-3.8611,-3.8122,-3.7814,-3.7291,-3.7021,-3.7021,-3.548,-3.4718,-3.4718,-3.3334,-3.2641,-3.2641,-3.2064,-3.1512,-3.1009,-3.1009,-3.0557,-2.988,-3.1235,-3.1637,-3.1486,-3.2616,-3.3244,-3.3445,-3.3194,-3.3111,-3.3111,-3.3111,-3.3111,-3.3111,-3.3111,-3.3111,-3.3061,-3.2742,-3.2466,-3.229,-3.2566,-3.2441,-3.234,-3.2918,-3.3111,-3.3111,-3.3111,-3.3111,0.0,0.0,-3.2641,-3.2491,-3.1964,-3.2265,-3.2641,-3.2641,-3.2772,-3.3085,-3.3622,-3.3574,-3.379,-3.4574,-3.3321,-3.2201,-3.191,-3.1538,-3.099,-3.0348,-3.0234,-3.0137,-2.9922,-2.9707,-2.9199,-2.834,-2.7695,-2.7246,-2.7031,-2.6406,-2.5859,-2.541,-2.5577,-2.5577,-2.541,-2.5577,-2.5693,-2.5693,-2.5693,-2.5693,-2.5674,-2.5254,-2.5195,-2.5391,-2.5156,-2.5106,-2.5165,-2.5566,-2.5693,-2.5693,-2.5693,-2.5693,-2.5693,-4.3664,-4.3337,-4.3256,-4.4275,-4.4529,-4.4647,-4.4794,-4.5178,-4.4776,-4.294,-4.1455,-4.0705,-4.1055,-3.962,-3.8642,-3.878,-3.7965,-3.7386,-3.7138,-3.6889,-3.6571,-3.6073,-3.5959,-3.5879,-3.5742,-3.4858,-3.4387,-3.4387,-3.3513,-3.3061,-3.2893,-3.2441,-3.1863,-3.1235,-3.0809,-3.0357,-3.0005,-3.0984,-3.1461,-3.1637,-3.2667,-3.3111,-3.3111,-3.3111,-3.3111,-3.3111,-3.3111,-3.3111,-3.3111,-3.3111,-3.3111,-3.2993,-3.2516,-3.2616,-3.2842,-3.2491,-3.2641,-3.2943,-3.3086,-3.3111,-3.3111,-3.3111,-3.3111,-3.2943,0.0,0.0,0.0,-3.126,-3.1788,-3.224,-3.1788,-3.2541,-3.3495,-3.4274,-3.4675,-3.5152,-3.5931,-3.4698,-3.3344,-3.2523,-3.1942,-3.1189,-3.0227,-2.9833,-2.9394,-2.8945,-2.9238,-2.9101,-2.834,-2.7559,-2.7109,-2.7012,-2.622,-2.5732,-2.5605,-2.5635,-2.5635,-2.5605,-2.5654,-2.5693,-2.5693,-2.5693,-2.5693,-2.5674,-2.5254,-2.5106,-2.5106,-2.5106,-2.5106,-2.5165,-2.5566,-2.5693,-2.5693,-2.5693,-2.5693,-2.5693,-4.191,-4.1852,-4.1692,-4.1359,-4.177,-4.2328,-4.2932,-4.2552,-4.1764,-4.0463,-4.0198,-3.9892,-3.9367,-3.8241,-3.7769,-3.8242,-3.6785,-3.623,-3.7136,-3.6196,-3.556,-3.5477,-3.509,-3.4617,-3.41,-3.3569,-3.3283,-3.3283,-3.3154,-3.2817,-3.2315,-3.224,-3.1662,-3.0708,-3.0633,-3.0583,-3.0557,-3.1135,-3.1662,-3.2164,-3.2817,-3.3111,-3.3111,-3.3111,-3.3111,-3.3111,-3.3111,-3.3111,-3.3111,-3.3111,-3.3111,-3.3111,-3.2993,-3.2667,-3.239,-3.2842,-3.2667,-3.2416,-3.2943,-3.3111,-3.3111,-3.3111,-3.3111,-3.3068,-3.2993,0.0,-3.2943,-3.2817,0.0,-3.3011,-3.2893,0.0,0.0,-3.3319,-3.45,-3.5282,-3.4951,-3.5547,-3.5819,-3.538,-3.3121,-3.1751,-3.2038,-3.0605,-2.9394,-2.8945,-2.8965,-2.8789,-2.832,-2.7851,-2.7422,-2.7031,-2.6562,-2.5937,-2.5204,-2.5527,-2.5527,-2.5184,-2.5547,-2.5693,-2.5693,-2.5693,-2.5693,-2.5674,-2.5254,-2.5106,-2.5106,-2.5106,-2.5106,-2.5165,-2.5566,-2.5693,-2.5693,-2.5693,-2.5693,-2.5693,-4.0618,-4.0618,-4.0658,-4.0791,-4.1007,-4.1394,-4.2094,-4.1295,-4.0602,-4.0449,-3.9248,-3.8398,-3.846,-3.7493,-3.6778,-3.6655,-3.566,-3.5136,-3.5267,-3.4779,-3.4518,-3.4518,-3.4357,-3.4127,-3.387,-3.3022,-3.2566,-3.2566,-3.2566,-3.229,-3.1738,-3.1738,-3.1486,-3.106,-3.0758,-3.0783,-3.111,-3.1637,-3.1989,-3.2265,-3.2842,-3.3111,-3.3111,-3.3111,-3.3111,-3.3111,-3.3111,-3.3111,-3.3111,-3.3111,-3.3111,-3.3111,-3.3111,-3.2918,-3.2767,-3.3061,-3.2893,-3.2767,-3.3061,-3.3111,-3.3111,-3.3111,-3.3111,-3.3111,-3.3111,-3.3111,-3.2993,-3.2641,0.0,0.0,0.0,0.0,0.0,0.0,-3.4399,-3.5056,-3.5132,-3.5881,-3.6031,-3.5079,-3.395,-3.2686,-3.1327,-2.9997,-2.9023,-2.8594,-2.8789,-2.873,-2.832,-2.7891,-2.7461,-2.7031,-2.6602,-2.6094,-2.5469,-2.5644,-2.5644,-2.5449,-2.5391,-2.5352,-2.5332,-2.5078,-2.5117,-2.5332,-2.4883,-2.4824,-2.5106,-2.4805,-2.4687,-2.4727,-2.5176,-2.5508,-2.5693,-2.5693,-2.5693,-2.5693,-3.9006,0.0,-3.9452,-3.9591,-3.9717,-3.9959,-4.0483,-3.9726,-3.926,-3.9572,-3.794,-3.689,-3.7358,-3.6259,-3.5353,-3.5082,-3.4299,-3.3696,-3.3445,-3.3445,-3.3319,-3.3018,-3.3571,-3.3671,-3.3219,-3.2867,-3.2591,-3.2441,-3.2441,-3.2164,-3.1612,-3.1461,-3.1386,-3.1361,-3.0859,-3.0984,-3.1637,-3.2039,-3.2315,-3.2491,-3.2893,-3.3111,-3.3111,-3.3111,-3.3111,-3.3111,-3.3111,-3.3111,-3.3111,-3.3111,-3.3111,-3.3111,-3.3111,-3.3111,-3.3111,-3.3111,-3.3111,-3.3111,-3.3111,-3.3111,-3.3111,-3.3111,-3.3111,-3.3111,-3.3111,-3.3111,-3.3011,-3.2541,-3.2792,0.0,0.0,0.0,-3.3219,-3.3621,0.0,-3.4831,-3.5232,-3.578,-3.5901,-3.526,-3.4845,-3.3615,-3.1081,-2.9905,-2.9186,-2.8867,-2.8672,-2.8496,-2.8301,-2.7891,-2.7461,-2.7031,-2.6719,-2.6289,-2.5693,-2.5557,-2.5547,-2.5547,-2.5098,-2.4883,-2.4883,-2.4687,-2.4707,-2.4883,-2.4687,-2.4648,-2.4754,-2.4629,-2.4453,-2.4297,-2.4844,-2.5273,-2.5566,-2.5635,-2.5693,-2.5693,-3.6709,-3.7402,-3.7815,-3.6734,-3.6953,-3.7331,-3.7331,-3.7308,-3.7107,-3.66,-3.5977,-3.5533,-3.5579,-3.4148,-3.3395,-3.3897,-3.2441,-3.1712,-3.224,-3.2265,-3.1813,-3.0758,-3.2767,-3.3144,-3.1512,-3.3018,-3.3596,-3.3043,-3.3043,-3.2742,-3.2164,-3.1637,-3.1386,-3.1361,-3.0859,-3.121,-3.219,-3.2215,-3.2541,-3.3043,-3.3111,-3.3111,-3.3111,-3.3111,-3.3111,-3.3111,-3.3111,-3.3111,-3.3111,-3.3111,-3.3111,-3.3111,-3.3111,-3.3111,-3.3111,-3.3111,-3.3111,-3.3111,-3.3111,-3.3111,-3.3111,-3.3111,-3.3111,-3.3111,-3.3111,-3.3111,-3.3111,-3.3086,-3.3111,-3.3111,-3.3043,-3.3111,-3.3136,-3.3093,-3.4022,0.0,0.0,-3.5182,-3.5909,-3.6987,-3.5965,-3.4387,-3.2426,-3.103,-3.0224,-3.0224,-2.8677,-2.7871,-2.8262,-2.7891,-2.7461,-2.7031,-2.7012,-2.6582,-2.5693,-2.5312,-2.5145,-2.5125,-2.4648,-2.4434,-2.4453,-2.4863,-2.4824,-2.4453,-2.4863,-2.4636,-2.3887,-2.4754,-2.4597,-2.3887,-2.4773,-2.5125,-2.5184,-2.5586,-2.5693,-2.5693,-3.7535,0.0,-3.7282,-3.6502,-3.6556,-3.6681,-3.6681,-3.6681,-3.6631,-3.643,-3.6207,-3.6081,-3.6081,-3.5625,-3.5027,-3.45,-3.3596,-3.2968,-3.2792,-3.3119,-3.3169,-3.2817,-3.4154,-3.4505,-3.3621,-3.3445,-3.3269,-3.3111,-3.2692,-3.2215,-3.1662,-3.1486,-3.1386,-3.1361,-3.0859,-3.121,-3.2215,-3.2215,-3.2541,-3.3111,-3.3111,-3.3111,-3.3111,-3.3111,-3.3111,-3.3111,-3.3111,-3.3111,-3.3111,-3.3111,-3.3111,-3.3111,-3.3111,-3.3111,-3.3111,-3.3111,-3.3111,-3.3111,-3.3111,-3.3111,-3.3111,-3.3111,-3.3111,-3.3111,-3.3111,-3.3111,-3.3111,-3.3111,-3.3111,-3.3111,-3.3111,-3.3111,-3.3111,-3.3111,-3.3997,-3.46,0.0,-3.4605,-3.5082,-3.5504,-3.4676,-3.3835,-3.3161,-3.0877,-2.9581,-2.9896,-2.8005,-2.7012,-2.7422,-2.7578,-2.7344,-2.6621,-2.6875,-2.6602,-2.5693,-2.5293,-2.5106,-2.5106,-2.4336,-2.4004,-2.4004,-2.3848,-2.3867,-2.3984,-2.3848,-2.3789,-2.3789,-2.3789,-2.3613,-2.3393,-2.4297,-2.4629,-2.4687,-2.5137,-2.5488,-2.5693,-3.7713,-3.7262,-3.6883,-3.6732,-3.6531,-3.6405,-3.6405,-3.6581,-3.6631,-3.643,-3.6581,-3.6631,-3.643,-3.6182,-3.5705,-3.4801,-3.4223,-3.3671,-3.3162,-3.3395,-3.352,-3.3319,-3.4374,-3.4555,-3.3847,-3.3721,-3.347,-3.3111,-3.2893,-3.2541,-3.1989,-3.1587,-3.1486,-3.1662,-3.0934,-3.121,-3.2215,-3.2215,-3.2541,-3.3111,-3.3111,-3.3111,-3.3111,-3.3111,-3.3111,-3.3111,-3.3111,-3.3111,-3.3111,-3.3111,-3.3111,-3.3111,-3.3111,-3.3111,-3.3111,-3.3111,-3.3111,-3.3111,-3.3111,-3.3111,-3.3111,-3.3111,-3.3111,-3.3111,-3.3111,-3.3111,-3.3111,-3.3111,-3.3111,-3.3018,-3.2817,-3.2943,-3.3061,-3.2792,-3.3696,-3.4299,0.0,-3.4198,-3.4349,-3.4148,-3.4023,-3.3928,-3.3928,-3.1727,-3.0215,-2.9925,-2.8136,-2.6983,-2.6777,-2.7207,-2.7109,-2.6406,-2.6797,-2.6602,-2.5693,-2.5137,-2.4844,-2.4824,-2.3965,-2.3555,-2.3555,-2.3437,-2.3437,-2.3555,-2.3418,-2.3437,-2.3555,-2.3418,-2.3237,-2.3159,-2.3926,-2.4277,-2.4492,-2.5078,-2.5488,-2.5693,-3.7312,-3.6908,-3.6681,-3.7136,-3.6782,-3.6405,-3.6455,-3.6883,-3.6985,-3.648,-3.6883,-3.7033,-3.6455,-3.5906,-3.5307,-3.4731,-3.4274,-3.3721,-3.3162,-3.3162,-3.2893,-3.229,-3.3345,-3.342,-3.2315,-3.3897,-3.4198,-3.3169,-3.3646,-3.3621,-3.3093,-3.1964,-3.1712,-3.2164,-3.111,-3.1235,-3.2215,-3.2215,-3.2541,-3.3068,-3.3025,-3.3025,-3.2982,-3.2939,-3.2939,-3.2939,-3.3068,-3.3111,-3.3111,-3.3111,-3.3111,-3.3111,-3.3111,-3.3111,-3.3111,-3.3111,-3.3111,-3.3111,-3.3111,-3.3111,-3.3111,-3.3111,-3.3111,-3.3111,-3.3111,-3.3111,-3.3111,-3.3111,-3.3111,-3.2918,-3.2365,-3.2692,-3.2893,-3.234,-3.3169,-3.3872,-3.3897,-3.3872,-3.3671,-3.3144,-3.3972,-3.4625,-3.4675,-3.3438,-3.1926,-3.0321,-2.8977,-2.7695,-2.6447,-2.6828,-2.6867,-2.6367,-2.6758,-2.6582,-2.5693,-2.4883,-2.4434,-2.4414,-2.353,-2.312,-2.3101,-2.3574,-2.3535,-2.312,-2.3574,-2.3516,-2.312,-2.3594,-2.3516,-2.314,-2.3613,-2.4062,-2.4551,-2.5362,-2.5693,-2.5693,-3.9044,-3.8617,-3.814,-3.7839,-3.701,-3.6556,-3.691,-3.7086,-3.6985,-3.648,-3.6883,-3.7033,-3.6455,-3.6279,-3.5755,-3.4801,-3.4931,-3.455,-3.3212,-3.3847,-3.3872,-3.2893,-3.3922,-3.4173,-3.347,-3.4299,-3.4575,-3.4299,-3.4022,-3.3822,-3.3671,-3.2541,-3.2089,-3.219,-3.1512,-3.1562,-3.2215,-3.2215,-3.2541,-3.3025,-3.2064,-3.1689,-3.1601,-3.0687,-3.0373,-3.0598,-3.2438,-3.3111,-3.3111,-3.3111,-3.3111,-3.3111,-3.3111,-3.3111,-3.3111,-3.3111,-3.3111,-3.3111,-3.3111,-3.3111,-3.3111,-3.3111,-3.3111,-3.3111,-3.3111,-3.3111,-3.3111,-3.3111,-3.3111,-3.3043,-3.2893,-3.3011,-3.3061,-3.2867,-3.3093,-3.342,-3.3847,-3.3545,-3.3244,-3.3136,-3.2943,-3.3194,-3.4022,-3.2313,-3.0871,-3.0231,-2.9233,-2.7857,-2.5977,-2.756,-2.767,-2.5918,-2.6328,-2.6289,-2.5693,-2.5176,-2.4746,-2.4414,-2.3867,-2.3457,-2.3101,-2.3218,-2.3198,-2.3101,-2.3218,-2.3198,-2.3101,-2.3218,-2.3198,-2.314,-2.3613,-2.4238,-2.4961,-2.5527,-2.5693,-2.5693,-3.932,-3.8868,-3.8467,-3.8391,-3.7663,-3.7186,-3.7487,-3.7337,-3.7061,-3.6807,-3.6985,-3.7033,-3.6455,-3.6405,-3.6031,-3.5107,-3.5332,-3.5006,-3.3872,-3.4148,-3.4098,-3.347,-3.3796,-3.3847,-3.3545,-3.4073,-3.4349,-3.4349,-3.4048,-3.3897,-3.3872,-3.2742,-3.2215,-3.219,-3.1637,-3.1398,-3.1388,-3.1091,-3.1181,-3.1424,-3.0687,-3.0395,0.0,-2.967,-2.9396,-2.9579,-3.0956,-3.1821,-3.2283,-3.2283,-3.2655,-3.3111,-3.3111,-3.3111,-3.3111,-3.3111,-3.3111,-3.3111,-3.3111,-3.3111,-3.3111,-3.3111,-3.3111,-3.3111,-3.3111,-3.3111,-3.3111,-3.3111,-3.2867,-3.2616,-3.239,-3.2541,-3.2792,-3.3086,-3.3111,-3.3237,-3.3495,-3.3269,-3.3111,-3.3111,-3.2792,-3.2943,-3.3822,-3.2129,-3.062,-2.9917,-2.9306,-2.7942,-2.5574,-2.7151,-2.7301,-2.5469,-2.623,-2.6367,-2.5693,-2.5488,-2.5039,-2.4414,-2.3984,-2.3555,-2.3101,-2.3101,-2.3101,-2.3101,-2.3101,-2.3101,-2.3101,-2.3101,-2.3101,-2.314,-2.3613,-2.4082,-2.4636,-2.5215,-2.5566,-2.5693,-3.8969,-3.8567,-3.8391,-3.8894,-3.8492,-3.814,-3.8216,-3.7764,-3.7387,-3.7312,-3.7287,-3.7086,-3.6581,-3.6455,-3.6132,-3.5533,-3.5558,-3.5332,-3.4731,-3.4349,-3.4048,-3.3897,-3.3445,-3.3144,-3.3111,-3.3621,-3.3922,-3.3997,-3.3922,-3.3947,-3.3972,-3.2867,-3.2231,-3.2037,-3.1606,-3.0912,-3.0158,-2.9579,-2.9306,-2.9306,-2.9212,-2.9189,-2.9143,-2.9004,-2.8912,-2.8912,-2.8912,-2.9806,-3.0956,-3.0956,-3.1821,-3.2828,-3.2753,-3.2857,-3.2943,-3.291,-3.291,-3.291,-3.291,-3.291,-3.2867,-3.2943,-3.2968,-3.2993,-3.3068,-3.3061,-3.2968,-3.2968,-3.2516,-3.1964,-3.1486,-3.1788,-3.229,-3.2867,-3.2968,-3.2943,-3.291,-3.296,-3.2968,-3.2968,-3.2893,0.0,-3.3746,-3.2466,-3.1047,-2.9714,-2.9643,-2.8337,-2.5318,-2.6477,-2.6606,-2.5165,-2.623,-2.6523,-2.5791,-2.5654,-2.5254,-2.4492,-2.4023,-2.3555,-2.3101,-2.3101,-2.3101,-2.3101,-2.3101,-2.3101,-2.3101,-2.3101,-2.3101,-2.314,-2.3613,-2.3789,-2.3887,-2.4687,-2.5273,-2.5615,-3.9546,-3.9471,-3.9446,-3.9521,-3.9094,-3.8868,-3.932,-3.8919,-3.8391,-3.7939,-3.7864,-3.7663,-3.7111,-3.6681,-3.6132,-3.5533,-3.5956,-3.5805,-3.4801,-3.5006,-3.4806,-3.3947,-3.3796,-3.3545,-3.3136,-3.3621,-3.4123,-3.4575,-3.4123,-3.4123,-3.455,-3.3445,-3.2377,-3.1344,-3.1292,-3.044,-2.9058,-2.8947,-2.8903,-2.8858,-2.8157,-2.7908,-2.7814,-2.6744,-2.6332,-2.6332,-2.6332,-2.7793,-2.9715,-2.9715,-3.0553,-3.146,-3.1028,-3.1553,-3.2265,-3.1813,-3.1687,-3.1687,-3.1687,-3.1687,-3.1788,-3.2265,-3.2365,-3.2491,-3.3011,-3.2692,-3.2365,-3.2365,-3.1913,-3.1512,-3.1411,-3.1461,-3.1712,-3.2265,-3.2365,-3.2215,-3.1738,-3.2089,-3.2365,-3.2365,-3.1964,-3.2089,-3.3119,-3.2943,-3.2191,-3.0751,-3.1528,-3.0178,-2.5838,-2.7557,-2.7554,-2.5165,-2.5644,-2.6055,-2.6269,-2.5547,-2.5145,-2.4988,-2.416,-2.3555,-2.3101,-2.3101,-2.3101,-2.3101,-2.3101,-2.3101,-2.3101,-2.3101,-2.3101,-2.314,-2.3613,-2.3789,-2.3848,-2.4336,-2.4805,-2.5234,-3.9697,-3.9697,-3.9465,-3.8687,-3.8362,-3.8289,-3.8533,-3.8362,-3.8226,-3.8417,-3.7939,-3.7487,-3.7211,-3.6732,-3.6304,-3.5981,-3.6207,-3.6006,-3.5157,-3.5357,-3.5132,-3.4349,-3.4048,-3.3771,-3.352,-3.3495,-3.3872,-3.468,-3.3872,-3.3897,-3.4655,-3.2931,-3.1676,-3.0818,-2.9325,-2.8321,-2.7778,-2.7162,-2.6987,-2.7191,-2.6758,-2.662,-2.6572,-2.5917,-2.5693,-2.5654,-2.5469,-2.6161,-2.7247,-2.7896,-2.8768,-2.954,-2.9286,-2.9605,-3.0029,-2.9791,-2.9695,-2.9846,-3.0413,-3.058,-3.0778,-3.1589,-3.1788,-3.1863,-3.2139,-3.1989,-3.1788,-3.1788,-3.1361,-3.0984,-3.0984,-3.121,-3.1486,-3.1738,-3.2014,-3.2014,-3.1461,-3.1612,-3.1788,-3.1788,-3.1562,-3.1838,-3.3011,-3.3111,-3.2284,-3.0278,-3.0195,-2.8731,-2.5192,-2.6692,-2.6741,-2.4812,-2.5391,-2.5723,-2.5703,-2.5508,-2.5078,-2.4394,-2.3984,-2.3555,-2.3101,-2.3101,-2.3101,-2.3101,-2.3101,-2.3101,-2.3101,-2.3101,-2.3101,-2.312,-2.3379,-2.3457,-2.3535,-2.418,-2.4551,-2.4785,-3.8868,-3.9025,-3.8739,-3.7317,-3.7026,-3.7026,-3.7026,-3.7026,-3.744,-3.8432,-3.7891,-3.729,-3.7096,-3.6666,-3.6455,-3.6581,-3.648,-3.6182,-3.5708,-3.5683,-3.5433,-3.4881,-3.4374,-3.4022,-3.3897,-3.3345,-3.3495,-3.4374,-3.3252,-3.3146,-3.3921,-3.1807,-3.0451,-2.9674,-2.7142,-2.6169,-2.63,-2.5491,-2.5273,-2.5605,-2.5654,-2.5693,-2.5693,-2.5693,-2.5635,-2.5547,-2.5195,-2.4988,-2.4972,-2.5926,-2.6899,-2.7699,-2.7567,-2.7696,-2.789,-2.78,-2.7755,-2.7969,-2.8841,-2.9093,-2.9368,-3.0589,-3.086,-3.095,-3.132,-3.1311,-3.1235,-3.1235,-3.0809,-3.0482,-3.0583,-3.0859,-3.111,-3.1361,-3.1662,-3.1712,-3.1286,-3.1311,-3.1361,-3.1235,-3.1311,-3.1738,-3.2641,-3.2364,-3.1297,-2.924,-2.8726,-2.7345,-2.4793,-2.5684,-2.5684,-2.4453,-2.5176,-2.5469,-2.5215,-2.5293,-2.4863,-2.3926,-2.375,-2.3477,-2.3101,-2.3101,-2.3101,-2.3101,-2.3101,-2.3101,-2.3101,-2.3101,-2.3101,-2.3101,-2.3101,-2.3159,-2.3315,-2.4043,-2.4394,-2.4609,-3.6217,-3.6757,-3.7263,-3.5781,-3.5508,-3.5508,-3.5508,-3.5508,-3.6031,-3.7459,-3.781,-3.7643,-3.6812,-3.653,-3.6606,-3.7061,-3.6707,-3.638,-3.6329,-3.6329,-3.6031,-3.5433,-3.4881,-3.4399,-3.3897,-3.3345,-3.3162,-3.3244,-3.2001,-3.1403,-3.1499,-3.017,-2.8739,-2.7207,-2.5845,-2.4992,-2.4631,-2.4996,-2.5145,-2.5176,-2.5518,-2.5693,-2.5693,-2.5693,-2.5488,-2.5165,-2.5125,-2.457,-2.3951,-2.4042,-2.5141,-2.6356,-2.5821,-2.6476,-2.7285,-2.6794,-2.6659,-2.6659,-2.6783,-2.6824,-2.7163,-2.8739,-2.9104,-2.9535,-3.1057,-3.1035,-3.0683,-3.0683,-3.0256,-3.003,-3.0532,-3.0256,-3.0256,-3.1235,-3.1035,-3.0758,-3.0683,-3.1085,-3.121,-3.0733,-3.111,-3.1436,-3.1537,-3.0032,-2.8722,-2.8096,-2.9259,-2.8714,-2.5741,-2.5693,-2.5371,-2.4453,-2.4883,-2.5312,-2.5615,-2.4551,-2.4102,-2.4355,-2.353,-2.314,-2.3101,-2.3101,-2.3101,-2.3101,-2.3101,-2.3101,-2.3101,-2.3101,-2.3101,-2.3101,-2.3101,-2.3379,-2.373,-2.3828,-2.4336,-2.5067,-3.5508,-3.5781,-3.5727,-3.4236,-3.3957,-3.3957,-3.3957,-3.3957,-3.4181,-3.477,-3.5413,-3.5701,-3.5359,-3.4737,-3.4437,-3.4648,-3.4252,-3.3946,-3.3946,-3.3946,-3.3852,-3.3592,-3.3051,-3.2582,-3.2112,-3.1549,-3.1268,-3.1382,-3.0512,-3.0285,-3.056,-2.8736,-2.6999,-2.539,-2.4625,-2.4492,-2.4824,-2.5047,-2.5215,-2.5488,-2.5615,-2.5693,-2.5654,-2.543,-2.5215,-2.5047,-2.4492,-2.4082,-2.375,-2.3496,-2.385,-2.4347,-2.4078,-2.4367,-2.4759,-2.4529,-2.4467,-2.4595,-2.5294,-2.5462,-2.5799,-2.7122,-2.7456,-2.7813,-2.9125,-2.9269,-2.9307,-2.9988,-2.9955,-2.9854,-3.008,-3.0206,-3.0331,-3.0407,-3.0532,-3.0507,-3.0181,-3.0306,-3.0094,-2.9212,-2.9293,-2.9294,-2.8946,-2.8502,-2.8033,-2.7772,-2.8061,-2.7301,-2.5047,-2.5401,-2.5449,-2.4824,-2.4473,-2.4512,-2.4941,-2.418,-2.375,-2.3608,-2.3257,-2.3101,-2.3101,-2.3101,-2.3101,-2.3101,-2.3101,-2.3101,-2.3101,-2.3101,-2.3257,-2.3535,-2.3535,-2.3789,-2.4199,-2.4453,-2.4812,-2.5145,-3.4202,-3.437,-3.4181,-3.2701,-3.2473,-3.2473,-3.2473,-3.2473,-3.2473,-3.2473,-3.3008,-3.3571,-3.3989,-3.3426,-3.3034,-3.3242,-3.2661,-3.228,-3.228,-3.228,-3.228,-3.228,-3.1761,-3.1319,-3.0897,-3.0287,-2.9885,-2.9709,-2.9139,-2.8954,-2.9129,-2.7373,-2.5845,-2.4609,-2.4434,-2.4629,-2.5125,-2.5215,-2.5449,-2.5693,-2.5693,-2.5693,-2.5635,-2.5234,-2.498,-2.4785,-2.4043,-2.3711,-2.3555,-2.3198,-2.3101,-2.3101,-2.3101,-2.3101,-2.3101,-2.3101,-2.3101,-2.3256,-2.4082,-2.4296,-2.4595,-2.5714,-2.6005,-2.6295,-2.736,-2.7643,-2.7867,-2.8673,-2.8831,-2.8831,-2.8831,-2.9147,-2.9438,-2.952,-2.9469,-2.9438,-2.952,-2.9273,-2.8723,-2.7747,-2.7783,-2.7661,-2.7102,-2.7124,-2.7083,-2.6974,-2.6669,-2.5898,-2.4668,-2.5078,-2.5137,-2.4707,-2.4102,-2.3926,-2.4238,-2.3809,-2.3437,-2.3101,-2.3101,-2.3101,-2.3101,-2.3101,-2.3101,-2.3101,-2.3101,-2.3101,-2.3101,-2.3101,-2.3398,-2.3789,-2.3789,-2.4121,-2.4648,-2.5008,-2.5156,-2.5312,-3.1556,-3.215,-3.2644,-3.117,-3.0957,-3.0957,-3.0957,-3.0957,-3.0957,-3.0957,-3.0937,-3.1478,-3.2964,-3.3061,-3.322,-3.3765,-3.2913,-3.228,-3.228,-3.228,-3.228,-3.228,-3.1761,-3.1319,-3.0897,-3.0287,-2.955,-2.8589,-2.7954,-2.7301,-2.6722,-2.6036,-2.5488,-2.5125,-2.5527,-2.5469,-2.5145,-2.5547,-2.5693,-2.5693,-2.5693,-2.5693,-2.5635,-2.5234,-2.4805,-2.4375,-2.3945,-2.3516,-2.3101,-2.3101,-2.3101,-2.3101,-2.3101,-2.3101,-2.3101,-2.3101,-2.3101,-2.3101,-2.3144,-2.3144,-2.3387,-2.4553,-2.483,-2.5126,-2.6254,-2.6524,-2.6524,-2.6565,-2.6565,-2.6565,-2.6565,-2.6565,-2.7053,-2.8651,-2.7584,-2.7094,-2.8715,-2.7999,-2.7147,-2.6569,-2.6993,-2.7105,-2.6569,-2.5872,-2.5434,-2.5434,-2.5237,-2.5125,-2.5106,-2.4668,-2.4238,-2.3828,-2.3789,-2.3789,-2.3789,-2.3315,-2.3101,-2.3101,-2.3101,-2.3101,-2.3101,-2.3101,-2.3101,-2.3101,-2.3101,-2.3101,-2.3101,-2.3101,-2.3398,-2.3789,-2.3789,-2.4316,-2.5106,-2.5106,-2.5352,-2.5674,-3.1054,-3.1286,-3.1441,-3.0995,-3.0898,-3.0898,-3.0898,-3.0898,-3.0898,-3.0898,-3.0898,-3.1054,-3.1556,-3.1045,-3.0751,-3.0949,-3.0077,-2.9565,-2.9565,-2.9565,-2.9565,-2.9565,-2.9422,-2.9136,-2.8758,-2.8236,-2.7676,-2.7084,-2.6557,-2.6064,-2.5605,-2.5405,-2.5215,-2.5125,-2.5215,-2.5371,-2.5527,-2.5635,-2.5693,-2.5693,-2.5693,-2.5693,-2.5615,-2.4902,-2.4531,-2.4316,-2.3569,-2.3218,-2.3101,-2.3101,-2.3101,-2.3101,-2.3101,-2.3101,-2.3101,-2.3101,-2.3101,-2.3101,-2.3101,-2.3101,-2.3188,-2.3541,-2.3627,-2.393,-2.5083,-2.5922,-2.6524,-2.6524,-2.6524,-2.6524,-2.6524,-2.6524,-2.6652,-2.7181,-2.682,-2.6693,-2.7181,-2.6956,-2.639,-2.5442,-2.5507,-2.5211,-2.4274,-2.4267,-2.4426,-2.4726,-2.4979,-2.4941,-2.4648,-2.4492,-2.4355,-2.4219,-2.3652,-2.3496,-2.3789,-2.3315,-2.3101,-2.3101,-2.3101,-2.3101,-2.3101,-2.3101,-2.3101,-2.3101,-2.3101,-2.3101,-2.312,-2.3457,-2.3672,-2.3848,-2.4434,-2.4871,-2.5145,-2.541,-2.5557,-2.5693,-3.0898,-3.0898,-3.0898,-3.0898,-3.0898,-3.0898,-3.0898,-3.0898,-3.0898,-3.0898,-3.0898,-3.0898,-3.0898,-3.0098,-2.9626,-2.9626,-2.8926,-2.8457,-2.8301,-2.8301,-2.8301,-2.8301,-2.8301,-2.8027,-2.7441,-2.7148,-2.6719,-2.6152,-2.583,-2.5586,-2.5312,-2.5312,-2.5312,-2.5312,-2.5312,-2.5469,-2.5693,-2.5693,-2.5693,-2.5693,-2.5693,-2.5596,-2.541,-2.4687,-2.4316,-2.4082,-2.3354,-2.3101,-2.3101,-2.3101,-2.3101,-2.3101,-2.3101,-2.3101,-2.3101,-2.3101,-2.3101,-2.3101,-2.3101,-2.3101,-2.3101,-2.3101,-2.3101,-2.3299,-2.4016,-2.4723,-2.5231,-2.5231,-2.5231,-2.5231,-2.5231,-2.5231,-2.5401,-2.6017,-2.5592,-2.5422,-2.6017,-2.5592,-2.4978,-2.4253,-2.4168,-2.3887,-2.3169,-2.3379,-2.3652,-2.3881,-2.4336,-2.4473,-2.4199,-2.4336,-2.4277,-2.39,-2.3374,-2.3218,-2.3535,-2.3237,-2.3101,-2.3101,-2.3101,-2.3101,-2.3101,-2.3101,-2.3101,-2.3101,-2.3101,-2.3101,-2.312,-2.3437,-2.3633,-2.3867,-2.4551,-2.4922,-2.5165,-2.5566,-2.5693,-2.5693,-3.0898,-3.0898,-3.0898,-3.0898,-3.0898,-3.0898,-3.0898,-3.0898,-3.0898,-3.0898,-3.0898,-3.0898,-3.0898,-3.0137,-2.9609,-2.9626,-2.9141,-2.8711,-2.832,-2.8301,-2.8301,-2.8301,-2.8301,-2.791,-2.709,-2.7031,-2.6551,-2.5693,-2.5693,-2.5693,-2.5693,-2.5693,-2.5693,-2.5693,-2.5693,-2.5693,-2.5693,-2.5693,-2.5693,-2.5693,-2.5693,-2.5469,-2.5067,-2.459,-2.416,-2.373,-2.3257,-2.3101,-2.3101,-2.3101,-2.3101,-2.3101,-2.3101,-2.3101,-2.3101,-2.3101,-2.3101,-2.3101,-2.3101,-2.3101,-2.3101,-2.3101,-2.3101,-2.3101,-2.3101,-2.3101,-2.3101,-2.3101,-2.3101,-2.3101,-2.3101,-2.312,-2.3608,-2.5044,-2.4078,-2.3672,-2.5109,-2.4038,-2.3101,-2.3101,-2.3101,-2.3101,-2.3101,-2.3101,-2.3101,-2.314,-2.3555,-2.3809,-2.3828,-2.4199,-2.4043,-2.3159,-2.314,-2.312,-2.3101,-2.3101,-2.3101,-2.3101,-2.3101,-2.3101,-2.3101,-2.3101,-2.3101,-2.3101,-2.312,-2.314,-2.314,-2.3198,-2.3496,-2.3887,-2.4336,-2.4727,-2.5165,-2.5566,-2.5693,-2.5693,-3.0898,-3.0898,-3.0898,-3.0898,-3.0898,-3.0898,-3.0898,-3.0898,-3.0898,-3.0898,-3.0898,-3.0898,-3.0898,-3.0391,-2.9922,-2.9646,-2.8887,-2.8398,-2.8301,-2.8301,-2.8301,-2.8301,-2.8301,-2.8047,-2.7519,-2.7187,-2.6551,-2.5693,-2.5693,-2.5693,-2.5693,-2.5693,-2.5693,-2.5693,-2.5693,-2.5693,-2.5693,-2.5693,-2.5693,-2.5693,-2.5693,-2.5469,-2.5067,-2.459,-2.416,-2.373,-2.3257,-2.3101,-2.3101,-2.3101,-2.3101,-2.3101,-2.3101,-2.3101,-2.3101,-2.3101,-2.3101,-2.3101,-2.3101,-2.3101,-2.3101,-2.3101,-2.3101,-2.3101,-2.3101,-2.3101,-2.3101,-2.3101,-2.3101,-2.3101,-2.3101,-2.3418,-2.3761,-2.4108,-2.387,-2.3761,-2.4128,-2.3531,-2.3101,-2.3101,-2.3101,-2.3101,-2.3101,-2.3101,-2.3237,-2.3613,-2.373,-2.3926,-2.4258,-2.4355,-2.418,-2.3652,-2.3633,-2.3477,-2.3101,-2.3101,-2.3101,-2.3101,-2.3101,-2.3101,-2.3101,-2.3101,-2.3101,-2.312,-2.3496,-2.3633,-2.3691,-2.4336,-2.4473,-2.4336,-2.507,-2.5273,-2.5165,-2.5566,-2.5693,-2.5693,-3.0898,-3.0898,-3.0898,-3.0898,-3.0898,-3.0898,-3.0898,-3.0898,-3.0898,-3.0898,-3.0898,-3.0898,-3.0898,-3.0312,-2.9824,-2.9646,-2.8965,-2.8496,-2.8301,-2.8301,-2.8301,-2.8301,-2.8301,-2.8086,-2.7728,-2.7441,-2.6894,-2.6035,-2.5791,-2.5693,-2.5693,-2.5693,-2.5693,-2.5693,-2.5693,-2.5693,-2.5693,-2.5693,-2.5693,-2.5693,-2.5693,-2.5352,-2.4746,-2.4512,-2.4023,-2.3457,-2.3179,-2.3101,-2.3101,-2.3101,-2.3101,-2.3101,-2.3101,-2.3101,-2.3101,-2.3101,-2.3101,-2.3101,-2.3101,-2.3101,-2.3101,-2.3101,-2.3101,-2.3101,-2.3101,-2.3101,-2.3101,-2.3101,-2.3101,-2.3101,-2.3101,-2.3296,-2.3555,-2.3769,-2.3633,-2.3555,-2.3769,-2.3418,-2.3101,-2.3101,-2.3101,-2.3101,-2.3101,-2.3101,-2.3198,-2.3477,-2.3848,-2.418,-2.4414,-2.4805,-2.4727,-2.4102,-2.3887,-2.3672,-2.3437,-2.3198,-2.3198,-2.3437,-2.3437,-2.3535,-2.3686,-2.3686,-2.3686,-2.3686,-2.3965,-2.4082,-2.4102,-2.457,-2.4629,-2.4492,-2.5156,-2.5273,-2.5165,-2.5566,-2.5693,-2.5693,-3.0898,-3.0898,-3.0898,-3.0898,-3.0898,-3.0898,-3.0898,-3.0898,-3.0898,-3.0898,-3.0898,-3.0898,-3.0898,-3.0098,-2.9626,-2.9626,-2.9121,-2.8672,-2.832,-2.8301,-2.8301,-2.8301,-2.8301,-2.8086,-2.7728,-2.7591,-2.7109,-2.6387,-2.5957,-2.5693,-2.5693,-2.5693,-2.5693,-2.5693,-2.5693,-2.5693,-2.5693,-2.5615,-2.5596,-2.5577,-2.5518,-2.4992,-2.4316,-2.4316,-2.3828,-2.3101,-2.3101,-2.3101,-2.3101,-2.3101,-2.3101,-2.3101,-2.3101,-2.3101,-2.3101,-2.3101,-2.3101,-2.3101,-2.3101,-2.3101,-2.3101,-2.3101,-2.3101,-2.3101,-2.3101,-2.3101,-2.3101,-2.3101,-2.3101,-2.3101,-2.3101,-2.314,-2.3379,-2.3809,-2.3516,-2.3379,-2.3828,-2.3413,-2.3101,-2.3101,-2.3101,-2.3101,-2.3101,-2.3159,-2.3198,-2.3198,-2.3965,-2.4453,-2.4512,-2.5234,-2.5312,-2.4629,-2.4199,-2.3926,-2.3789,-2.3418,-2.3418,-2.3789,-2.3848,-2.4062,-2.4414,-2.4414,-2.4414,-2.4414,-2.4492,-2.4512,-2.4531,-2.459,-2.4609,-2.4648,-2.5019,-2.5176,-2.5215,-2.5557,-2.5693,-2.5693,-3.0898,-3.0898,-3.0898,-3.0898,-3.0898,-3.0898,-3.0898,-3.0898,-3.0898,-3.0898,-3.0898,-3.0898,-3.0898,-3.0098,-2.9626,-2.9626,-2.8848,-2.8359,-2.8301,-2.8301,-2.8301,-2.8301,-2.8301,-2.8086,-2.7728,-2.6953,-2.6523,-2.6387,-2.5957,-2.5693,-2.5693,-2.5693,-2.5693,-2.5693,-2.5693,-2.5693,-2.5674,-2.5332,-2.5176,-2.5137,-2.4766,-2.4336,-2.3887,-2.3887,-2.3574,-2.3101,-2.3101,-2.3101,-2.3101,-2.3101,-2.3101,-2.3101,-2.3101,-2.3101,-2.3101,-2.3101,-2.3101,-2.3101,-2.3101,-2.3101,-2.3101,-2.3101,-2.3101,-2.3101,-2.3101,-2.3101,-2.3101,-2.3101,-2.3101,-2.3101,-2.3101,-2.3437,-2.3828,-2.4258,-2.3965,-2.3848,-2.4258,-2.3588,-2.3101,-2.3101,-2.3101,-2.3101,-2.3101,-2.3477,-2.3691,-2.3691,-2.4141,-2.457,-2.4941,-2.5098,-2.5293,-2.5479,-2.5098,-2.4512,-2.3789,-2.373,-2.373,-2.3789,-2.4141,-2.4355,-2.4414,-2.4414,-2.4414,-2.4434,-2.4805,-2.4961,-2.5047,-2.5371,-2.5479,-2.5499,-2.5557,-2.5625,-2.5596,-2.5654,-2.5693,-2.5693,-3.0898,-3.0898,-3.0898,-3.0898,-3.0898,-3.0898,-3.0898,-3.0898,-3.0898,-3.0898,-3.0898,-3.0898,-3.0898,-3.0312,-2.9824,-2.9646,-2.9219,-2.8789,-2.832,-2.8301,-2.8301,-2.8301,-2.8301,-2.8203,-2.8008,-2.7168,-2.6719,-2.6719,-2.6025,-2.5693,-2.5693,-2.5693,-2.5693,-2.5693,-2.5693,-2.5605,-2.5371,-2.5156,-2.4922,-2.4707,-2.4492,-2.416,-2.3789,-2.3789,-2.3516,-2.3101,-2.3101,-2.3101,-2.3101,-2.3101,-2.3101,-2.3101,-2.3101,-2.3101,-2.3101,-2.3101,-2.3101,-2.3101,-2.3101,-2.3101,-2.3101,-2.3101,-2.3101,-2.3101,-2.3101,-2.3101,-2.3101,-2.3101,-2.3101,-2.3101,-2.3101,-2.3257,-2.3452,-2.3647,-2.353,-2.3516,-2.3666,-2.3335,-2.3101,-2.3101,-2.3101,-2.3101,-2.3101,-2.3535,-2.3789,-2.3789,-2.4394,-2.4863,-2.5106,-2.5293,-2.5527,-2.5674,-2.5293,-2.4812,-2.4141,-2.4121,-2.4238,-2.4473,-2.4668,-2.4902,-2.5089,-2.5089,-2.5089,-2.5089,-2.5332,-2.543,-2.5449,-2.5596,-2.5693,-2.5693,-2.5693,-2.5693,-2.5693,-2.5693,-2.5693,-2.5693,-3.0898,-3.0898,-3.0898,-3.0898,-3.0898,-3.0898,-3.0898,-3.0898,-3.0898,-3.0898,-3.0898,-3.0898,-3.0898,-3.0469,-3.0059,-2.9746,-2.9629,-2.9258,-2.8496,-2.8437,-2.8398,-2.8301,-2.8301,-2.8301,-2.8301,-2.7461,-2.7012,-2.7012,-2.6103,-2.5693,-2.5693,-2.5693,-2.5693,-2.5693,-2.5693,-2.5547,-2.5215,-2.5,-2.4727,-2.4394,-2.4199,-2.3926,-2.3633,-2.3633,-2.3437,-2.3101,-2.3101,-2.3101,-2.3101,-2.3101,-2.3101,-2.3101,-2.3101,-2.3101,-2.3101,-2.3101,-2.3101,-2.3101,-2.3101,-2.3101,-2.3101,-2.3101,-2.3101,-2.3101,-2.3101,-2.3101,-2.3101,-2.3101,-2.3101,-2.3101,-2.3101,-2.3101,-2.314,-2.3237,-2.3159,-2.314,-2.3237,-2.3159,-2.3101,-2.3101,-2.3101,-2.3101,-2.3101,-2.3535,-2.3828,-2.3926,-2.4629,-2.5165,-2.5215,-2.5547,-2.5693,-2.5693,-2.5293,-2.4902,-2.457,-2.457,-2.4727,-2.5106,-2.5176,-2.541,-2.5693,-2.5693,-2.5693,-2.5693,-2.5693,-2.5693,-2.5693,-2.5693,-2.5693,-2.5693,-2.5693,-2.5693,-2.5693,-2.5693,-2.5693,-2.5693,-3.0898,-3.0898,-3.0898,-3.0898,-3.0898,-3.0898,-3.0898,-3.0898,-3.0898,-3.0898,-3.0898,-3.0898,-3.0898,-3.0469,-3.0176,-3.0156,-2.9785,-2.9375,-2.8906,-2.8867,-2.8691,-2.832,-2.8301,-2.8301,-2.8301,-2.7461,-2.7012,-2.7012,-2.6103,-2.5693,-2.5693,-2.5693,-2.5693,-2.5693,-2.5693,-2.5674,-2.5577,-2.4805,-2.4453,-2.4355,-2.351,-2.3179,-2.314,-2.314,-2.312,-2.3101,-2.3101,-2.3101,-2.3101,-2.3101,-2.3101,-2.3101,-2.3101,-2.3101,-2.3101,-2.3101,-2.3101,-2.3101,-2.3101,-2.3101,-2.3101,-2.3101,-2.3101,-2.3101,-2.3101,-2.3101,-2.3101,-2.3101,-2.3101,-2.3101,-2.3101,-2.3101,-2.3218,-2.3672,-2.3354,-2.3237,-2.3691,-2.3354,-2.3101,-2.3101,-2.3101,-2.3101,-2.3101,-2.3535,-2.3945,-2.4336,-2.4805,-2.5254,-2.5615,-2.5674,-2.5693,-2.5693,-2.5293,-2.5106,-2.5067,-2.5067,-2.5086,-2.5125,-2.5488,-2.5654,-2.5693,-2.5693,-2.5693,-2.5693,-2.5693,-2.5693,-2.5693,-2.5693,-2.5693,-2.5693,-2.5693,-2.5693,-2.5693,-2.5693,-2.5693,-2.5693,-3.0898,-3.0898,-3.0898,-3.0898,-3.0898,-3.0898,-3.0898,-3.0898,-3.0898,-3.0898,-3.0898,-3.0898,-3.0898,-3.0742,-3.0508,-3.0215,-3.0312,-2.998,-2.8984,-2.918,-2.9023,-2.832,-2.8301,-2.8301,-2.8301,-2.7461,-2.7012,-2.7012,-2.6103,-2.5693,-2.5693,-2.5693,-2.5693,-2.5693,-2.5693,-2.5586,-2.5293,-2.4668,-2.4277,-2.3984,-2.3335,-2.3101,-2.3101,-2.3101,-2.3101,-2.3101,-2.3101,-2.3101,-2.3101,-2.3101,-2.3101,-2.3101,-2.3101,-2.3101,-2.3101,-2.3101,-2.3101,-2.3101,-2.3101,-2.3101,-2.3101,-2.3101,-2.3101,-2.3101,-2.3101,-2.3101,-2.3101,-2.3101,-2.3101,-2.3101,-2.3101,-2.3101,-2.314,-2.3359,-2.3198,-2.3159,-2.3315,-2.3198,-2.3101,-2.3101,-2.3101,-2.3101,-2.3101,-2.3535,-2.3965,-2.4375,-2.4824,-2.5273,-2.5674,-2.5693,-2.5693,-2.5693,-2.5566,-2.5488,-2.5488,-2.5488,-2.5488,-2.5488,-2.5615,-2.5693,-2.5693,-2.5693,-2.5693,-2.5693,-2.5693,-2.5693,-2.5693,-2.5693,-2.5693,-2.5693,-2.5693,-2.5693,-2.5693,-2.5693,-2.5693,-2.5693,-3.0898,-3.0898,-3.0898,-3.0898,-3.0898,-3.0898,-3.0898,-3.0898,-3.0898,-3.0898,-3.0898,-3.0898,-3.0898,-3.0898,-3.0762,-3.0449,-3.0703,-3.0391,-2.9199,-2.916,-2.8906,-2.832,-2.8301,-2.8301,-2.8301,-2.7461,-2.7012,-2.7012,-2.6103,-2.5693,-2.5693,-2.5693,-2.5693,-2.5693,-2.5693,-2.5566,-2.5254,-2.4805,-2.4375,-2.3945,-2.3516,-2.3218,-2.3101,-2.3101,-2.3101,-2.3101,-2.3101,-2.3101,-2.3101,-2.3101,-2.3101,-2.3101,-2.3101,-2.3101,-2.3101,-2.3101,-2.3101,-2.3101,-2.3101,-2.3101,-2.3101,-2.3101,-2.3101,-2.3101,-2.3101,-2.3101,-2.3101,-2.3101,-2.3101,-2.3101,-2.3101,-2.3101,-2.3101,-2.3101,-2.3101,-2.3101,-2.3101,-2.3101,-2.3101,-2.3101,-2.3101,-2.3101,-2.3101,-2.3535,-2.3965,-2.4375,-2.4824,-2.5273,-2.5674,-2.5693,-2.5693,-2.5693,-2.5693,-2.5693,-2.5693,-2.5693,-2.5693,-2.5693,-2.5693,-2.5693,-2.5693,-2.5693,-2.5693,-2.5693,-2.5693,-2.5693,-2.5693,-2.5693,-2.5693,-2.5693,-2.5693,-2.5693,-2.5693,-2.5693,-2.5693,-2.5693,-3.0898,-3.0898,-3.0898,-3.0898,-3.0898,-3.0898,-3.0898,-3.0898,-3.0898,-3.0898,-3.0898,-3.0898,-3.0898,-3.0898,-3.0898,-3.0898,-3.0879,-3.0508,-2.9685,-2.8769,-2.8301,-2.8301,-2.8301,-2.8301,-2.8301,-2.7461,-2.7012,-2.7012,-2.6103,-2.5693,-2.5693,-2.5693,-2.5693,-2.5693,-2.5693,-2.5693,-2.5654,-2.5254,-2.4805,-2.4375,-2.3965,-2.3535,-2.3101,-2.3101,-2.3101,-2.3101,-2.3101,-2.3101,-2.3101,-2.3101,-2.3101,-2.3101,-2.3101,-2.3101,-2.3101,-2.3101,-2.3101,-2.3101,-2.3101,-2.3101,-2.3101,-2.3101,-2.3101,-2.3101,-2.3101,-2.3101,-2.3101,-2.3101,-2.3101,-2.3101,-2.3101,-2.3101,-2.3101,-2.3101,-2.3101,-2.3101,-2.3101,-2.3101,-2.3101,-2.3101,-2.3101,-2.3101,-2.3101,-2.3535,-2.3965,-2.4375,-2.4824,-2.5273,-2.5674,-2.5693,-2.5693,-2.5693,-2.5693,-2.5693,-2.5693,-2.5693,-2.5693,-2.5693,-2.5693,-2.5693,-2.5693,-2.5693,-2.5693,-2.5693,-2.5693,-2.5693,-2.5693,-2.5693,-2.5693,-2.5693,-2.5693,-2.5693,-2.5693,-2.5693,-2.5693,-2.5693,-3.0898,-3.0898,-3.0898,-3.0898,-3.0898,-3.0898,-3.0898,-3.0898,-3.0898,-3.0898,-3.0898,-3.0898,-3.0898,-3.0898,-3.0898,-3.0898,-3.0586,-3.0039,-2.918,-2.8594,-2.8301,-2.8301,-2.8301,-2.8301,-2.8301,-2.7461,-2.7012,-2.7012,-2.6103,-2.5693,-2.5693,-2.5693,-2.5693,-2.5693,-2.5693,-2.5693,-2.5654,-2.5254,-2.4805,-2.4414,-2.4277,-2.3789,-2.314,-2.3477,-2.3398,-2.3101,-2.3101,-2.3101,-2.3101,-2.3101,-2.3101,-2.3101,-2.3101,-2.3101,-2.3101,-2.3101,-2.3101,-2.3101,-2.3101,-2.3101,-2.3101,-2.3101,-2.3101,-2.3101,-2.3101,-2.3335,-2.3594,-2.3594,-2.3828,-2.3978,-2.3978,-2.3978,-2.3978,-2.3978,-2.3789,-2.3594,-2.3594,-2.3296,-2.3101,-2.3101,-2.3101,-2.3101,-2.3101,-2.3535,-2.3965,-2.4375,-2.5117,-2.5557,-2.5674,-2.5693,-2.5693,-2.5693,-2.5693,-2.5693,-2.5693,-2.5693,-2.5693,-2.5693,-2.5693,-2.5693,-2.5693,-2.5693,-2.5693,-2.5693,-2.5693,-2.5693,-2.5693,-2.5693,-2.5693,-2.5693,-2.5693,-2.5693,-2.5693,-2.5693,-2.5693,-2.5693,-3.0898,-3.0898,-3.0898,-3.0898,-3.0898,-3.0898,-3.0898,-3.0898,-3.0898,-3.0898,-3.0898,-3.0898,-3.0898,-3.0898,-3.0898,-3.0898,-3.0312,-2.9648,-2.8965,-2.8516,-2.8301,-2.8301,-2.8301,-2.8301,-2.8301,-2.7461,-2.7012,-2.7012,-2.6103,-2.5693,-2.5693,-2.5693,-2.5693,-2.5693,-2.5693,-2.5693,-2.5674,-2.5449,-2.5078,-2.4668,-2.4668,-2.416,-2.3418,-2.3691,-2.3516,-2.3101,-2.3101,-2.3101,-2.3101,-2.3101,-2.3101,-2.3101,-2.3101,-2.3101,-2.3101,-2.3101,-2.3101,-2.3101,-2.3101,-2.3101,-2.3101,-2.3101,-2.3101,-2.3101,-2.3101,-2.3477,-2.3789,-2.3789,-2.4121,-2.4414,-2.4414,-2.4414,-2.4355,-2.4199,-2.3965,-2.373,-2.3555,-2.3257,-2.3101,-2.3101,-2.3101,-2.3101,-2.3101,-2.3691,-2.4277,-2.4902,-2.5382,-2.5693,-2.5693,-2.5693,-2.5693,-2.5693,-2.5693,-2.5693,-2.5693,-2.5693,-2.5693,-2.5693,-2.5693,-2.5693,-2.5693,-2.5693,-2.5693,-2.5693,-2.5693,-2.5693,-2.5693,-2.5693,-2.5693,-2.5693,-2.5693,-2.5693,-2.5693,-2.5693,-2.5693,-2.5693,-3.0898,-3.0898,-3.0898,-3.0898,-3.0898,-3.0898,-3.0898,-3.0898,-3.0898,-3.0898,-3.0898,-3.0898,-3.0898,-3.0898,-3.0898,-3.0898,-3.0078,-2.9375,-2.8887,-2.8496,-2.8301,-2.8301,-2.8301,-2.8281,-2.8242,-2.7441,-2.7012,-2.7012,-2.6103,-2.5693,-2.5693,-2.5693,-2.5693,-2.5693,-2.5693,-2.5693,-2.5693,-2.5693,-2.5488,-2.5125,-2.5165,-2.4609,-2.3848,-2.3848,-2.3574,-2.314,-2.3101,-2.3101,-2.3101,-2.314,-2.3159,-2.3159,-2.3198,-2.3179,-2.3159,-2.3159,-2.312,-2.3101,-2.314,-2.3159,-2.3159,-2.3198,-2.3218,-2.3198,-2.3159,-2.3555,-2.3906,-2.3906,-2.4238,-2.4531,-2.4531,-2.4531,-2.4414,-2.4023,-2.3906,-2.3711,-2.3257,-2.314,-2.3101,-2.3101,-2.314,-2.3159,-2.3159,-2.3965,-2.4824,-2.5635,-2.5693,-2.5693,-2.5693,-2.5693,-2.5693,-2.5693,-2.5693,-2.5693,-2.5693,-2.5693,-2.5693,-2.5693,-2.5693,-2.5693,-2.5693,-2.5693,-2.5693,-2.5693,-2.5693,-2.5693,-2.5693,-2.5693,-2.5693,-2.5693,-2.5693,-2.5693,-2.5693,-2.5693,-2.5693,-2.5693,-3.0898,-3.0898,-3.0898,-3.0898,-3.0898,-3.0898,-3.0898,-3.0898,-3.0898,-3.0898,-3.0898,-3.0898,-3.0898,-3.0898,-3.0898,-3.0898,-3.0078,-2.9238,-2.8476,-2.834,-2.8301,-2.8301,-2.8301,-2.8144,-2.7865,-2.7285,-2.7012,-2.7012,-2.6103,-2.5693,-2.5693,-2.5693,-2.5693,-2.5693,-2.5693,-2.5693,-2.5693,-2.5693,-2.5488,-2.5145,-2.5449,-2.5059,-2.4277,-2.4277,-2.4023,-2.3613,-2.3218,-2.3101,-2.314,-2.3535,-2.3652,-2.3711,-2.4043,-2.3906,-2.3652,-2.3652,-2.3398,-2.3179,-2.3555,-2.3652,-2.373,-2.4062,-2.4141,-2.4062,-2.373,-2.4238,-2.4832,-2.4832,-2.5137,-2.5401,-2.5401,-2.5401,-2.5382,-2.5284,-2.4727,-2.4258,-2.4114,-2.351,-2.3101,-2.3101,-2.3437,-2.3652,-2.3652,-2.4434,-2.5156,-2.5654,-2.5693,-2.5693,-2.5693,-2.5693,-2.5693,-2.5693,-2.5693,-2.5693,-2.5693,-2.5693,-2.5693,-2.5693,-2.5693,-2.5693,-2.5693,-2.5693,-2.5693,-2.5693,-2.5693,-2.5693,-2.5693,-2.5693,-2.5693,-2.5693,-2.5693,-2.5693,-2.5693,-2.5693,-2.5693,-2.5693,-3.0898,-3.0898,-3.0898,-3.0898,-3.0898,-3.0898,-3.0898,-3.0898,-3.0898,-3.0898,-3.0898,-3.0898,-3.0898,-3.0703,-3.0391,-2.998,-2.9707,-2.9199,-2.8359,-2.8301,-2.8301,-2.8301,-2.8301,-2.8184,-2.7969,-2.7344,-2.6914,-2.6719,-2.6005,-2.5693,-2.5693,-2.5693,-2.5693,-2.5693,-2.5693,-2.5693,-2.5693,-2.5693,-2.5488,-2.5145,-2.5332,-2.4902,-2.4121,-2.4121,-2.3848,-2.3437,-2.3179,-2.3101,-2.3159,-2.3633,-2.3789,-2.3867,-2.4277,-2.4121,-2.3828,-2.4023,-2.3789,-2.3496,-2.373,-2.3945,-2.4102,-2.4121,-2.4434,-2.4609,-2.418,-2.459,-2.5106,-2.5106,-2.543,-2.5693,-2.5693,-2.5566,-2.541,-2.541,-2.4863,-2.4414,-2.4414,-2.3848,-2.3535,-2.3686,-2.3594,-2.3633,-2.4043,-2.4687,-2.5254,-2.5654,-2.5693,-2.5693,-2.5693,-2.5693,-2.5791,-2.6035,-2.6055,-2.6055,-2.6055,-2.625,-2.625,-2.6055,-2.5791,-2.5791,-2.6035,-2.5791,-2.5693,-2.5693,-2.5693,-2.5693,-2.5693,-2.5693,-2.5693,-2.5693,-2.5693,-2.5693,-2.5693,-2.5693,-2.5693,-2.5693,-3.0898,-3.0898,-3.0898,-3.0898,-3.0898,-3.0898,-3.0898,-3.0898,-3.0898,-3.0898,-3.082,-3.0762,-3.0762,-3.043,-2.9883,-2.9101,-2.9355,-2.9199,-2.8359,-2.8301,-2.8301,-2.8301,-2.8301,-2.8262,-2.8184,-2.7422,-2.6836,-2.6504,-2.5977,-2.5693,-2.5693,-2.5693,-2.5693,-2.5693,-2.5693,-2.5693,-2.5693,-2.5615,-2.541,-2.5106,-2.5028,-2.4531,-2.3887,-2.3828,-2.3574,-2.3198,-2.312,-2.3101,-2.3179,-2.373,-2.3906,-2.3984,-2.4492,-2.4355,-2.4082,-2.4434,-2.4238,-2.3906,-2.3984,-2.4258,-2.4453,-2.4199,-2.4648,-2.5078,-2.4727,-2.4922,-2.5176,-2.5176,-2.5488,-2.5693,-2.5693,-2.543,-2.5176,-2.5176,-2.4824,-2.4531,-2.4531,-2.416,-2.4023,-2.4375,-2.3803,-2.3725,-2.457,-2.4961,-2.5332,-2.5654,-2.5752,-2.581,-2.581,-2.5869,-2.6133,-2.6484,-2.6504,-2.6504,-2.6504,-2.6836,-2.6875,-2.6602,-2.6172,-2.6152,-2.6484,-2.6055,-2.581,-2.5791,-2.5713,-2.5693,-2.5693,-2.5693,-2.5693,-2.5693,-2.5693,-2.5693,-2.5693,-2.5693,-2.5693,-2.5693,-3.0898,-3.0898,-3.0898,-3.0898,-3.0898,-3.0898,-3.0898,-3.0898,-3.0898,-3.0898,-3.0547,-3.0293,-3.0293,-3.0234,-3.0,-2.9531,-2.9531,-2.9199,-2.8359,-2.8301,-2.8301,-2.8301,-2.8301,-2.8125,-2.7806,-2.7266,-2.6992,-2.6934,-2.6083,-2.5693,-2.5693,-2.5693,-2.5693,-2.5693,-2.5693,-2.5693,-2.5654,-2.5332,-2.5165,-2.5086,-2.4668,-2.4434,-2.4297,-2.3926,-2.375,-2.3652,-2.3237,-2.3101,-2.3218,-2.4062,-2.4336,-2.4473,-2.5245,-2.5254,-2.4949,-2.5008,-2.4668,-2.4414,-2.4785,-2.4941,-2.5059,-2.5391,-2.5518,-2.5577,-2.5518,-2.5557,-2.5596,-2.5596,-2.5635,-2.5693,-2.5693,-2.5635,-2.5596,-2.5596,-2.5273,-2.5028,-2.5028,-2.4609,-2.4355,-2.4414,-2.4648,-2.5,-2.546,-2.5557,-2.5615,-2.5693,-2.6094,-2.6309,-2.6309,-2.6641,-2.6875,-2.6934,-2.6934,-2.6934,-2.6934,-2.6992,-2.7168,-2.7532,-2.7051,-2.6875,-2.6914,-2.6484,-2.6309,-2.6289,-2.5898,-2.5693,-2.5693,-2.5693,-2.5693,-2.5693,-2.5693,-2.5693,-2.5693,-2.5693,-2.5693,-2.5693,-3.0898,-3.0898,-3.0898,-3.0898,-3.0898,-3.0898,-3.0898,-3.0898,-3.0801,-3.0527,-3.0332,-3.0098,-2.9863,-2.9844,-2.957,-2.8906,-2.9062,-2.8945,-2.834,-2.8301,-2.8301,-2.8301,-2.8301,-2.8203,-2.8027,-2.7598,-2.7266,-2.7012,-2.6103,-2.5693,-2.5693,-2.5693,-2.5693,-2.5693,-2.5693,-2.5605,-2.5352,-2.5204,-2.4832,-2.4336,-2.4141,-2.3926,-2.3647,-2.3496,-2.3437,-2.3398,-2.3159,-2.3257,-2.3594,-2.4199,-2.457,-2.4883,-2.5527,-2.543,-2.5117,-2.5371,-2.5137,-2.4824,-2.5067,-2.5254,-2.543,-2.5371,-2.5547,-2.5693,-2.5693,-2.5693,-2.5693,-2.5693,-2.5693,-2.5693,-2.5693,-2.5527,-2.5449,-2.5654,-2.5352,-2.5156,-2.541,-2.5059,-2.4687,-2.4453,-2.5019,-2.543,-2.5371,-2.5586,-2.5791,-2.6074,-2.6289,-2.6484,-2.6719,-2.6914,-2.7129,-2.7363,-2.7383,-2.7383,-2.7383,-2.7617,-2.7715,-2.7728,-2.7715,-2.7598,-2.7363,-2.668,-2.6387,-2.6367,-2.5869,-2.5693,-2.5693,-2.5693,-2.5693,-2.5693,-2.5693,-2.5693,-2.5693,-2.5693,-2.5693,-2.5693]},{"header":{"parameterUnit":"m.s-1","parameterCategory":1,"la1":30.6,"la2":28.766,"lo1":-90.7593,"lo2":-88.6598,"dy":0.0162,"dx":0.0183,"nx":116,"ny":114,"refTime":"2023-05-10T12:00:00:Z","depth":0,"parameterNumber":3,"parameterNumberName":"V-component_of_WINDS"},"data":[0.0,0.0,0.0,0.0,0.0,0.0,0.0,0.0,0.0,0.0,0.0,0.0,0.0,0.0,0.0,0.0,0.0,0.0,0.0,0.0,0.0,0.0,0.0,0.0,0.0,0.0,0.0,0.0,0.0,0.0,0.0,0.0,0.0,0.0,0.0,0.0,0.0,0.0,0.0,0.0,0.0,0.0,0.0,0.0,0.0,0.0,0.0,0.0,0.0,0.0,0.0,0.0,0.0,0.0,0.0,0.0,0.0,0.0,0.0,0.0,0.0,0.0,0.0,0.0,0.0,0.0,0.0,0.0,0.0,0.0,0.0,0.0,0.0,0.0,0.0,0.0,0.0,0.0,0.0,0.0,0.0,0.0,0.0,0.0,0.0,0.0,0.0,0.0,0.0,0.0,0.0,0.0,0.0,0.0,0.0,0.0,0.0,0.0,0.0,0.0,0.0,0.0,0.0,0.0,0.0,0.0,0.0,0.0,0.0,0.0,0.0,0.0,0.0,0.0,0.0,0.0,0.0,0.0,0.0,0.0,0.0,0.0,0.0,0.0,0.0,0.0,0.0,0.0,0.0,0.0,0.0,0.0,0.0,0.0,0.0,0.0,0.0,0.0,0.0,0.0,0.0,0.0,0.0,0.0,0.0,0.0,0.0,0.0,0.0,0.0,0.0,0.0,0.0,0.0,0.0,0.0,0.0,0.0,0.0,0.0,0.0,0.0,0.0,0.0,0.0,0.0,0.0,0.0,0.0,0.0,0.0,0.0,0.0,0.0,0.0,0.0,0.0,0.0,0.0,0.0,0.0,0.0,0.0,0.0,0.0,0.0,0.0,0.0,0.0,0.0,0.0,0.0,0.0,0.0,0.0,0.0,0.0,0.0,0.0,0.0,0.0,0.0,0.0,0.0,0.0,0.0,0.0,0.0,0.0,0.0,0.0,0.0,0.0,0.0,0.0,0.0,0.0,0.0,0.0,0.0,0.0,0.0,0.0,0.0,0.0,0.0,0.0,0.0,0.0,0.0,0.0,0.0,0.0,0.0,0.0,0.0,0.0,0.0,0.0,0.0,0.0,0.0,0.0,0.0,0.0,0.0,0.0,0.0,0.0,0.0,0.0,0.0,0.0,0.0,0.0,0.0,0.0,0.0,0.0,0.0,0.0,0.0,0.0,0.0,0.0,0.0,0.0,0.0,0.0,0.0,0.0,0.0,0.0,0.0,0.0,0.0,0.0,0.0,0.0,0.0,0.0,0.0,0.0,0.0,0.0,0.0,0.0,0.0,0.0,0.0,0.0,0.0,0.0,0.0,0.0,0.0,0.0,0.0,0.0,0.0,0.0,0.0,0.0,0.0,0.0,0.0,0.0,0.0,0.0,0.0,0.0,0.0,0.0,0.0,0.0,0.0,0.0,0.0,0.0,0.0,0.0,0.0,0.0,0.0,0.0,0.0,0.0,0.0,0.0,0.0,0.0,0.0,0.0,0.0,0.0,0.0,0.0,0.0,0.0,0.0,0.0,0.0,0.0,0.0,0.0,0.0,0.0,0.0,0.0,0.0,0.0,0.0,0.0,0.0,0.0,0.0,0.0,0.0,0.0,0.0,0.0,0.0,0.0,0.0,0.0,0.0,0.0,0.0,0.0,0.0,0.0,0.0,0.0,0.0,0.0,0.0,0.0,0.0,0.0,0.0,0.0,0.0,0.0,0.0,0.0,0.0,0.0,0.0,0.0,0.0,0.0,0.0,0.0,0.0,0.0,0.0,0.0,0.0,0.0,0.0,0.0,0.0,0.0,0.0,0.0,0.0,0.0,0.0,0.0,0.0,0.0,0.0,0.0,0.0,0.0,0.0,0.0,0.0,0.0,0.0,0.0,0.0,0.0,0.0,0.0,0.0,0.0,0.0,0.0,0.0,0.0,0.0,0.0,0.0,0.0,0.0,0.0,0.0,0.0,0.0,0.0,0.0,0.0,0.0,0.0,0.0,0.0,0.0,0.0,0.0,0.0,0.0,0.0,0.0,0.0,0.0,0.0,0.0,0.0,0.0,0.0,0.0,0.0,0.0,0.0,0.0,0.0,0.0,0.0,0.0,0.0,0.0,0.0,0.0,0.0,0.0,0.0,0.0,0.0,0.0,0.0,0.0,0.0,0.0,0.0,0.0,0.0,0.0,0.0,0.0,0.0,0.0,0.0,0.0,0.0,0.0,0.0,0.0,0.0,0.0,0.0,0.0,0.0,0.0,0.0,0.0,0.0,0.0,0.0,0.0,0.0,0.0,0.0,0.0,0.0,0.0,0.0,0.0,0.0,0.0,0.0,0.0,0.0,0.0,0.0,0.0,0.0,0.0,0.0,0.0,0.0,0.0,0.0,0.0,0.0,0.0,0.0,0.0,0.0,0.0,0.0,0.0,0.0,0.0,0.0,0.0,0.0,0.0,0.0,0.0,0.0,0.0,0.0,0.0,0.0,0.0,0.0,0.0,0.0,0.0,0.0,0.0,0.0,0.0,0.0,0.0,0.0,0.0,0.0,0.0,0.0,0.0,0.0,0.0,0.0,0.0,0.0,0.0,0.0,0.0,0.0,0.0,0.0,0.0,0.0,0.0,0.0,0.0,0.0,0.0,0.0,0.0,0.0,0.0,0.0,0.0,0.0,0.0,0.0,0.0,0.0,0.0,0.0,0.0,0.0,0.0,0.0,0.0,0.0,0.0,0.0,0.0,0.0,0.0,0.0,0.0,0.0,0.0,0.0,0.0,0.0,0.0,0.0,0.0,0.0,0.0,0.0,0.0,0.0,0.0,0.0,0.0,0.0,0.0,0.0,0.0,0.0,0.0,0.0,0.0,0.0,0.0,0.0,0.0,0.0,0.0,0.0,0.0,0.0,0.0,0.0,0.0,0.0,0.0,0.0,0.0,0.0,0.0,0.0,0.0,0.0,0.0,0.0,0.0,0.0,0.0,0.0,0.0,0.0,0.0,0.0,0.0,0.0,0.0,0.0,0.0,0.0,0.0,0.0,0.0,0.0,0.0,0.0,0.0,0.0,0.0,0.0,0.0,0.0,0.0,0.0,0.0,0.0,0.0,0.0,0.0,0.0,0.0,0.0,0.0,0.0,0.0,0.0,0.0,0.0,0.0,0.0,0.0,0.0,0.0,0.0,0.0,0.0,0.0,0.0,0.0,0.0,0.0,0.0,0.0,0.0,0.0,0.0,0.0,0.0,0.0,0.0,0.0,0.0,0.0,0.0,0.0,0.0,0.0,0.0,0.0,0.0,0.0,0.0,0.0,0.0,0.0,0.0,0.0,0.0,0.0,0.0,0.0,0.0,0.0,0.0,0.0,0.0,0.0,0.0,0.0,0.0,0.0,0.0,0.0,0.0,0.0,0.0,0.0,0.0,0.0,0.0,0.0,0.0,0.0,0.0,0.0,0.0,0.0,0.0,0.0,0.0,0.0,0.0,0.0,0.0,0.0,0.0,0.0,0.0,0.0,0.0,0.0,0.0,0.0,0.0,0.0,0.0,0.0,0.0,0.0,0.0,0.0,0.0,0.0,0.0,0.0,0.0,0.0,0.0,0.0,0.0,0.0,0.0,0.0,0.0,0.0,0.0,0.0,0.0,0.0,0.0,0.0,0.0,0.0,0.0,0.0,0.0,0.0,0.0,0.0,0.0,0.0,0.0,0.0,0.0,0.0,0.0,0.0,0.0,0.0,0.0,0.0,0.0,0.0,0.0,0.0,0.0,0.0,0.0,0.0,0.0,0.0,0.0,0.0,0.0,0.0,0.0,0.0,0.0,0.0,0.0,0.0,0.0,0.0,0.0,0.0,0.0,0.0,0.0,0.0,0.0,0.0,0.0,0.0,0.0,0.0,0.0,0.0,0.0,0.0,0.0,0.0,0.0,0.0,0.0,0.0,0.0,0.0,0.0,0.0,0.0,0.0,0.0,0.0,0.0,0.0,0.0,0.0,0.0,0.0,0.0,0.0,0.0,0.0,0.0,0.0,0.0,0.0,0.0,0.0,0.0,0.0,0.0,0.0,0.0,0.0,0.0,0.0,0.0,0.0,0.0,0.0,0.0,0.0,0.0,0.0,0.0,0.0,0.0,0.0,0.0,0.0,0.0,0.0,0.0,0.0,0.0,0.0,0.0,0.0,0.0,0.0,0.0,0.0,0.0,0.0,0.0,0.0,0.0,0.0,0.0,0.0,0.0,0.0,0.0,0.0,0.0,0.0,0.0,0.0,0.0,0.0,0.0,0.0,0.0,0.0,0.0,0.0,0.0,0.0,0.0,0.0,0.0,0.0,0.0,0.0,0.0,0.0,0.0,0.0,0.0,0.0,0.0,0.0,0.0,0.0,0.0,0.0,0.0,0.0,0.0,0.0,0.0,0.0,0.0,0.0,0.0,0.0,0.0,0.0,0.0,0.0,0.0,0.0,0.0,0.0,0.0,0.0,0.0,0.0,0.0,0.0,0.0,0.0,0.0,0.0,0.0,0.0,0.0,0.0,0.0,0.0,0.0,0.0,0.0,0.0,0.0,0.0,0.0,0.0,0.0,0.0,0.0,0.0,0.0,0.0,0.0,0.0,0.0,0.0,0.0,0.0,0.0,0.0,0.0,0.0,0.0,0.0,0.0,0.0,0.0,0.0,0.0,0.0,0.0,0.0,0.0,0.0,0.0,0.0,0.0,0.0,0.0,0.0,0.0,0.0,0.0,0.0,0.0,0.0,0.0,0.0,0.0,0.0,0.0,0.0,0.0,0.0,0.0,0.0,0.0,0.0,0.0,0.0,0.0,0.0,0.0,0.0,0.0,0.0,0.0,0.0,0.0,0.0,0.0,0.0,0.0,0.0,0.0,0.0,0.0,0.0,0.0,0.0,0.0,0.0,0.0,0.0,0.0,0.0,0.0,0.0,0.0,0.0,0.0,0.0,0.0,0.0,0.0,0.0,0.0,0.0,0.0,0.0,0.0,0.0,0.0,0.0,0.0,0.0,0.0,0.0,0.0,0.0,0.0,0.0,0.0,0.0,0.0,0.0,0.0,0.0,0.0,0.0,0.0,0.0,0.0,0.0,0.0,0.0,0.0,0.0,0.0,0.0,0.0,0.0,0.0,0.0,0.0,0.0,0.0,0.0,0.0,0.0,0.0,0.0,0.0,0.0,0.0,0.0,0.0,0.0,0.0,0.0,0.0,0.0,0.0,0.0,0.0,0.0,0.0,0.0,0.0,0.0,0.0,0.0,0.0,0.0,0.0,0.0,0.0,0.0,0.0,0.0,0.0,0.0,0.0,0.0,0.0,0.0,0.0,0.0,0.0,0.0,0.0,0.0,0.0,0.0,0.0,0.0,0.0,0.0,0.0,0.0,0.0,0.0,0.0,0.0,0.0,0.0,0.0,0.0,0.0,0.0,0.0,0.0,0.0,0.0,0.0,0.0,0.0,0.0,0.0,0.0,0.0,0.0,0.0,0.0,0.0,0.0,0.0,0.0,0.0,0.0,0.0,0.0,0.0,0.0,0.0,0.0,0.0,0.0,0.0,0.0,0.0,0.0,0.0,0.0,0.0,0.0,0.0,0.0,0.0,0.0,0.0,0.0,0.0,0.0,0.0,0.0,0.0,0.0,0.0,0.0,0.0,0.0,0.0,0.0,0.0,0.0,0.0,0.0,0.0,0.0,0.0,0.0,0.0,0.0,0.0,0.0,0.0,0.0,0.0,0.0,0.0,0.0,0.0,0.0,0.0,0.0,0.0,0.0,0.0,0.0,0.0,0.0,0.0,0.0,0.0,0.0,0.0,0.0,0.0,0.0,0.0,0.0,0.0,0.0,0.0,0.0,0.0,0.0,0.0,0.0,0.0,0.0,0.0,0.0,0.0,0.0,0.0,0.0,0.0,0.0,0.0,0.0,0.0,0.0,0.0,0.0,0.0,0.0,0.0,0.0,0.0,0.0,0.0,0.0,0.0,0.0,0.0,0.0,0.0,0.0,0.0,0.0,0.0,0.0,0.0,0.0,0.0,0.0,0.0,0.0,0.0,0.0,0.0,0.0,0.0,0.0,0.0,0.0,0.0,0.0,0.0,0.0,0.0,0.0,0.0,0.0,0.0,0.0,0.0,0.0,3.243,3.2283,0.0,0.0,0.0,0.0,0.0,0.0,0.0,0.0,0.0,0.0,0.0,0.0,0.0,0.0,0.0,0.0,0.0,0.0,0.0,0.0,0.0,0.0,0.0,0.0,0.0,0.0,0.0,0.0,0.0,0.0,0.0,0.0,0.0,0.0,0.0,0.0,0.0,0.0,3.2593,3.2343,3.1865,3.1681,3.122,3.0495,0.0,0.0,0.0,0.0,0.0,0.0,0.0,0.0,0.0,0.0,0.0,0.0,0.0,0.0,0.0,0.0,0.0,0.0,0.0,0.0,0.0,0.0,0.0,0.0,0.0,0.0,0.0,0.0,0.0,0.0,0.0,0.0,0.0,0.0,0.0,0.0,0.0,0.0,0.0,0.0,0.0,0.0,0.0,0.0,0.0,0.0,0.0,0.0,0.0,0.0,0.0,0.0,0.0,0.0,0.0,0.0,0.0,0.0,0.0,0.0,0.0,0.0,0.0,0.0,0.0,0.0,0.0,0.0,0.0,0.0,3.4223,3.3872,0.0,0.0,0.0,0.0,0.0,0.0,0.0,0.0,0.0,0.0,0.0,0.0,0.0,0.0,0.0,0.0,0.0,0.0,0.0,0.0,0.0,0.0,0.0,3.2593,3.2593,3.2593,3.2735,3.277,0.0,0.0,0.0,0.0,0.0,0.0,0.0,3.3115,3.3115,3.3115,3.3058,3.3008,3.3008,3.3692,3.3321,3.2051,3.2563,0.0,0.0,0.0,0.0,0.0,0.0,0.0,0.0,0.0,0.0,0.0,0.0,0.0,0.0,0.0,0.0,0.0,0.0,0.0,0.0,0.0,0.0,0.0,0.0,0.0,0.0,0.0,0.0,0.0,0.0,0.0,0.0,0.0,0.0,0.0,0.0,0.0,0.0,0.0,0.0,0.0,0.0,0.0,0.0,0.0,0.0,0.0,0.0,0.0,0.0,0.0,0.0,0.0,0.0,0.0,0.0,0.0,0.0,0.0,0.0,0.0,0.0,0.0,3.6181,3.6599,3.7211,3.7292,3.7343,3.7313,3.6319,3.5562,3.4951,3.4399,0.0,0.0,0.0,0.0,0.0,0.0,0.0,0.0,0.0,0.0,0.0,0.0,0.0,0.0,0.0,0.0,0.0,0.0,0.0,0.0,0.0,3.2593,3.2593,3.2593,3.3359,3.3463,3.2629,0.0,0.0,0.0,0.0,0.0,3.51,3.51,3.51,3.51,3.483,3.4679,3.4708,3.5375,3.5597,3.5303,3.4052,3.3735,3.4093,0.0,0.0,0.0,0.0,0.0,0.0,0.0,0.0,0.0,0.0,0.0,0.0,0.0,0.0,0.0,0.0,0.0,0.0,0.0,0.0,0.0,0.0,0.0,0.0,0.0,0.0,0.0,0.0,0.0,0.0,0.0,0.0,0.0,0.0,0.0,0.0,0.0,0.0,0.0,0.0,0.0,3.5504,3.6028,0.0,0.0,0.0,0.0,0.0,0.0,0.0,0.0,0.0,0.0,0.0,0.0,0.0,3.608,3.7719,3.7147,3.7224,3.7911,3.8865,3.9734,4.0436,4.0868,4.1114,4.1087,4.0923,0.0,3.6153,3.5508,0.0,0.0,0.0,0.0,0.0,0.0,0.0,0.0,0.0,0.0,0.0,0.0,0.0,0.0,0.0,0.0,0.0,0.0,0.0,0.0,0.0,3.424,3.424,3.424,3.4639,3.4673,3.4274,3.5034,0.0,0.0,0.0,3.5519,3.5519,3.5519,3.5699,3.6058,3.6255,3.6345,3.6374,3.7441,3.7912,3.7876,3.7157,3.6108,3.4831,3.4512,0.0,0.0,0.0,0.0,0.0,0.0,0.0,0.0,0.0,0.0,0.0,0.0,0.0,0.0,0.0,0.0,0.0,0.0,0.0,0.0,0.0,0.0,0.0,0.0,0.0,0.0,0.0,0.0,0.0,0.0,0.0,0.0,0.0,0.0,0.0,0.0,0.0,0.0,0.0,3.583,3.6659,3.5981,3.6866,3.6719,0.0,0.0,0.0,0.0,0.0,0.0,0.0,0.0,0.0,3.8994,3.8747,3.8998,3.9823,3.9784,4.0133,4.0767,4.1237,4.1816,4.2408,4.2657,4.2796,4.2796,4.2796,4.1887,4.026,3.869,3.7892,3.7616,0.0,0.0,0.0,0.0,3.628,3.6334,0.0,0.0,0.0,0.0,0.0,0.0,0.0,0.0,0.0,0.0,0.0,0.0,3.5424,3.5519,3.5519,3.5519,3.5519,3.5519,3.5519,3.5519,3.5519,3.5519,3.5519,3.5519,3.5519,3.5669,3.5998,3.6477,3.7285,3.7674,3.7704,3.905,3.9679,3.9679,3.9858,3.8602,3.637,3.5811,3.4934,3.3783,0.0,0.0,0.0,0.0,0.0,0.0,0.0,0.0,0.0,0.0,0.0,0.0,0.0,0.0,0.0,0.0,0.0,0.0,0.0,0.0,0.0,0.0,0.0,0.0,0.0,0.0,0.0,0.0,0.0,0.0,0.0,0.0,0.0,0.0,0.0,0.0,0.0,3.7985,3.8836,3.7217,3.9433,3.9641,0.0,0.0,0.0,0.0,0.0,0.0,4.0356,4.0594,4.0864,4.1293,4.153,4.182,4.2132,4.222,4.2647,4.3398,4.3398,4.376,4.4442,4.4442,4.4442,4.4442,4.4442,4.4442,4.4301,4.1736,4.0487,4.0099,3.9046,3.8478,3.8228,3.8516,3.8598,3.8639,0.0,0.0,0.0,0.0,0.0,0.0,0.0,0.0,0.0,0.0,0.0,3.5424,3.5519,3.5519,3.5519,3.5519,3.5519,3.5519,3.5519,3.5519,3.5519,3.5519,3.5519,3.5519,3.5519,3.6118,3.6447,3.6477,3.7734,3.8332,3.8362,3.9709,4.0337,4.0367,4.0995,4.0876,3.9994,3.8083,3.7212,3.7058,3.5836,0.0,0.0,0.0,0.0,0.0,0.0,0.0,0.0,0.0,0.0,0.0,0.0,0.0,0.0,0.0,0.0,0.0,0.0,0.0,0.0,0.0,0.0,0.0,0.0,0.0,0.0,0.0,0.0,0.0,0.0,0.0,0.0,0.0,0.0,0.0,0.0,0.0,0.0,4.1379,4.3191,0.0,0.0,0.0,0.0,4.0062,4.0105,4.0383,4.0924,4.1535,4.2688,4.4338,4.3778,4.4041,4.5154,4.4004,4.4032,4.5269,4.5269,4.5884,4.7106,4.7106,4.7106,4.7106,4.7106,4.7106,4.6872,4.3817,4.1854,4.0675,4.0126,3.9227,3.8352,3.9327,3.9715,3.9873,0.0,0.0,0.0,0.0,0.0,0.0,0.0,0.0,3.4245,3.4872,3.5294,3.5519,3.5519,3.5519,3.5519,3.5519,3.5519,3.5686,3.6165,3.6196,3.6446,3.6966,3.6996,3.7214,3.7683,3.7372,3.7667,3.8558,3.8852,3.905,3.908,4.0846,4.1482,4.1055,4.1752,4.1931,4.1572,3.9559,3.8452,3.7913,3.6656,3.6118,0.0,0.0,0.0,0.0,0.0,0.0,0.0,0.0,0.0,0.0,0.0,0.0,0.0,0.0,0.0,0.0,0.0,0.0,0.0,0.0,0.0,0.0,0.0,0.0,0.0,0.0,0.0,0.0,0.0,0.0,0.0,0.0,0.0,0.0,0.0,0.0,0.0,4.4379,4.6904,0.0,4.3761,4.4821,4.52,4.3872,4.4792,4.5669,4.6312,4.6576,4.6945,4.7614,4.6958,4.7046,4.7924,4.662,4.6371,4.7259,4.6845,4.6887,4.7309,4.7309,4.7309,4.7309,4.7309,4.7309,4.7193,4.6109,4.5157,4.421,4.3173,4.2502,4.2117,4.2059,4.2031,4.211,0.0,0.0,0.0,0.0,0.0,0.0,0.0,0.0,3.4773,3.5392,3.5519,3.5519,3.5519,3.5519,3.5519,3.5519,3.5718,3.6101,3.6569,3.6843,3.7233,3.7793,3.8046,3.8395,3.8873,3.8807,3.9345,4.0507,4.0619,4.0593,4.0576,4.2122,4.2485,4.1782,4.2402,4.2671,4.2581,4.1055,3.9888,3.899,3.7913,3.7464,3.7315,0.0,0.0,0.0,0.0,0.0,0.0,0.0,0.0,0.0,0.0,0.0,0.0,0.0,0.0,0.0,0.0,0.0,0.0,0.0,0.0,0.0,0.0,0.0,0.0,0.0,0.0,0.0,0.0,0.0,0.0,0.0,0.0,0.0,0.0,4.6301,4.8211,4.7119,4.9985,5.0656,4.7042,4.8479,4.9042,4.7649,4.8624,4.9374,4.9583,4.9823,4.9733,4.9329,4.9045,4.9045,4.9299,4.8386,4.8177,4.8626,4.8177,4.7967,4.7967,4.7728,4.7638,4.7608,4.7399,4.7309,4.7309,4.7309,4.704,4.6561,4.5424,4.4706,4.4257,4.3798,4.3469,4.329,0.0,0.0,0.0,0.0,0.0,0.0,0.0,3.4839,3.5457,3.5519,3.5519,3.5519,3.5519,3.5519,3.5519,3.5522,3.6196,3.66,3.6661,3.7381,3.7851,3.7911,3.8611,3.9026,3.909,4.0408,4.1435,4.2205,4.288,4.3053,4.2843,4.3521,4.3308,4.2479,4.303,4.329,4.326,4.2671,4.1692,4.0427,3.9738,3.9439,3.932,0.0,0.0,0.0,0.0,0.0,0.0,0.0,0.0,0.0,0.0,0.0,0.0,0.0,0.0,0.0,0.0,0.0,0.0,0.0,0.0,0.0,0.0,0.0,0.0,0.0,0.0,0.0,0.0,0.0,0.0,0.0,0.0,0.0,4.7399,4.9643,5.084,4.9659,5.2306,5.3234,5.0614,5.1558,5.2007,5.1319,5.1289,5.102,5.0315,5.0853,5.0661,4.9449,4.9942,4.9942,4.9389,4.9329,4.9329,4.9329,4.9299,4.9269,4.9269,4.8566,4.8267,4.8207,4.7578,4.7309,4.7309,4.7309,4.7309,4.7249,4.6561,4.5442,4.4347,4.4287,4.3858,4.329,0.0,0.0,0.0,0.0,0.0,0.0,3.3739,3.4245,3.4677,3.5392,3.5519,3.5519,3.5519,3.5519,3.5718,3.6259,3.6477,3.7053,3.8185,3.8497,3.9117,4.0194,4.0454,4.1349,4.3008,4.2795,4.3311,4.4554,4.4591,4.4347,4.3854,4.4309,4.4143,4.3383,4.3313,4.329,4.329,4.315,4.2851,4.2333,4.0786,4.0127,4.0038,0.0,0.0,0.0,0.0,0.0,0.0,0.0,0.0,0.0,0.0,0.0,0.0,0.0,0.0,0.0,0.0,0.0,0.0,0.0,0.0,0.0,0.0,0.0,0.0,0.0,0.0,0.0,0.0,0.0,0.0,0.0,4.8237,4.9972,4.9448,5.1708,5.3443,5.3563,5.479,5.5149,5.3952,5.4162,5.3892,5.2725,5.3114,5.3084,5.2396,5.2097,5.1768,5.1409,5.0631,5.0345,5.069,4.9733,4.9494,4.9942,4.9015,4.8566,4.8536,4.7878,4.7578,4.7549,4.7369,4.7309,4.7309,4.7309,4.7309,4.7189,4.6022,4.5364,4.4915,4.3917,4.3439,4.323,0.0,0.0,0.0,0.0,0.0,0.0,3.3705,3.3979,3.4346,3.5359,3.5519,3.5519,3.5519,3.5519,3.5653,3.6102,3.6753,3.7499,3.8386,3.9313,4.028,4.1144,4.2117,4.3234,4.4581,4.4696,4.5357,4.6491,4.6385,4.6094,4.5632,4.5469,4.4971,4.4186,4.3551,4.329,4.329,4.329,4.3439,4.3589,4.2192,4.1803,4.1953,4.0995,4.0666,4.0576,3.9888,3.9978,4.0277,3.9499,0.0,0.0,0.0,0.0,0.0,0.0,0.0,0.0,0.0,0.0,0.0,0.0,0.0,0.0,0.0,0.0,0.0,0.0,0.0,0.0,0.0,0.0,0.0,0.0,5.069,5.2546,5.2695,5.3832,5.485,5.5538,5.5927,5.6017,5.5658,5.5598,5.5269,5.4491,5.4551,5.4311,5.3653,5.3234,5.2905,5.2606,5.1858,5.1648,5.2037,5.102,5.069,5.105,5.0002,4.9523,4.9494,4.8566,4.8117,4.8087,4.7549,4.7309,4.7309,4.7309,4.7309,4.7219,0.0,0.0,0.0,0.0,4.329,4.32,0.0,0.0,0.0,0.0,0.0,0.0,3.3316,3.3659,3.4095,3.5109,3.5394,3.5519,3.5519,3.5519,3.5522,3.5619,3.6874,3.7738,3.7889,3.9918,4.1141,4.1309,4.3341,4.4547,4.4716,4.6007,4.709,4.7906,4.7906,4.784,4.7737,4.6696,4.5778,4.4924,4.381,4.3319,4.3409,4.3409,4.3798,4.4377,4.3738,4.3858,4.4287,4.3099,4.268,4.265,4.1991,4.1444,4.1055,4.0905,0.0,0.0,0.0,0.0,0.0,0.0,0.0,0.0,0.0,0.0,0.0,0.0,0.0,0.0,0.0,0.0,0.0,0.0,0.0,0.0,0.0,0.0,0.0,0.0,5.3234,5.5059,5.6226,5.5957,5.5777,5.6226,5.6286,5.6286,5.6286,5.6346,5.6316,5.6248,5.5688,5.5089,5.4371,5.4251,0.0,0.0,0.0,5.3174,5.3174,5.2546,5.2187,5.2187,5.1439,5.1079,5.096,4.9733,4.9179,4.903,4.7818,4.7309,4.7309,4.7309,4.7309,4.7279,4.713,4.6262,4.4915,4.3738,4.3369,4.3367,0.0,0.0,0.0,0.0,0.0,0.0,0.0,3.1763,3.2563,3.3525,3.4741,3.5519,3.5519,3.5519,3.5718,3.6322,3.6661,3.7335,3.8533,3.9678,4.0807,4.1943,4.3037,4.4215,4.5466,4.5771,4.6583,4.7906,4.7906,4.8183,4.8671,4.7002,4.6103,4.5854,4.409,4.3589,4.4137,4.4137,4.4496,4.5095,4.4975,4.4975,4.5005,4.4227,4.4257,4.4646,4.3988,4.4377,4.5005,4.3928,4.3898,4.4227,4.3569,4.2961,0.0,0.0,0.0,0.0,0.0,0.0,0.0,0.0,0.0,0.0,0.0,0.0,0.0,0.0,0.0,0.0,0.0,0.0,0.0,5.2516,5.5359,5.7453,5.7723,5.8082,5.7992,5.7034,5.6915,5.6915,5.6915,5.7423,5.7304,5.6308,5.6526,5.6226,5.5059,5.4491,5.4162,5.4012,5.3473,5.3174,5.3174,5.2546,5.2187,5.2187,5.0943,0.0,4.9613,4.8835,4.8177,4.7668,4.7429,4.7309,4.7309,4.7309,4.7309,4.7189,4.6112,4.4885,4.3648,4.3379,4.381,4.4326,0.0,0.0,0.0,0.0,0.0,0.0,0.0,3.0333,3.1247,3.2967,3.3871,3.4617,3.5427,3.5519,3.5651,3.6038,3.6384,3.7247,3.8695,3.9551,4.0674,4.214,4.3311,4.4457,4.5669,4.6075,4.6786,4.7906,4.7906,4.8277,4.8954,4.7104,4.6208,4.6103,4.4174,4.3648,4.4317,4.4317,4.4706,4.5304,4.5304,4.5514,4.5783,4.5454,4.5514,4.5813,4.5813,4.6022,4.6262,4.5933,4.6022,4.6232,4.5933,4.5574,4.5065,0.0,0.0,0.0,0.0,0.0,0.0,0.0,0.0,0.0,0.0,0.0,0.0,0.0,0.0,4.8551,4.9583,0.0,5.3234,5.488,5.7094,5.874,5.9069,5.9697,5.9488,5.7812,5.7603,5.7603,5.7603,5.7932,5.7842,5.7184,5.7124,5.6675,5.5718,5.5359,5.5029,5.47,5.4371,5.4042,5.3683,5.3025,5.2516,5.2187,5.0823,5.0016,4.9733,4.8745,4.8117,4.7788,4.7459,4.7309,4.7309,4.7309,4.689,4.6274,4.6092,4.5595,4.4926,4.4287,4.4668,4.5299,0.0,0.0,0.0,0.0,0.0,0.0,0.0,2.9223,3.005,3.207,3.2687,3.3401,3.4718,3.505,3.5234,3.531,3.5856,3.6816,3.8273,3.9183,4.0346,4.1827,4.3215,4.4238,4.4968,4.5567,4.6237,4.6974,4.7108,4.7512,4.8216,4.6664,4.5957,4.5818,4.409,4.3648,4.4317,4.4436,4.4885,4.5514,4.5633,4.6022,4.6459,4.6459,4.6459,4.6591,4.713,4.695,4.6591,4.713,4.7399,4.7489,4.7489,4.7578,4.7309,4.5454,4.5574,0.0,0.0,0.0,0.0,0.0,0.0,0.0,0.0,4.8267,4.8835,5.0198,5.093,5.1917,5.3623,5.461,5.5718,5.7393,5.88,5.9817,6.0236,6.0864,6.0655,5.8919,5.859,5.8501,5.8501,5.8381,5.8261,5.8141,5.7603,5.7034,5.6428,5.6226,5.5927,5.5388,5.5269,5.494,5.4401,5.3593,5.2905,5.2366,5.0883,5.0136,5.0002,4.8835,4.8207,4.8101,4.7735,4.7495,4.7352,4.7722,4.7003,4.5788,4.6652,4.6998,4.6842,4.5541,4.567,4.6293,0.0,0.0,0.0,0.0,0.0,0.0,0.0,0.0,2.8883,2.9174,3.0808,3.2095,3.2526,3.3545,3.4309,3.462,3.4718,3.5292,3.6685,3.8046,3.9431,4.0807,4.1755,4.2302,4.2397,4.2494,4.288,4.3654,4.4234,4.4911,4.562,4.5169,4.4962,4.4924,4.381,4.3648,4.4347,4.4945,4.5574,4.6262,4.686,4.713,4.7189,4.7189,4.7189,4.7219,4.7279,4.7249,4.7219,4.7279,4.7698,4.8177,4.8177,4.8566,4.882,4.7369,4.6651,4.6142,4.5304,4.5633,4.677,4.906,4.9374,4.9988,0.0,5.3324,5.2905,5.4251,5.5059,5.5748,5.6526,5.7693,5.883,5.9608,6.0894,6.1583,6.1074,6.1583,6.1672,6.0864,6.0236,5.9877,5.9877,5.9338,5.874,5.8118,5.8052,5.7723,5.7034,5.6466,5.6188,5.6128,5.5508,5.5149,5.5089,5.3803,5.3144,5.3054,5.1139,4.9942,4.9389,4.8626,4.7967,4.7442,4.8282,4.8157,4.7409,4.9287,4.887,4.7164,4.7847,4.8063,4.7797,4.6506,4.6627,4.7341,0.0,0.0,0.0,0.0,0.0,0.0,0.0,0.0,0.0,2.8588,2.9449,3.0385,3.1396,3.2749,3.3951,3.4976,3.507,3.5639,3.6926,3.7597,3.8763,4.0628,4.1062,4.1462,4.2013,4.1981,4.2525,4.3679,4.3965,4.4669,4.5792,4.5138,4.4812,4.4737,4.4155,4.4257,4.4915,4.5603,4.6052,4.6339,4.704,4.707,4.677,4.716,4.707,4.6741,4.6741,4.6741,0.0,4.7189,4.7489,4.7848,4.8626,4.882,4.8506,4.7578,4.7369,4.7399,4.71,4.8087,4.9344,5.0016,5.1199,5.2576,5.4251,5.479,5.5299,5.6615,5.7723,5.865,5.9308,5.9907,6.0356,6.0655,6.1493,6.2002,6.1732,6.2241,6.2421,6.1762,6.1433,6.0954,6.0176,5.9488,5.8979,5.871,5.871,5.8411,5.7723,5.7064,5.6526,5.6248,5.5149,5.461,5.461,5.3294,5.2606,5.2576,5.0601,4.9523,4.9269,4.8177,4.7578,4.7352,4.8377,4.8553,4.8293,4.9773,4.967,4.8568,4.8965,4.8855,4.8334,4.736,4.7638,4.8318,0.0,0.0,0.0,0.0,0.0,0.0,0.0,0.0,0.0,0.0,2.8229,2.894,3.0624,3.1696,3.2799,3.4087,3.4292,3.4866,3.6141,3.6641,3.7831,3.9975,4.0071,4.047,4.1262,4.1484,4.2082,4.3088,4.3466,4.4157,4.5169,4.4644,4.4396,4.4389,4.4338,4.4586,4.5095,4.5963,4.6279,4.6339,4.704,4.701,4.6621,4.692,4.6621,4.6052,4.6219,4.6202,4.6082,4.6381,4.6741,4.713,4.7728,4.7967,4.7878,4.7219,4.7489,4.8027,4.8027,4.9434,5.096,5.0973,5.2905,5.485,5.5209,5.6316,5.7573,5.871,5.9847,6.0864,6.1523,6.1642,6.1642,6.1642,6.2061,6.2361,6.2361,6.263,6.263,6.2151,6.1613,6.1044,6.0416,5.9937,5.9578,5.9398,5.9368,5.9099,5.8441,5.7573,5.6885,5.6436,5.5149,5.4491,5.4491,5.3144,5.2486,5.2456,5.0347,4.9299,4.9269,4.7908,4.7452,4.7764,4.88,4.9256,4.9336,5.0703,5.051,4.9432,4.9939,4.9523,4.8627,4.8133,4.8418,4.8917,0.0,0.0,0.0,0.0,0.0,0.0,0.0,0.0,0.0,0.0,0.0,0.0,0.0,3.0086,3.019,3.0865,3.118,3.189,3.3256,3.4738,3.6417,3.8367,3.8492,3.8792,3.9481,4.0111,4.0471,4.0501,4.1798,4.2458,4.2518,4.3069,4.3329,4.3359,4.4018,4.4317,4.4436,4.5753,4.6279,4.6339,4.704,4.7309,4.7219,4.6591,4.5933,4.5424,4.6082,4.5903,4.5214,4.4616,4.5274,4.61,4.4855,4.5783,4.7219,4.6561,4.683,4.7339,4.7339,4.8775,5.0674,5.2606,5.461,5.6436,5.7723,5.9009,6.0176,6.0894,6.1553,6.2241,6.2899,6.3019,6.3019,6.3019,6.3049,6.3049,6.3049,6.251,6.2121,6.2091,6.0386,5.9697,6.0954,6.1074,6.0775,6.0116,6.0057,5.9757,5.9099,5.7812,5.7094,5.7064,5.5837,5.5149,5.5149,5.3832,5.3144,5.3114,5.0557,4.9299,4.9269,4.7908,4.7849,4.881,4.9891,5.0358,5.0512,5.2557,5.1775,4.9427,5.0659,5.0092,4.8627,4.8845,4.8987,4.9018,0.0,0.0,0.0,0.0,0.0,0.0,0.0,0.0,0.0,0.0,0.0,0.0,0.0,0.0,0.0,0.0,3.1551,3.1977,3.2882,3.3413,3.4355,3.5809,3.6228,3.6868,3.7791,3.8368,3.9459,4.1055,4.1542,4.2162,4.3,4.32,4.329,4.3349,4.4466,4.4975,4.5065,4.6411,4.7219,4.7578,4.692,4.7189,4.7788,4.6232,4.5214,4.4556,0.0,4.3579,4.3279,4.2581,4.324,4.4398,4.5026,4.5263,4.5398,4.5788,4.6596,4.7499,4.8578,5.0214,5.1917,5.3473,5.5029,5.6526,5.7812,5.9129,6.0146,6.0386,6.0266,6.0176,6.0386,6.0086,6.0086,6.0954,6.1852,6.257,6.3019,6.2899,6.2421,6.1553,6.1224,6.1104,6.1104,6.0296,5.9877,6.0057,6.0505,6.0296,5.9159,5.8261,5.7573,5.7094,5.5418,5.4551,5.4551,5.3204,5.2546,5.2516,5.0347,4.8805,4.7967,4.7519,4.7849,4.8882,4.9931,5.0779,5.1455,5.2335,5.2135,5.1257,5.0687,5.0113,4.9551,4.9131,4.9018,4.9018,0.0,0.0,0.0,0.0,0.0,0.0,0.0,0.0,0.0,0.0,0.0,0.0,0.0,0.0,0.0,0.0,0.0,3.1237,3.19,3.2211,3.2913,3.4168,3.4547,3.518,3.6114,3.6703,3.7758,3.9311,3.9779,4.0383,4.12,4.1598,4.1762,4.182,4.3102,4.3685,4.3743,4.4865,4.5566,4.5855,4.5263,4.5476,4.6022,4.4736,4.3988,0.0,4.1863,4.1474,4.1602,4.0905,4.1564,4.2788,4.3564,4.4112,4.4713,4.5939,4.7269,4.8758,5.0289,5.1757,5.3183,5.4789,5.5682,5.6526,5.7812,5.8949,5.9727,5.9727,5.9219,5.868,5.8441,5.7872,5.7782,5.883,5.9937,6.1074,6.2211,6.1972,6.1523,6.1164,6.1074,6.0954,6.0775,5.9967,5.9727,6.0416,6.0625,6.0266,5.9159,5.8471,5.7812,5.7124,5.5688,5.479,5.4551,5.3234,5.2067,5.1139,4.9928,4.8787,4.7849,4.7849,4.8594,4.9938,5.0627,5.1521,5.2455,5.2371,5.2131,5.1792,5.0574,4.9932,4.9627,4.9187,4.9018,4.9018,0.0,0.0,0.0,0.0,0.0,0.0,0.0,0.0,0.0,0.0,0.0,0.0,0.0,0.0,0.0,0.0,0.0,0.0,3.0286,3.1037,3.2058,3.3321,3.3404,3.3781,3.4463,3.5149,3.552,3.5586,3.6726,3.731,3.7365,3.8408,3.8892,3.8948,4.0138,4.0664,4.0747,4.1401,4.1631,4.1603,4.2234,4.245,4.2363,4.241,4.2381,4.2111,4.0187,3.9888,4.0307,3.9649,4.0374,4.146,4.0823,4.2582,4.5217,4.688,4.8861,5.0774,5.234,5.3386,5.4512,5.6495,5.6572,5.6466,5.7723,5.8501,5.8949,5.8919,5.8321,5.7603,5.7019,5.6449,5.638,5.7122,5.7933,5.9165,6.1147,6.0251,5.9867,6.1126,6.0082,5.9488,6.0116,6.0116,6.0386,6.1104,6.0565,5.9877,5.9189,5.856,5.7872,5.7124,5.6496,5.5837,5.5149,5.3803,5.1828,4.9299,4.9299,4.9078,4.8718,4.88,4.9899,5.1849,5.1885,5.2522,5.345,5.2604,5.1826,5.115,5.0338,4.9627,4.9018,4.9018,4.9018,4.9018,0.0,0.0,0.0,0.0,0.0,0.0,0.0,0.0,0.0,0.0,0.0,0.0,0.0,0.0,0.0,0.0,0.0,0.0,2.9274,2.946,2.9954,3.0713,3.1151,3.1823,3.2771,3.3361,3.4299,3.5586,3.5892,3.632,3.6805,3.7071,3.7211,3.7238,3.799,3.8574,3.9075,3.9715,4.0264,4.0647,4.1076,4.157,4.2023,4.2287,4.2081,4.1602,4.1055,4.0666,4.0307,3.9649,4.1425,4.3853,4.3446,4.4643,4.6547,4.8349,4.9836,5.1556,5.4428,5.5325,5.569,5.6712,5.6206,5.5658,5.6496,5.6795,5.6765,5.6286,5.488,5.3717,5.3849,5.4728,5.6184,5.8719,6.1474,6.3854,6.5397,6.4466,6.3517,6.3333,6.2133,6.1403,6.1553,6.0685,6.0565,6.1762,6.1672,6.1074,5.9907,5.9668,5.883,5.7154,5.6496,5.5628,5.4461,5.3114,5.1379,4.9299,4.9299,4.8743,4.7722,4.846,4.9536,5.0817,5.1561,5.2522,5.3416,5.2063,5.1386,5.1082,4.9796,4.9187,4.9018,4.9018,4.9018,4.9018,0.0,0.0,0.0,0.0,0.0,0.0,0.0,0.0,0.0,0.0,0.0,0.0,0.0,0.0,0.0,0.0,0.0,0.0,0.0,2.9302,2.9453,2.9779,3.008,3.0544,3.1138,3.1448,3.2045,3.3058,3.3298,3.3592,3.3979,3.446,3.466,3.4687,3.5315,3.5743,3.6117,3.6507,3.6761,0.0,0.0,3.858,3.9441,4.0431,4.1071,4.1422,4.1422,4.1504,4.1683,4.1594,4.3089,4.5157,4.5971,4.6854,4.8062,5.039,5.1548,5.2681,5.5536,5.6125,5.6123,5.6805,5.6085,5.5209,5.5299,5.5299,5.5029,5.4072,5.2868,5.2002,5.1938,5.3603,5.5695,5.8128,6.1195,6.3866,6.5215,6.4464,6.3657,6.325,6.254,6.1972,6.1702,6.1253,6.1283,6.2032,6.1283,6.0565,6.0116,5.9817,5.886,5.7154,5.6765,5.5658,5.3773,5.2725,5.1199,4.9299,4.9299,4.8802,4.7988,4.9044,5.0087,5.1117,5.217,5.2939,5.3382,5.186,5.1185,5.1082,4.9593,4.9018,4.9018,4.9018,4.9018,4.9018,0.0,0.0,0.0,0.0,0.0,0.0,0.0,0.0,0.0,0.0,0.0,0.0,0.0,0.0,0.0,0.0,0.0,0.0,0.0,0.0,2.9804,2.9804,2.9804,2.9804,2.9804,2.9804,2.9804,2.9804,3.0281,3.0507,3.0532,3.1461,3.1888,3.1913,3.2416,3.2692,3.2742,3.2742,3.2679,3.2633,3.4029,3.4971,3.5825,0.0,3.9605,4.1113,4.1406,4.2342,4.3559,4.4436,4.5155,4.607,4.8129,4.8901,4.9603,5.2461,5.3396,5.3988,5.6069,5.6392,5.6231,5.6836,5.6024,5.488,5.4221,5.3952,5.3414,5.2097,5.1562,5.1228,5.0816,5.2702,5.5056,5.7183,5.9588,6.187,6.366,6.3131,6.2571,6.2483,6.2325,6.2002,6.1433,6.1822,6.2091,6.2091,6.0326,5.9518,6.0176,5.9518,5.8411,5.6885,5.6765,5.5538,5.3084,5.2396,5.1139,4.9299,4.9209,4.9031,4.8841,4.9931,5.093,5.1957,5.3041,5.3518,5.3382,5.186,5.1185,5.1082,4.9593,4.9018,4.9018,4.9018,4.9018,4.9018,0.0,0.0,0.0,0.0,0.0,0.0,0.0,0.0,0.0,0.0,2.4837,2.5442,0.0,0.0,0.0,0.0,0.0,0.0,0.0,0.0,0.0,2.9804,2.9804,2.9804,2.9804,2.9804,2.9804,2.9804,2.988,2.993,2.993,3.0131,3.0206,3.0206,3.0306,3.0608,3.1035,3.1035,3.0989,3.1153,3.3143,3.3794,3.3796,3.646,0.0,0.0,4.1504,4.303,4.4407,4.6202,4.7219,4.7951,4.8878,4.9915,5.1167,5.3169,5.4224,5.5104,5.7,5.713,5.6836,5.696,5.5688,5.4192,5.3503,5.2516,5.1379,5.0062,4.9344,4.923,5.0279,5.1651,5.4581,6.0465,6.171,6.3385,6.7574,6.6099,6.4568,6.4573,6.3637,6.2869,6.275,6.2361,6.2091,6.2091,6.0745,6.0206,6.0894,5.9787,5.7992,5.5598,5.4999,5.3952,5.2396,5.1708,5.069,4.9299,4.876,4.8607,4.8841,4.9931,5.093,5.1957,5.3041,5.3518,5.3382,5.186,5.1185,5.1082,4.9593,4.9018,4.9018,4.9018,4.9018,4.9018,0.0,0.0,0.0,0.0,0.0,0.0,0.0,2.1758,2.2239,2.318,2.3324,2.4138,2.6251,2.7441,2.8084,0.0,0.0,0.0,0.0,0.0,0.0,0.0,2.9804,2.9804,2.9804,2.9804,2.9804,2.9804,0.0,2.9804,2.9804,2.9804,2.9804,2.9804,2.9804,2.993,3.0181,3.0181,3.0357,3.0723,3.2045,3.2918,3.3635,0.0,0.0,0.0,4.2139,4.3479,4.4526,4.5813,4.716,4.8566,5.0272,5.099,5.1503,5.3078,5.3753,5.4338,5.5532,5.6002,5.6035,5.6035,5.5137,5.3862,5.2486,5.1409,5.0242,4.8596,4.8417,4.8954,5.0151,5.1804,5.437,5.8574,6.003,6.1638,6.4589,6.4223,6.3695,6.4031,6.3478,6.3079,6.3079,6.278,6.248,6.2121,6.1194,6.0475,6.0086,5.8471,5.6855,5.5239,5.4192,5.3204,5.2217,5.1199,5.0456,5.0053,4.9382,4.9273,4.9655,5.0703,5.1414,5.1957,5.3041,5.3518,5.3382,5.186,5.1185,5.1082,4.9593,4.9018,4.9018,4.9018,4.9018,4.9018,0.0,0.0,0.0,0.0,0.0,0.0,0.0,2.2031,2.2168,2.2598,2.2656,2.3438,2.5525,2.6748,2.7377,0.0,0.0,0.0,0.0,0.0,0.0,0.0,0.0,0.0,2.9804,0.0,0.0,2.9804,2.9905,0.0,0.0,0.0,0.0,0.0,2.9804,2.9804,2.9804,2.9804,3.0105,0.0,0.0,3.2398,0.0,0.0,0.0,0.0,0.0,4.3458,4.4227,4.5035,4.6352,4.8057,5.0421,5.1169,5.1439,5.2456,5.2965,5.3294,5.3832,5.4581,5.5179,5.5179,5.4581,5.3503,5.1648,5.0554,4.9523,4.7668,4.7904,4.8882,5.0165,5.1463,5.3213,5.5961,5.7339,5.8741,6.0702,6.1629,6.2288,6.2802,6.2989,6.3079,6.3079,6.2959,6.26,6.1942,6.0864,5.9787,5.874,5.6944,5.5598,5.479,5.3593,5.2665,5.2007,5.0892,5.0512,5.0812,5.0227,5.0231,5.0741,5.1525,5.2029,5.2277,5.3144,5.3416,5.3145,5.1792,5.1116,5.0845,4.9526,4.9018,4.9018,4.9018,4.9018,4.9018,0.0,0.0,0.0,0.0,0.0,0.0,0.0,2.2461,2.2598,2.2984,2.3042,2.3129,2.3387,2.4425,2.5126,0.0,0.0,0.0,0.0,0.0,0.0,0.0,0.0,0.0,0.0,0.0,0.0,2.9804,3.0306,0.0,0.0,0.0,0.0,0.0,0.0,2.9804,2.9804,2.9804,0.0,0.0,0.0,0.0,0.0,0.0,0.0,0.0,0.0,4.2456,4.3589,4.4855,4.5424,4.5813,4.7309,4.9344,5.1229,5.1379,5.2247,5.3204,5.3264,5.4221,5.5179,5.5179,5.4221,5.2905,5.1528,5.0242,4.9,4.7578,4.7366,4.803,5.0009,4.8996,4.9777,5.5464,5.5282,5.5751,5.9762,6.1186,6.1921,6.2171,6.272,6.3079,6.3079,6.254,6.1912,6.1253,5.889,5.7423,5.7274,5.6017,5.47,5.3414,5.2665,5.1977,5.1319,5.0947,5.0746,5.0812,5.05,5.0843,5.1776,5.1849,5.2418,5.3348,5.3484,5.3078,5.2367,5.1555,5.0811,5.0101,4.9323,4.9018,4.9018,4.9018,4.9018,4.9018,0.0,0.0,0.0,0.0,0.0,0.0,2.2828,2.2847,2.2906,2.3081,2.3101,2.3101,2.3101,2.3497,2.4039,2.4745,0.0,0.0,0.0,0.0,0.0,0.0,0.0,0.0,0.0,0.0,3.0281,3.0281,3.0809,0.0,0.0,0.0,0.0,0.0,0.0,3.0105,2.9804,3.0156,0.0,0.0,0.0,0.0,0.0,0.0,0.0,0.0,0.0,0.0,4.2444,4.3656,4.4377,4.4796,4.5334,4.6501,4.7878,4.9105,5.0661,5.2097,5.2486,5.3862,5.5179,5.5179,5.3892,5.2336,5.1439,4.9912,4.8416,4.7489,4.7309,4.7722,4.9175,4.8282,4.8311,5.1349,5.1126,5.1531,5.4374,5.5493,5.7091,5.9962,6.0535,6.1313,6.2929,6.248,6.1493,6.0027,5.8171,5.6944,5.6555,5.5299,5.4162,5.3204,5.3247,5.2688,5.1574,5.1746,5.1891,5.2073,5.0922,5.1262,5.2835,5.2205,5.2487,5.3518,5.3518,5.3044,5.2232,5.1522,5.0777,5.0033,4.9289,4.9018,4.9018,4.9018,4.9018,4.9018,0.0,0.0,0.0,0.0,0.0,2.3101,2.3101,2.3101,2.3101,2.3101,2.3101,2.314,2.3276,2.3179,2.3529,2.4579,2.6493,0.0,0.0,0.0,0.0,0.0,0.0,0.0,0.0,0.0,3.0859,3.0859,3.1361,3.1537,0.0,0.0,3.1361,3.0859,0.0,0.0,0.0,0.0,0.0,0.0,0.0,0.0,0.0,0.0,0.0,0.0,0.0,0.0,0.0,0.0,0.0,4.4018,4.4018,4.4347,4.5065,4.686,4.8925,5.078,5.1439,5.3234,5.494,5.5149,5.3683,5.2037,5.1379,4.9703,4.8087,4.7429,4.7309,4.7624,4.8594,4.7988,4.7624,4.8636,4.9055,4.9761,5.1182,5.2382,5.4392,5.7674,5.8023,5.8919,6.1373,6.1373,6.0446,5.865,5.7453,5.6466,5.5628,5.4521,5.3593,5.2905,5.3147,5.2732,5.1543,5.2258,5.256,5.2454,5.1662,5.1918,5.3008,5.2592,5.28,5.3484,5.3247,5.2706,5.1928,5.1183,5.0439,4.9729,4.9187,4.9018,4.9018,4.9018,4.9018,4.9018,0.0,0.0,0.0,0.0,0.0,0.0,2.3101,2.3101,2.3101,2.3101,2.3101,2.3257,2.373,2.3398,2.3432,2.4336,2.5722,0.0,0.0,0.0,0.0,0.0,0.0,0.0,0.0,0.0,3.1386,3.1386,3.1938,3.1913,3.1411,3.1938,3.1913,3.1386,0.0,0.0,0.0,0.0,0.0,0.0,0.0,0.0,0.0,0.0,0.0,0.0,0.0,0.0,0.0,0.0,0.0,0.0,0.0,4.3319,4.3589,4.4945,4.7189,4.9434,5.0092,5.2139,5.4371,5.5029,5.3683,5.2037,5.1379,4.9703,4.8087,4.7429,4.7309,4.7624,4.8594,4.7988,4.7624,4.8636,5.0302,5.1533,5.1766,5.3856,5.5462,5.5704,5.5455,5.6017,5.7992,5.877,5.856,5.7214,5.6526,5.5598,5.4311,5.3563,5.2875,5.2247,5.197,5.1512,5.0843,5.2204,5.2378,5.1453,5.2817,5.2904,5.1957,5.2973,5.3518,5.345,5.2672,5.1894,5.1151,5.0405,4.9661,4.9018,4.9018,4.9018,4.9018,4.9018,4.9018,4.9018,0.0,0.0,0.0,0.0,0.0,0.0,0.0,2.3101,2.3101,2.3101,2.3101,2.314,2.332,2.3496,2.3691,2.3965,2.5065,0.0,0.0,0.0,0.0,0.0,0.0,0.0,0.0,3.1662,3.1964,3.1964,3.2516,3.2918,3.3093,3.2893,3.2717,3.2516,3.2139,3.1738,0.0,0.0,0.0,0.0,0.0,0.0,3.6405,0.0,0.0,0.0,0.0,0.0,0.0,0.0,0.0,0.0,0.0,0.0,0.0,4.3798,4.5843,4.7967,4.8177,5.0152,5.2097,5.181,5.099,5.0152,4.9942,4.8716,4.7549,4.7339,4.7309,4.7396,4.7722,4.7495,4.7624,4.8636,4.9281,4.9927,5.0762,5.2031,5.3984,5.6757,5.9135,6.0647,6.0884,5.978,5.8171,5.5957,5.5598,5.491,5.3563,5.2456,5.1738,5.1528,5.2461,5.2375,5.1213,5.3107,5.3636,5.2819,5.2551,5.2627,5.2973,5.2592,5.28,5.345,5.2638,5.1894,5.115,5.0405,4.9661,4.9018,4.9018,4.9018,4.9018,4.9018,4.9018,4.9018,0.0,0.0,0.0,0.0,0.0,0.0,0.0,2.3101,2.3101,2.3101,2.3101,2.3159,2.3315,2.3633,2.3926,2.4238,2.4877,0.0,0.0,0.0,0.0,0.0,0.0,0.0,3.1687,3.224,3.2641,3.2842,3.3219,3.3671,3.4198,3.3847,3.3696,3.3696,3.3319,3.2968,0.0,0.0,0.0,0.0,0.0,0.0,3.6405,0.0,0.0,0.0,0.0,0.0,0.0,0.0,0.0,0.0,0.0,0.0,0.0,0.0,4.4855,4.6651,4.716,4.9045,5.0764,5.0614,4.9942,4.9299,4.9299,4.8237,4.7309,4.7309,4.7309,4.7309,4.7309,4.7309,4.7624,4.8636,4.9135,4.9773,5.0944,5.2258,5.42,5.714,5.963,6.0896,6.0315,5.9127,5.7483,5.5359,5.497,5.4221,5.2875,5.1798,5.099,5.0511,5.1945,5.2181,5.103,5.3116,5.3753,5.2904,5.2627,5.2627,5.287,5.2327,5.2434,5.2976,5.1928,5.1217,0.0,4.9999,4.9424,4.9018,4.9018,4.9018,4.9018,4.9018,4.9018,4.9018,0.0,0.0,0.0,0.0,0.0,0.0,0.0,2.3101,2.3101,2.3101,2.3101,2.3257,2.3691,2.3809,2.416,2.4988,0.0,0.0,0.0,0.0,0.0,0.0,0.0,0.0,3.2265,3.2842,3.3395,3.3897,3.3947,3.4248,3.4776,3.4751,3.4705,3.4776,3.4751,3.468,3.4751,3.5257,3.5508,3.5533,3.6132,3.6405,0.0,0.0,0.0,0.0,0.0,0.0,0.0,0.0,0.0,0.0,0.0,0.0,0.0,0.0,0.0,0.0,0.0,4.8566,5.0106,5.072,5.0002,4.9179,4.9179,4.8177,0.0,4.7309,4.7309,4.7309,4.7309,4.7352,4.7722,4.8759,4.9813,5.0922,5.2189,5.4242,5.6067,5.7312,5.8116,5.8227,5.7275,5.7253,5.6629,5.5149,5.4491,5.3533,5.2187,5.1468,5.0557,4.9419,5.0673,5.103,5.0397,5.2451,5.3007,5.2029,5.3008,5.2973,5.193,5.2169,5.2266,5.2131,5.071,5.0101,5.0033,4.9289,4.9018,4.9018,4.9018,4.9018,4.9018,4.9018,4.9018,4.9018,0.0,0.0,0.0,0.0,0.0,0.0,0.0,0.0,0.0,0.0,2.3101,2.314,2.3237,2.3887,2.4355,0.0,0.0,0.0,0.0,0.0,0.0,0.0,0.0,0.0,3.2867,3.342,3.3771,3.3897,3.4324,3.4781,3.5282,3.4881,3.4906,3.5282,3.4856,3.468,3.4751,3.5257,3.5508,3.5533,3.6132,3.6405,0.0,0.0,0.0,0.0,3.7678,3.8872,0.0,0.0,0.0,0.0,0.0,0.0,0.0,0.0,4.4257,4.5364,4.5693,0.0,4.7908,4.7549,4.7608,4.7758,0.0,4.7519,4.7309,4.7309,4.7309,4.7309,4.7309,4.7904,4.88,4.9852,5.0892,5.1852,5.2627,5.6113,5.9165,6.0747,6.234,6.1906,5.8275,5.8393,5.7239,5.3931,5.3503,5.2845,5.1528,5.0361,4.9929,5.0414,5.0578,5.0557,5.0397,5.2451,5.3382,5.3144,5.3382,5.3078,5.2203,5.2268,5.1995,5.142,5.0507,5.0101,5.0033,4.9289,4.9018,4.9018,4.9018,4.9018,4.9018,4.9018,4.9018,4.9018,0.0,0.0,0.0,0.0,0.0,0.0,0.0,0.0,0.0,0.0,0.0,2.3101,2.3101,2.3861,0.0,0.0,0.0,0.0,0.0,0.0,0.0,0.0,0.0,3.1804,3.3068,3.337,3.3771,3.4274,3.4575,3.5127,3.5906,3.5604,3.5629,3.5906,3.5604,3.5479,3.5504,3.5805,3.5906,3.5956,3.6279,0.0,0.0,0.0,0.0,0.0,3.7103,3.8088,0.0,4.0447,4.1574,4.2589,0.0,0.0,0.0,0.0,4.4007,4.4915,4.5214,4.6292,4.7219,4.686,4.704,4.7309,4.7309,4.7309,4.7409,4.7861,4.7988,4.8157,4.8625,4.9166,4.9891,5.093,5.1819,5.3008,5.4716,5.7588,6.0285,6.2203,6.3293,6.2749,5.9759,5.9277,5.7482,5.353,5.3174,5.2606,5.1289,4.9972,4.973,5.077,5.054,5.0627,5.108,5.2696,5.3518,5.3518,5.3518,5.3078,5.23,5.1961,5.1386,5.0642,4.9932,4.9593,4.956,4.9154,4.9018,4.9018,4.9018,4.9018,4.9018,4.9018,4.9018,4.9018,0.0,0.0,0.0,0.0,0.0,0.0,0.0,0.0,0.0,0.0,0.0,0.0,0.0,0.0,0.0,0.0,0.0,0.0,0.0,0.0,0.0,0.0,3.2546,3.2471,3.3111,3.3169,3.3696,3.468,3.4856,3.5504,3.6531,3.6531,3.648,3.6405,3.6505,3.648,3.6405,3.6405,3.6405,3.6405,3.6405,0.0,0.0,0.0,0.0,0.0,0.0,0.0,0.0,3.9492,4.0661,4.1794,4.2941,0.0,0.0,0.0,0.0,0.0,4.5125,4.6202,4.7189,4.7279,4.7309,4.7309,4.7309,4.7409,4.7764,4.8636,4.8932,4.9367,5.037,5.0672,5.1124,5.2072,5.2942,5.4566,5.7694,5.9127,6.0637,6.267,6.3033,6.2497,6.0849,5.987,5.7721,5.376,5.3345,5.2617,5.1139,4.9912,4.9789,5.0869,5.0557,5.0968,5.2101,5.3076,5.3518,5.3518,5.3518,5.301,5.2131,5.1455,5.0744,4.9898,4.9255,4.9018,4.9018,4.9018,4.9018,4.9018,4.9018,4.9018,4.9018,4.9018,4.9018,4.8984,0.0,0.0,0.0,0.0,0.0,0.0,0.0,0.0,0.0,0.0,0.0,0.0,0.0,0.0,0.0,0.0,0.0,0.0,0.0,0.0,0.0,3.3727,3.2719,3.241,3.3093,3.3545,3.4098,3.468,3.568,3.6458,3.7061,3.7061,3.6857,3.643,3.6883,3.6857,3.6405,3.6405,3.6405,3.6405,3.6405,0.0,0.0,0.0,0.0,0.0,0.0,0.0,0.0,3.9492,4.0661,4.1794,4.2941,0.0,0.0,0.0,0.0,0.0,4.5125,4.5873,4.6621,4.716,4.7309,4.7309,4.7309,4.7946,4.8594,4.8759,4.9536,5.0395,5.1204,5.2032,5.286,5.3634,5.4853,5.7116,6.1049,6.1517,6.1801,6.2802,6.4303,6.3648,5.9576,5.9934,5.8783,5.5024,5.4144,5.2795,5.0497,4.9673,4.9939,5.1287,5.0696,5.1336,5.3246,5.3416,5.3518,5.3518,5.3518,5.2773,5.1386,5.1219,5.0473,4.9154,4.9052,4.9018,4.9018,4.9018,4.9018,4.9018,4.9018,4.9018,4.9018,4.9018,4.9018,4.8917,0.0,0.0,0.0,0.0,0.0,0.0,0.0,0.0,0.0,0.0,0.0,0.0,0.0,0.0,0.0,0.0,0.0,0.0,0.0,0.0,3.2343,3.4259,3.4057,3.3687,3.3093,3.3621,3.4324,3.5132,3.5981,3.681,3.7613,3.7337,3.7061,3.6857,3.7061,3.7036,3.6857,3.6857,3.6857,3.6832,0.0,0.0,0.0,0.0,0.0,0.0,0.0,0.0,0.0,0.0,4.0232,4.1,4.2739,0.0,0.0,0.0,0.0,0.0,4.4496,4.5005,4.5484,4.6501,4.704,4.7452,4.7988,4.8501,4.9135,5.0249,5.0892,5.1606,5.2913,5.4183,5.5542,5.7118,5.7883,5.8786,6.0111,6.1026,6.1565,6.1688,6.3358,6.3425,6.0652,6.0561,5.9284,5.6138,5.4313,5.2695,5.1208,5.0127,5.0131,5.1335,5.128,5.1954,5.3518,5.3518,5.3518,5.3518,5.3518,5.2706,5.1185,5.1185,5.0405,4.9018,4.9018,4.9018,4.9018,4.9018,4.9018,4.9018,4.9018,4.9018,4.9018,4.9018,4.9018,4.8883,0.0,0.0,0.0,0.0,0.0,0.0,0.0,0.0,0.0,0.0,0.0,0.0,0.0,0.0,0.0,0.0,0.0,0.0,0.0,3.1201,3.2699,3.4635,3.5207,3.4856,3.3495,3.3997,3.4751,3.5683,3.6408,3.7236,3.8191,3.7789,3.7437,3.7186,3.7312,3.7312,3.7186,3.7312,3.7387,3.7337,0.0,0.0,0.0,0.0,0.0,0.0,0.0,0.0,0.0,0.0,0.0,0.0,0.0,0.0,0.0,4.291,4.2641,4.244,4.3718,4.4077,4.4407,4.5753,4.6611,4.7486,4.8759,4.9269,5.0073,5.202,5.263,5.3223,5.4597,5.6055,5.7679,5.9539,6.0148,6.0218,5.9738,6.093,6.1767,6.1634,6.2575,6.2872,6.1949,6.0862,5.9284,5.7012,5.4708,5.3036,5.209,5.0861,5.0601,5.1469,5.1782,5.2418,5.3518,5.3518,5.3518,5.3518,5.3518,5.2773,5.1454,5.1285,5.0507,4.9255,4.9086,4.9018,4.9018,4.9018,4.9018,4.9018,4.9018,4.9018,4.9018,4.9018,4.9018,4.8883,0.0,0.0,0.0,0.0,0.0,0.0,0.0,0.0,0.0,0.0,0.0,0.0,0.0,0.0,0.0,0.0,0.0,0.0,0.0,3.2656,3.452,3.468,3.5207,3.5207,3.4625,3.5107,3.5705,3.6355,3.7362,3.8191,3.8818,3.8818,3.8191,3.7211,3.7713,3.7663,3.7211,3.7739,3.7939,3.7939,3.7914,0.0,0.0,0.0,0.0,0.0,0.0,0.0,0.0,0.0,0.0,0.0,0.0,0.0,4.1602,4.2291,4.1991,4.1743,4.3021,4.3349,4.3678,4.5035,4.6072,4.7256,4.9347,5.0774,5.2101,5.3634,5.4734,5.5442,5.558,5.6833,5.8084,5.8964,6.0283,6.1665,6.2938,6.3288,6.3592,6.4262,6.322,6.2482,6.237,6.0405,5.8638,5.7456,5.5844,5.4228,5.2565,5.1718,5.1443,5.1875,5.1882,5.2418,5.3518,5.3518,5.3518,5.3518,5.3518,5.3044,5.2198,5.1522,5.0777,4.9965,4.9289,4.9018,4.9018,4.9018,4.9018,4.9018,4.9018,4.9018,4.9018,4.9018,4.9018,4.8883,0.0,0.0,0.0,0.0,0.0,0.0,0.0,0.0,0.0,0.0,0.0,0.0,0.0,0.0,0.0,0.0,0.0,0.0,0.0,3.1159,3.3071,3.4635,3.5579,3.5956,3.5755,3.5956,3.6508,3.7387,3.8517,3.8994,3.8919,3.8492,3.7914,3.7211,3.7764,3.7688,3.7236,3.8165,3.8341,3.8015,3.8015,3.7688,0.0,0.0,0.0,0.0,0.0,0.0,0.0,0.0,3.9747,3.9968,4.2489,4.2432,4.1504,4.2201,4.1632,4.0965,4.1863,4.2432,4.294,4.3838,4.5218,4.7093,4.967,5.1092,5.2398,5.4071,5.5469,5.6664,5.7611,5.8592,5.9505,6.0317,6.1298,6.2178,6.2753,6.3226,6.3429,6.326,6.2719,6.2212,6.1772,6.008,5.8646,5.7767,5.5696,5.401,5.2878,5.2085,5.1782,5.1885,5.2557,5.311,5.3518,5.3518,5.3518,5.3518,5.3518,5.2841,5.1623,5.1352,5.0574,4.939,4.912,4.9018,4.9018,4.9018,4.9018,4.9018,4.9018,4.9018,4.9018,4.9018,4.9018,4.8883,0.0,0.0,0.0,0.0,0.0,0.0,0.0,0.0,0.0,0.0,0.0,0.0,0.0,0.0,0.0,0.0,0.0,0.0,2.8432,3.0514,3.2526,3.436,3.5353,3.6053,3.6405,3.6558,3.7086,3.8015,3.9145,3.9421,3.8919,3.8266,3.7814,3.7462,3.7663,3.7638,3.7513,3.8467,3.8642,3.8291,3.8467,3.809,0.0,0.0,0.0,0.0,0.0,0.0,0.0,0.0,3.9775,3.9996,4.2294,4.2132,4.1145,4.1662,4.0965,4.0217,4.0876,4.1414,4.1953,4.2821,4.4632,4.6949,4.9582,5.1324,5.3027,5.5206,5.6258,5.7171,5.8423,5.8863,5.9302,6.0114,6.1028,6.167,6.167,6.211,6.2245,6.1738,6.1467,6.1129,6.0622,5.9201,5.8118,5.7577,5.5515,5.4047,5.3515,5.2817,5.2416,5.2416,5.311,5.3518,5.3518,5.3247,5.3112,5.3112,5.2909,5.2334,5.1555,5.1319,5.0541,4.9323,4.912,4.9018,4.9018,4.9018,4.9018,4.9018,4.9018,4.9018,4.9018,4.9018,4.9018,4.8951,0.0,0.0,0.0,0.0,0.0,0.0,0.0,0.0,0.0,0.0,0.0,0.0,0.0,0.0,0.0,0.0,0.0,0.0,2.8091,3.124,3.3319,3.3872,3.4424,3.5228,3.638,3.6933,3.7462,3.8015,3.9145,3.9396,3.8894,3.8266,3.799,3.7965,3.7412,3.7487,3.804,3.8617,3.8919,3.8944,3.9471,3.9019,3.799,0.0,0.0,0.0,0.0,0.0,0.0,0.0,3.9428,3.9312,4.1646,4.1474,4.0427,4.0397,3.9948,3.9559,4.0217,4.0397,4.0696,4.2051,4.4365,4.6856,4.8978,5.1569,5.4329,5.7273,5.7306,5.7036,5.7746,5.7306,5.7036,5.778,5.9133,6.008,6.0114,6.0114,6.0114,6.0114,5.9471,5.9032,5.8998,5.7679,5.6799,5.6799,5.5412,5.46,5.4566,5.389,5.3518,5.3518,5.3518,5.3518,5.3484,5.2706,5.23,5.2266,5.1555,5.1589,5.2266,5.1522,5.0811,5.0033,4.9323,4.9018,4.9018,4.9018,4.9018,4.9018,4.9018,4.9018,4.9018,4.9018,4.9018,4.9018,0.0,0.0,0.0,0.0,0.0,0.0,0.0,0.0,0.0,0.0,0.0,0.0,0.0,0.0,0.0,0.0,0.0,0.0,2.9253,3.1229,3.2685,3.3319,3.4223,3.5006,3.578,3.6709,3.7663,3.8617,3.8944,3.8668,3.7688,3.7513,3.7211,3.686,3.7086,3.7061,3.6958,3.7864,3.804,3.7764,3.8718,3.8442,3.7462,0.0,0.0,0.0,0.0,0.0,0.0,0.0,0.0,0.0,4.0809,4.146,4.1632,4.0666,4.0277,4.0038,3.9798,3.9709,4.0038,4.1354,4.365,4.6156,4.824,5.1206,5.4329,5.7273,5.7306,5.7036,5.7746,5.7712,5.7645,5.7848,5.8693,5.9505,6.0047,6.0114,6.0114,6.0114,5.9471,5.8795,5.8287,5.7374,5.6359,5.531,5.4837,5.4363,5.3856,5.3619,5.3518,5.3518,5.3518,5.3247,5.2672,5.2976,5.2604,5.1555,5.1826,5.1555,5.0744,5.0541,5.0033,4.9323,4.9086,4.9018,4.9018,4.9018,4.9018,4.9018,4.9018,4.9018,4.9018,4.9018,4.9018,4.9018,0.0,0.0,0.0,0.0,0.0,0.0,0.0,0.0,0.0,0.0,2.6718,0.0,0.0,0.0,0.0,0.0,0.0,0.0,3.0095,3.1371,3.2504,3.3395,3.4048,3.4851,3.5855,3.6734,3.7513,3.8191,3.8417,3.8065,3.7186,3.7186,3.7059,3.6757,3.7036,3.701,3.6782,3.7638,3.7688,3.7287,3.8466,3.8191,3.7236,0.0,0.0,0.0,0.0,0.0,0.0,0.0,0.0,0.0,4.0142,4.1037,4.1752,4.0397,3.9798,3.9589,3.9439,3.9373,3.9738,4.1055,4.3482,4.6311,4.9151,5.2381,5.5412,5.7476,5.7543,5.7442,5.8186,5.7848,5.7543,5.7848,5.8254,5.8727,5.9167,5.9235,5.9235,5.9235,5.8829,5.8287,5.7509,5.6799,5.5886,5.4668,5.4329,5.3957,5.3518,5.3518,5.3518,5.3518,5.3518,5.3112,5.23,5.2503,5.1995,5.0777,5.0913,5.0507,4.9661,4.9965,4.9695,4.9018,4.9018,4.9018,4.9018,4.9018,4.9018,4.8984,4.868,4.8748,4.8951,4.8342,4.8308,4.8511,0.0,0.0,0.0,0.0,0.0,0.0,0.0,0.0,0.0,0.0,2.762,0.0,0.0,0.0,0.0,0.0,0.0,0.0,0.0,3.1692,3.2742,3.3771,3.3972,3.4751,3.6304,3.6835,3.7111,3.7111,3.7663,3.7638,3.7111,3.7111,3.7136,3.7186,3.7136,3.7136,3.7211,3.7663,3.7563,3.7211,3.8341,3.8114,3.7161,3.7713,0.0,0.0,0.0,0.0,0.0,0.0,0.0,0.0,3.9524,4.0393,4.1205,3.9828,3.902,3.8721,3.9349,3.9433,3.9738,4.1115,4.3846,4.7126,5.103,5.4336,5.6799,5.7442,5.7712,5.7983,5.8693,5.778,5.7103,5.778,5.7881,5.7881,5.7814,5.778,5.778,5.778,5.7712,5.7442,5.6765,5.6055,5.531,5.4566,5.389,5.3518,5.3518,5.3518,5.3518,5.3518,5.3518,5.3078,5.2198,5.1623,5.0879,4.9965,4.939,4.9086,4.9018,4.9695,4.9627,4.9018,4.9018,4.9018,4.8984,4.8951,4.8917,4.8849,4.8075,4.8206,4.8646,4.7293,4.7225,4.7703,0.0,0.0,0.0,0.0,0.0,0.0,0.0,0.0,0.0,0.0,0.0,0.0,0.0,0.0,0.0,0.0,0.0,0.0,0.0,3.2514,3.2993,3.3244,3.45,3.5307,3.5705,3.6257,3.6581,3.6581,3.7086,3.7086,3.6581,3.6581,3.6832,3.7161,3.6782,3.6832,3.7161,3.6883,3.6707,3.6656,3.7335,3.7184,3.6656,3.7161,3.6983,0.0,0.0,0.0,0.0,0.0,0.0,0.0,3.8616,4.0061,4.1841,3.9948,3.9679,4.0008,4.0157,3.9798,3.9858,4.1722,4.5022,4.8556,5.1274,5.3567,5.5108,5.5277,5.6224,5.7103,5.7239,5.7476,5.7712,5.7848,5.7881,5.7679,5.7103,5.7036,5.7036,5.7036,5.6528,5.6122,5.5953,5.5277,5.4532,5.3788,5.3585,5.3518,5.3518,5.3518,5.3518,5.3518,5.3518,5.2841,5.1454,5.186,5.1116,4.9255,4.9661,4.956,4.9018,4.9154,4.9154,4.9018,4.9018,4.9018,4.8951,4.8376,4.8142,4.8071,4.7327,4.7124,4.7225,4.6921,4.6887,4.7022,0.0,0.0,0.0,0.0,0.0,0.0,0.0,0.0,0.0,0.0,0.0,0.0,0.0,0.0,0.0,0.0,0.0,0.0,0.0,0.0,3.3319,3.3847,3.5203,3.5931,3.5931,3.6254,3.6279,3.5981,3.6533,3.6681,3.6405,3.6405,3.6556,3.6832,3.6807,3.6634,3.6408,3.6659,3.6458,3.6031,3.686,3.6709,3.6056,3.6885,3.6684,3.6006,3.6329,0.0,0.0,0.0,0.0,0.0,0.0,0.0,4.1145,3.9798,3.9679,3.9918,3.9918,4.0127,4.0816,4.2791,4.6105,4.918,5.0403,5.2449,5.4059,5.4059,5.5243,5.6292,5.6292,5.6867,5.7374,5.7374,5.7645,5.7746,5.7374,5.734,5.7205,5.6833,5.6461,5.5953,5.5243,5.4837,5.4296,5.3551,5.3518,5.3348,5.2942,5.2942,5.2773,5.2435,5.2401,5.186,5.0676,5.1048,5.0304,4.8477,4.9221,4.9357,4.8984,4.8646,4.868,4.8951,4.824,4.8139,4.8443,4.7699,4.7361,4.7293,4.6549,4.6481,4.6718,4.6036,4.5974,4.621,0.0,0.0,0.0,0.0,0.0,0.0,0.0,0.0,0.0,0.0,0.0,0.0,0.0,0.0,0.0,0.0,0.0,0.0,0.0,0.0,0.0,3.4675,3.568,3.6254,3.6254,3.6254,3.5956,3.5357,3.5855,3.6229,3.6405,3.6405,3.6455,3.6556,3.6784,3.6458,3.5683,3.6458,3.6232,3.5433,3.6408,3.6207,3.5458,3.6408,3.6257,3.5533,3.5956,3.6179,3.6207,3.6153,0.0,0.0,0.0,0.0,4.0025,3.9546,3.9373,3.9439,3.9559,4.0546,4.1983,4.3718,4.6601,4.9036,4.9155,5.1292,5.3213,5.3281,5.4499,5.5513,5.5513,5.6122,5.663,5.663,5.7239,5.7611,5.734,5.7442,5.7239,5.6494,5.6325,5.5818,5.4702,5.4465,5.416,5.3551,5.3518,5.3145,5.2334,5.23,5.1961,5.1219,5.1185,5.0845,5.0101,5.0101,4.9424,4.8075,4.8714,4.9018,4.8984,4.8105,4.8206,4.8917,4.7564,4.7327,4.7804,4.6955,4.6616,4.6549,4.5805,4.5872,4.6244,4.5055,4.4993,4.5432,0.0,0.0,0.0,0.0,0.0,0.0,0.0,0.0,0.0,0.0,3.2033,0.0,0.0,0.0,0.0,0.0,0.0,0.0,0.0,0.0,0.0,3.4655,3.5282,3.5608,3.5608,3.5608,3.5332,3.4826,3.4901,3.5429,3.6405,3.6405,3.6656,3.7036,3.6157,3.5956,3.6254,3.5403,3.4977,3.4806,3.5002,3.4931,3.4806,3.5002,3.5207,3.5433,3.5031,3.5253,3.5533,3.5102,3.5767,0.0,0.0,0.0,3.9062,3.9334,3.9373,3.9559,4.0127,4.1235,4.247,4.3299,4.5406,4.7464,4.8227,5.0359,5.2148,5.2404,5.3687,5.4735,5.4735,5.5344,5.5852,5.5852,5.6461,5.6494,5.5209,5.5581,5.5716,5.4972,5.4329,5.4126,5.4566,5.4025,5.3619,5.3518,5.3518,5.3145,5.2334,5.23,5.1961,5.1219,5.1185,5.0845,5.0101,5.0101,4.9661,4.8849,4.8951,4.9018,4.8951,4.7564,4.7699,4.8951,4.8139,4.7804,4.777,4.6413,4.5838,4.5771,4.5026,4.4818,4.4886,4.4682,4.4682,4.475,0.0,0.0,0.0,0.0,0.0,0.0,0.0,0.0,0.0,0.0,0.0,3.3301,0.0,0.0,0.0,0.0,0.0,0.0,0.0,0.0,0.0,3.4248,3.5031,3.5357,3.5056,3.5332,3.5082,3.4248,3.4575,3.5127,3.5906,3.6254,3.6707,3.7136,3.6383,3.5805,3.5403,3.4926,3.455,3.4299,3.46,3.4525,3.4299,3.46,3.4675,3.4625,3.47,3.4831,3.5006,3.4756,3.5274,3.6077,3.6866,0.0,0.0,0.0,3.9679,4.0187,4.1235,4.1961,4.256,4.318,4.5401,4.7481,4.7686,4.9567,5.1345,5.1629,5.2232,5.2976,5.3822,5.46,5.5074,5.5074,5.6055,5.6427,5.5378,5.5852,5.5886,5.4735,5.4296,5.4093,5.3991,5.3687,5.3518,5.3518,5.3078,5.2503,5.1725,5.1285,5.0744,4.9999,4.9965,4.9627,4.8883,4.8883,4.8511,4.7767,4.7361,4.7361,4.7733,4.709,4.7394,4.8308,4.6718,4.6278,4.6583,4.55,4.506,4.5026,4.475,4.4615,4.4615,4.4615,4.4615,4.4615,0.0,0.0,0.0,0.0,0.0,0.0,0.0,0.0,0.0,0.0,0.0,0.0,0.0,0.0,0.0,0.0,0.0,0.0,0.0,0.0,0.0,3.3872,3.455,3.4801,3.4525,3.4881,3.4605,3.3696,3.4248,3.5108,3.6238,3.6798,3.7625,3.8527,3.7067,3.5931,3.5102,3.47,3.4349,3.4123,3.4248,3.4048,3.3721,3.3972,3.4022,3.3922,3.4048,3.4274,3.45,3.4349,3.4568,3.5099,3.6457,3.7114,0.0,0.0,0.0,4.0367,4.1392,4.1901,4.2261,4.2701,4.4859,4.6863,4.6713,4.8317,4.9954,5.0459,5.0723,5.126,5.2672,5.3518,5.4059,5.4296,5.5412,5.5987,5.5243,5.5784,5.575,5.4465,5.4329,5.4093,5.3551,5.3518,5.3518,5.3518,5.2739,5.1995,5.1251,5.0507,4.9763,4.9018,4.8815,4.8477,4.7906,4.7733,4.7361,4.6786,4.6244,4.6278,4.6786,4.6616,4.6819,4.7259,4.5602,4.5196,4.5635,4.4919,4.4615,4.4615,4.4615,4.4615,4.4615,4.4615,4.4615,4.4615,0.0,0.0,0.0,0.0,0.0,0.0,0.0,0.0,0.0,0.0,0.0,0.0,3.3187,3.3043,3.2634,3.1486,3.1863,0.0,0.0,0.0,0.0,3.3822,3.3445,0.0,3.3922,3.3972,3.3696,3.3162,3.3671,3.5398,3.8172,3.8708,4.0233,4.2241,3.8199,3.638,3.6229,3.46,3.4223,3.46,3.3571,3.3187,3.3068,3.2541,3.2993,3.3771,3.2717,3.3018,3.3847,3.3345,3.3187,3.3581,3.5628,3.6251,3.6682,0.0,0.0,0.0,3.9559,4.0487,4.1482,4.1474,4.298,4.4559,4.4878,4.605,4.7448,4.8617,4.9388,5.0157,5.1123,5.1928,5.2672,5.345,5.4194,5.4465,5.3721,5.4262,5.4431,5.3653,5.3551,5.3551,5.3518,5.3518,5.3518,5.3518,5.2739,5.1995,5.1251,5.0507,4.9763,4.9018,4.8342,4.7939,4.7906,4.7225,4.6819,4.6786,4.6752,4.6752,4.6786,4.6075,4.5771,4.5805,4.5703,4.5669,4.5635,4.4919,4.4615,4.4615,4.4615,4.4615,4.4615,4.4615,4.4615,4.4615,0.0,0.0,0.0,0.0,0.0,0.0,0.0,0.0,0.0,0.0,0.0,0.0,0.0,3.2943,3.2215,3.1461,3.126,0.0,0.0,0.0,0.0,3.3319,3.352,3.352,3.337,3.3721,3.3621,3.3111,3.399,3.5296,3.7069,3.8378,3.9612,4.0663,3.858,3.8017,3.8533,3.5634,3.5142,3.6182,3.4701,3.4121,3.4053,3.3115,3.3018,3.3319,3.2918,3.3018,3.3345,3.3144,3.3111,3.3471,3.5534,3.6212,3.6643,3.8767,3.9373,3.9463,3.9918,4.0397,4.0935,4.1841,4.2851,4.3837,4.4648,4.5494,4.6309,4.6966,4.74,4.8068,4.936,5.1094,5.2401,5.2672,5.3788,5.4329,5.3619,5.4126,5.4329,5.3585,5.3518,5.3518,5.3518,5.3518,5.3518,5.3518,5.2334,5.1488,5.1185,5.0067,4.9052,4.8342,4.8041,4.7432,4.6515,4.5737,4.5393,4.5393,4.5393,4.5393,4.5393,4.5094,4.4993,4.4993,4.4993,4.4993,4.4959,4.4716,4.4615,4.4615,4.4615,4.4615,4.4615,4.4615,4.4615,4.4615,0.0,0.0,0.0,0.0,0.0,0.0,0.0,0.0,3.4801,3.4248,0.0,0.0,0.0,0.0,3.229,3.1712,3.1185,3.126,3.2164,3.2039,3.2365,3.3319,3.3345,3.3345,3.3345,3.352,3.3518,3.3317,3.4184,3.5379,3.6864,3.8408,3.9648,4.0576,3.9333,3.9321,4.0039,3.7079,3.6592,3.7634,3.5886,3.5197,3.5102,3.4037,3.3641,3.3598,3.324,3.3111,3.3111,3.3111,3.3199,3.3653,3.56,3.6682,3.7558,3.898,3.9373,3.9529,3.9948,4.0217,4.0666,4.1811,4.2372,4.2887,4.38,4.432,4.4678,4.4993,4.5344,4.6087,4.7704,4.9493,5.1025,5.1794,5.301,5.3653,5.3179,5.3754,5.4059,5.3551,5.3518,5.3518,5.3518,5.3518,5.3518,5.3518,5.2097,5.1185,5.1185,4.9796,4.8545,4.7564,4.753,4.6819,4.5331,4.5094,4.4823,4.4615,4.4615,4.4615,4.4615,4.4615,4.4615,4.4615,4.4615,4.4615,4.4615,4.4615,4.4615,4.4615,4.4615,4.4615,4.4615,4.4615,4.4615,4.4615,0.0,0.0,0.0,0.0,0.0,0.0,0.0,0.0,3.5307,3.4756,0.0,0.0,0.0,0.0,0.0,3.2315,3.1763,3.1662,3.224,3.1738,3.2164,3.3796,0.0,0.0,3.3847,3.3388,3.3343,3.3711,3.4304,3.5682,3.7805,3.9014,4.0529,4.2222,4.0568,4.0133,4.0537,3.8837,3.845,3.8795,3.697,3.6251,3.6132,3.5142,3.4733,3.4635,3.3556,3.3197,3.3197,3.3197,3.3425,3.4073,3.5702,3.7672,3.9343,3.9373,3.9373,3.9343,0.0,0.0,0.0,4.1175,4.1354,4.1572,4.2231,4.2381,4.2439,4.271,4.3268,4.4315,4.6192,4.7111,4.8397,5.0718,5.176,5.2266,5.23,5.2976,5.3484,5.3518,5.3518,5.3518,5.3518,5.3518,5.3518,5.3518,5.2097,5.1185,5.1185,4.9796,4.8308,4.6853,4.6786,4.6041,4.4615,4.5297,4.5297,4.4615,4.4615,4.4615,4.4615,4.4615,4.4615,4.4615,4.4615,4.4615,4.4615,4.4615,4.4615,4.4615,4.4615,4.4615,4.4615,4.4615,4.4615,4.4615,0.0,0.0,0.0,0.0,0.0,3.6182,3.5583,3.5508,3.5307,0.0,0.0,0.0,3.3947,3.3395,3.3169,3.342,3.2918,3.2842,3.3395,3.2918,3.2817,3.3294,3.2993,3.2993,3.3294,3.3946,3.4308,3.4439,3.5597,3.6495,3.7086,3.8231,3.9,3.9529,4.0018,4.0064,3.9682,3.8408,3.8995,4.052,3.8275,3.7652,3.7916,3.6377,3.5774,3.5734,3.5453,3.5359,3.5359,3.5359,3.5425,3.5715,3.6965,3.7973,3.8781,3.926,3.908,3.8781,3.929,0.0,0.0,0.0,0.0,0.0,4.1542,4.1692,4.1708,4.1761,4.2082,4.2758,4.4295,4.5403,4.6646,4.8331,5.0255,5.1691,5.2232,5.2503,5.2841,5.345,5.3518,5.3518,5.3518,5.3518,5.3518,5.3518,5.2097,5.1185,5.1185,4.9292,4.7767,4.6819,4.6278,4.5534,4.4615,4.4818,4.4818,4.4615,4.4615,4.4615,4.4615,4.4615,4.4615,4.4615,4.4615,4.4615,4.4615,4.4615,4.4615,4.4615,4.4615,4.4615,4.4615,4.4615,4.4615,4.4615,0.0,0.0,0.0,0.0,0.0,3.6508,3.5956,3.6081,3.6031,0.0,0.0,0.0,3.4299,3.3746,3.3545,3.3872,3.3395,3.3219,3.3545,3.3244,3.3212,3.3395,3.3194,3.3194,3.342,3.4266,3.4791,3.4929,3.6183,3.6903,3.7067,3.7996,3.8242,3.8033,3.908,3.92,3.8531,3.82,3.9047,4.0449,3.9054,3.8676,3.8923,3.7717,3.7063,3.6855,3.6674,3.6432,3.6212,3.6212,3.6487,3.6975,3.7469,3.8197,3.8841,3.896,3.8901,3.8901,3.932,3.9373,3.9589,4.0247,0.0,0.0,4.0487,4.0576,4.0397,3.9828,4.0262,4.1132,4.2302,4.3305,4.4527,4.6319,4.7769,4.9426,5.1559,5.2097,5.2604,5.3416,5.3518,5.3518,5.3518,5.3518,5.3518,5.3518,5.2097,5.0947,5.0338,4.8477,4.7259,4.6819,4.6075,4.5331,4.4615,4.4919,4.4919,4.4615,4.4615,4.4615,4.4615,4.4615,4.4615,4.4581,4.4248,4.4079,4.4079,4.4079,4.4282,4.4615,4.4615,4.4615,4.4615,4.4615,4.4615,4.4615,0.0,0.0,3.6581,3.7086,3.7186,3.7036,3.6656,3.6958,3.7036,0.0,3.6006,3.5408,3.4951,3.4399,3.4098,3.4173,3.3621,3.3269,3.3269,3.3187,3.3294,3.3796,3.3449,3.351,3.3972,3.469,3.5237,3.5554,3.6522,3.7155,3.7524,3.8033,3.7943,3.7345,3.7973,3.7883,3.7255,3.8063,3.8691,3.92,3.9313,3.9433,3.945,3.8964,3.8447,3.7901,3.7512,3.7,3.6565,3.6565,3.7175,3.7941,3.7693,3.8362,3.911,3.8631,3.8841,3.9194,0.0,0.0,0.0,4.0157,3.9858,0.0,3.9373,3.9373,3.908,3.7883,3.8571,3.9696,4.0578,4.1376,4.256,4.4591,4.5149,4.6606,5.0257,5.1494,5.2336,5.3112,5.3382,5.3518,5.3518,5.3518,5.3518,5.3518,5.2097,5.0574,4.9086,4.7665,4.6887,4.6786,4.6075,4.5297,4.4479,4.5196,4.5196,4.4479,4.4581,4.4615,4.4615,4.4615,4.4615,4.4581,4.3741,4.3443,4.3538,4.3443,4.3809,4.4479,4.4581,4.4615,4.4615,4.4615,4.4615,4.4615,0.0,3.648,3.6581,3.7086,3.7186,3.7287,3.7638,3.7387,3.7312,3.7638,3.681,3.6157,3.6103,3.5554,3.5403,3.5877,3.4977,3.4399,3.4399,3.3571,3.3162,3.3244,3.3962,3.4439,3.4544,3.6282,3.7224,3.7301,3.7849,3.8126,3.8182,3.7793,3.7255,3.6686,3.7315,3.6956,3.5998,3.7674,3.8153,3.7883,3.899,3.9738,4.0121,3.9483,3.9172,3.9083,3.8952,3.8885,3.8767,3.8767,3.8907,3.9096,3.9038,3.8452,3.8003,3.8931,3.8542,3.8033,3.914,3.9373,3.9403,3.9589,3.9529,0.0,3.9373,3.9373,3.9313,3.908,3.9194,3.9595,4.0323,4.1653,4.2754,4.318,4.4827,4.6509,4.7896,4.9345,5.0587,5.1317,5.2639,5.3518,5.3518,5.3518,5.3518,5.3518,5.2097,5.0574,4.9086,4.8173,4.7428,4.6819,4.6075,4.5026,4.3673,4.4418,4.4418,4.3639,4.4282,4.4615,4.4615,4.4615,4.4615,4.4581,4.3741,4.3775,4.4316,4.3673,4.3477,4.3707,4.4378,4.4615,4.4615,4.4615,4.4615,4.4615,3.6757,3.6606,3.6681,3.7437,3.7588,3.7688,3.7965,3.8015,3.8236,3.8868,3.871,3.8267,3.7361,3.7246,3.7368,3.7659,3.6937,3.6303,3.597,3.5458,3.5009,3.465,3.5156,3.544,3.544,3.6982,3.7805,3.7805,3.8516,3.8901,3.8901,3.8212,3.7554,3.6956,3.6956,3.6417,3.5609,3.7225,3.7704,3.7524,3.8871,3.9619,3.9858,3.9559,3.9373,3.9373,3.9373,3.9373,3.9373,3.9373,3.9373,3.9313,3.902,3.8691,3.8482,3.8811,3.8661,3.8542,3.923,3.9373,3.9373,3.9373,3.9373,0.0,0.0,3.8901,3.8721,3.8093,3.8452,3.8901,3.8901,4.0111,4.1315,4.1986,4.3069,4.4136,4.516,4.7148,4.8999,5.021,5.1089,5.1832,5.2301,5.2367,5.2198,5.1826,5.1454,5.0574,4.9086,4.797,4.7192,4.6819,4.5737,4.479,4.4012,4.4412,4.4412,4.4012,4.4412,4.4615,4.4615,4.4615,4.4615,4.4581,4.3741,4.3639,4.3978,4.3572,4.3375,4.3477,4.4282,4.4615,4.4615,4.4615,4.4615,4.4615,3.7292,3.7013,3.7108,3.8319,3.8623,3.8725,3.8853,3.9186,3.9527,3.9867,4.0296,4.0001,3.8452,3.8428,3.8642,3.878,3.8048,3.7468,3.7219,3.697,3.6571,3.6073,3.6353,3.6431,3.6292,3.7463,3.8107,3.8107,3.898,3.9313,3.92,3.8661,3.7973,3.7225,3.6716,3.6178,3.5759,3.6926,3.7494,3.7704,3.8931,3.9373,3.9373,3.9373,3.9373,3.9373,3.9373,3.9373,3.9373,3.9373,3.9373,3.932,3.8751,3.8871,3.914,3.8721,3.8901,3.926,3.9343,3.9373,3.9373,3.9373,3.9373,3.926,0.0,0.0,0.0,3.7255,3.7883,3.8422,3.7883,3.8781,3.9918,4.0846,4.1324,4.1893,4.2821,4.5015,4.718,4.902,4.954,5.0156,5.106,5.1155,5.0913,5.0135,5.0642,5.0405,4.9086,4.7733,4.6955,4.6786,4.5529,4.4682,4.435,4.4513,4.4513,4.435,4.4547,4.4615,4.4615,4.4615,4.4615,4.4581,4.3741,4.3375,4.3375,4.3375,4.3375,4.3477,4.4282,4.4615,4.4615,4.4615,4.4615,4.4615,3.7985,3.7933,3.8455,4.0114,4.0868,4.1415,4.1914,4.1633,4.1041,4.0024,3.9848,3.9546,3.8855,3.7827,3.736,3.7992,3.6466,3.5916,3.7055,3.6117,3.5482,3.5399,3.6816,3.7367,3.6728,3.8363,3.9228,3.9228,3.9337,3.911,3.8512,3.8422,3.7734,3.6596,3.6507,3.6447,3.6417,3.7105,3.7734,3.8332,3.911,3.9373,3.9373,3.9373,3.9373,3.9373,3.9373,3.9373,3.9373,3.9373,3.9373,3.9373,3.932,3.8931,3.8601,3.914,3.8931,3.8631,3.926,3.9373,3.9373,3.9373,3.9373,3.9409,3.932,0.0,3.926,3.911,0.0,3.9254,3.92,0.0,0.0,3.9709,4.1115,4.2141,4.1654,4.2836,4.463,4.6951,4.876,5.008,5.0777,5.1062,5.0913,5.0135,5.0168,4.9864,4.9052,4.824,4.7496,4.6819,4.6007,4.4925,4.3544,4.4215,4.4215,4.3511,4.4248,4.4615,4.4615,4.4615,4.4615,4.4581,4.3741,4.3375,4.3375,4.3375,4.3375,4.3477,4.4282,4.4615,4.4615,4.4615,4.4615,4.4615,3.9139,3.9139,3.9435,4.0525,4.0918,4.1304,4.1819,4.239,4.2137,4.0537,4.154,4.1904,4.0618,4.056,4.0579,4.0532,3.9431,3.8851,3.8996,3.8542,3.8252,3.8252,3.8919,3.9172,3.8878,3.8835,3.8811,3.8811,3.8811,3.8482,3.7823,3.7823,3.7524,3.7015,3.6656,3.6686,3.7075,3.7704,3.8123,3.8452,3.914,3.9373,3.9373,3.9373,3.9373,3.9373,3.9373,3.9373,3.9373,3.9373,3.9373,3.9373,3.9373,3.923,3.905,3.9313,3.92,3.905,3.9313,3.9373,3.9373,3.9373,3.9373,3.9373,3.9373,3.9373,3.932,3.8901,0.0,0.0,0.0,0.0,0.0,0.0,4.0995,4.1871,4.1961,4.2761,4.3904,4.551,4.6408,4.7448,4.8821,4.9923,5.027,4.9526,4.9864,4.9763,4.9052,4.8308,4.7564,4.6819,4.6075,4.5196,4.4113,4.4418,4.4418,4.4079,4.3978,4.391,4.3876,4.3436,4.3504,4.3876,4.3098,4.2997,4.3375,4.2963,4.276,4.2828,4.3606,4.4181,4.4615,4.4615,4.4615,4.4615,4.0746,0.0,4.0587,4.1267,4.1579,4.1833,4.2197,4.307,4.3127,4.1609,4.2789,4.3288,4.1948,4.208,4.2132,4.1901,4.0876,4.0157,3.9858,3.9858,3.9709,3.9349,4.0008,4.0127,3.9589,3.917,3.8841,3.8661,3.8661,3.8332,3.7674,3.7494,3.7404,3.7375,3.6776,3.6926,3.7704,3.8182,3.8512,3.8721,3.92,3.9373,3.9373,3.9373,3.9373,3.9373,3.9373,3.9373,3.9373,3.9373,3.9373,3.9373,3.9373,3.9373,3.9373,3.9373,3.9373,3.9373,3.9373,3.9373,3.9373,3.9373,3.9373,3.9373,3.9373,3.9373,3.9254,3.8781,3.908,0.0,0.0,0.0,3.9589,4.0068,0.0,4.1602,4.2081,4.2641,4.3455,4.4527,4.4901,4.5636,4.707,4.8562,4.9179,4.8642,4.9164,4.9357,4.9018,4.8308,4.7564,4.6819,4.6278,4.5534,4.4615,4.4378,4.4248,4.4248,4.347,4.3098,4.3098,4.276,4.2794,4.3098,4.276,4.2692,4.2767,4.2658,4.2354,4.2083,4.3031,4.3775,4.4282,4.4513,4.4615,4.4615,4.2981,4.2275,4.1906,4.301,4.3747,4.4195,4.4195,4.4265,4.4026,4.3329,4.2781,4.244,4.2402,4.0696,3.9798,4.0397,3.8661,3.7793,3.8422,3.8452,3.7913,3.6656,3.905,3.9499,3.7554,3.9349,4.0038,3.9379,3.9379,3.902,3.8332,3.7704,3.7404,3.7375,3.6776,3.7195,3.8362,3.8392,3.8781,3.9379,3.9373,3.9373,3.9373,3.9373,3.9373,3.9373,3.9373,3.9373,3.9373,3.9373,3.9373,3.9373,3.9373,3.9373,3.9373,3.9373,3.9373,3.9373,3.9373,3.9373,3.9373,3.9373,3.9373,3.9373,3.9373,3.9373,3.9373,3.9343,3.9373,3.9373,3.9379,3.9373,3.9403,3.9439,4.0546,0.0,0.0,4.2021,4.289,4.4178,4.5114,4.5841,4.6202,4.7104,4.7671,4.7671,4.7845,4.8274,4.8951,4.8308,4.7564,4.6819,4.6786,4.6041,4.4615,4.3842,4.3443,4.3409,4.2692,4.232,4.2354,4.3064,4.2997,4.2354,4.3064,4.2564,4.1373,4.2767,4.2496,4.1373,4.2801,4.3409,4.3511,4.4316,4.4615,4.4615,4.4534,0.0,4.3364,4.331,4.3469,4.3618,4.3618,4.3618,4.3559,4.3319,4.315,4.3,4.3,4.2363,4.1743,4.1115,4.0038,3.929,3.908,3.9469,3.9529,3.911,4.0793,4.1212,4.0068,3.9858,3.9649,3.9373,3.896,3.8392,3.7734,3.7524,3.7404,3.7375,3.6776,3.7195,3.8392,3.8392,3.8781,3.9373,3.9373,3.9373,3.9373,3.9373,3.9373,3.9373,3.9373,3.9373,3.9373,3.9373,3.9373,3.9373,3.9373,3.9373,3.9373,3.9373,3.9373,3.9373,3.9373,3.9373,3.9373,3.9373,3.9373,3.9373,3.9373,3.9373,3.9373,3.9373,3.9373,3.9373,3.9373,3.9373,3.9373,3.9373,4.0516,4.1235,0.0,4.1332,4.1901,4.2312,4.3594,4.4495,4.4611,4.5562,4.6321,4.6815,4.6608,4.6786,4.7496,4.7767,4.7361,4.6109,4.6549,4.6075,4.4615,4.3809,4.3375,4.3375,4.2151,4.1576,4.1576,4.1305,4.1339,4.1542,4.1305,4.1204,4.1204,4.1204,4.0899,4.062,4.2083,4.2658,4.276,4.3538,4.4147,4.4615,4.4945,4.4407,4.3858,4.3678,4.3439,4.329,4.329,4.3499,4.3559,4.3319,4.3499,4.3559,4.3319,4.312,4.2551,4.1474,4.0786,4.0127,3.9433,3.9798,3.9948,3.9709,4.0965,4.1272,4.0337,4.0187,3.9888,3.9373,3.92,3.8781,3.8123,3.7644,3.7524,3.7734,3.6866,3.7195,3.8392,3.8392,3.8781,3.9373,3.9373,3.9373,3.9373,3.9373,3.9373,3.9373,3.9373,3.9373,3.9373,3.9373,3.9373,3.9373,3.9373,3.9373,3.9373,3.9373,3.9373,3.9373,3.9373,3.9373,3.9373,3.9373,3.9373,3.9373,3.9373,3.9373,3.9373,3.9373,3.9373,3.9349,3.911,3.926,3.9313,3.908,4.0157,4.0876,0.0,4.0756,4.0935,4.0696,4.2014,4.2941,4.2941,4.387,4.469,4.5212,4.5246,4.5581,4.638,4.7124,4.6955,4.5737,4.6413,4.6075,4.4615,4.3538,4.3031,4.2997,4.1508,4.0798,4.0798,4.0595,4.0595,4.0798,4.0561,4.0595,4.0798,4.0561,4.035,4.0214,4.1441,4.2049,4.2422,4.3436,4.4147,4.4615,4.4466,4.3888,4.3618,4.4257,4.3738,4.329,4.3349,4.3858,4.4077,4.3379,4.3858,4.4037,4.3349,4.2791,4.2171,4.1482,4.0846,4.0187,3.9433,3.9433,3.92,3.8482,3.9738,3.9828,3.8512,4.0397,4.0756,3.9529,4.0098,4.0068,3.9439,3.8093,3.7793,3.8332,3.7075,3.7225,3.8392,3.8392,3.8781,3.9409,3.9445,3.9445,3.9481,3.9517,3.9517,3.9517,3.9409,3.9373,3.9373,3.9373,3.9373,3.9373,3.9373,3.9373,3.9373,3.9373,3.9373,3.9373,3.9373,3.9373,3.9373,3.9373,3.9373,3.9373,3.9373,3.9373,3.9373,3.9373,3.9373,3.923,3.8571,3.896,3.92,3.8542,3.9529,4.0367,4.0397,4.0367,4.0127,3.9499,4.0487,4.1265,4.1324,4.2132,4.2754,4.3002,4.3779,4.4646,4.5578,4.635,4.6418,4.5669,4.6346,4.6041,4.4615,4.3098,4.232,4.2286,4.0857,4.0146,4.0113,4.0832,4.0764,4.0146,4.0832,4.073,4.0146,4.0865,4.073,4.018,4.0899,4.1677,4.2523,4.4039,4.4615,4.4615,4.6531,4.6022,4.5454,4.5095,4.4107,4.3469,4.3988,4.4197,4.4077,4.3379,4.3858,4.4037,4.3349,4.314,4.2611,4.1474,4.1722,4.1175,3.9493,4.0337,4.0367,3.92,4.0427,4.0726,3.9888,4.0876,4.1205,4.0876,4.0546,4.0307,4.0127,3.8781,3.8242,3.8362,3.7554,3.7614,3.8392,3.8392,3.8781,3.9445,4.013,4.0378,4.0447,4.1095,4.1329,4.1162,3.9879,3.9373,3.9373,3.9373,3.9373,3.9373,3.9373,3.9373,3.9373,3.9373,3.9373,3.9373,3.9373,3.9373,3.9373,3.9373,3.9373,3.9373,3.9373,3.9373,3.9373,3.9373,3.9373,3.9379,3.92,3.9254,3.9313,3.917,3.9439,3.9828,4.0337,3.9978,3.9619,3.9403,3.926,3.9559,4.0546,4.0532,4.1153,4.2875,4.2238,4.2692,4.4767,4.5417,4.5487,4.4891,4.5602,4.5534,4.4615,4.3606,4.2861,4.2286,4.1339,4.0629,4.0113,4.0316,4.0282,4.0113,4.0316,4.0282,4.0113,4.0316,4.0282,4.018,4.0899,4.1982,4.3234,4.4215,4.4615,4.4615,4.686,4.6322,4.5843,4.5753,4.4885,4.4317,4.4676,4.4496,4.4167,4.3768,4.4077,4.4037,4.3349,4.329,4.294,4.1931,4.2201,4.1811,4.0367,4.0696,4.0636,3.9888,4.0277,4.0337,3.9978,4.0606,4.0935,4.0935,4.0576,4.0397,4.0367,3.902,3.8392,3.8362,3.7704,3.8004,3.9021,3.9705,4.018,4.0585,4.1095,4.1264,0.0,4.1788,4.1981,4.1853,4.0894,4.0274,3.9955,3.9955,3.9702,3.9373,3.9373,3.9373,3.9373,3.9373,3.9373,3.9373,3.9373,3.9373,3.9373,3.9373,3.9373,3.9373,3.9373,3.9373,3.9373,3.9373,3.917,3.8871,3.8601,3.8781,3.908,3.9343,3.9373,3.9523,3.9918,3.9649,3.9373,3.9373,3.908,3.926,4.0307,3.9325,3.9725,4.2331,4.1853,4.2215,4.3962,4.5299,4.5436,4.4113,4.5432,4.5669,4.4615,4.4147,4.3369,4.2286,4.1542,4.0798,4.0113,4.0113,4.0113,4.0113,4.0113,4.0113,4.0113,4.0113,4.0113,4.018,4.0899,4.1711,4.2564,4.3673,4.4282,4.4615,4.6441,4.5963,4.5753,4.6352,4.5873,4.5454,4.5544,4.5005,4.4556,4.4466,4.4436,4.4197,4.3499,4.3349,4.306,4.244,4.247,4.2201,4.1482,4.0935,4.0576,4.0397,3.9858,3.9499,3.9373,4.0068,4.0427,4.0516,4.0427,4.0457,4.0487,3.917,3.8582,3.8692,3.8086,3.8601,3.993,4.1277,4.1853,4.1853,4.2109,4.2173,4.2205,4.23,4.2363,4.2363,4.2363,4.1691,4.0894,4.0894,4.0274,3.9559,3.9469,3.9331,3.926,3.9134,3.9134,3.9134,3.9134,3.9134,3.917,3.926,3.929,3.932,3.9409,3.9313,3.929,3.929,3.8751,3.8093,3.7524,3.7883,3.8482,3.917,3.929,3.926,3.9134,3.9194,3.929,3.929,3.92,0.0,4.0217,3.8691,3.8944,4.2044,4.2237,4.261,4.3523,4.5515,4.5621,4.3477,4.5432,4.594,4.4784,4.4547,4.3741,4.2422,4.161,4.0798,4.0113,4.0113,4.0113,4.0113,4.0113,4.0113,4.0113,4.0113,4.0113,4.018,4.0899,4.1204,4.1373,4.276,4.3775,4.4479,4.713,4.704,4.701,4.71,4.6591,4.6322,4.686,4.6381,4.5753,4.5214,4.5125,4.4885,4.4227,4.3618,4.306,4.244,4.2851,4.2671,4.1474,4.1811,4.1572,4.0457,4.0277,3.9978,3.9403,4.0068,4.0666,4.1205,4.0666,4.0666,4.1175,3.9858,3.9627,4.03,4.0143,4.0304,4.0737,4.096,4.1087,4.1213,4.2541,4.3078,4.3139,4.3856,4.415,4.415,4.415,4.3106,4.1756,4.1756,4.1196,4.0358,3.9804,3.9139,3.8452,3.7913,3.7764,3.7764,3.7764,3.7764,3.7883,3.8452,3.8571,3.8721,3.9254,3.896,3.8571,3.8571,3.8033,3.7554,3.7434,3.7494,3.7793,3.8452,3.8571,3.8392,3.7823,3.8242,3.8571,3.8571,3.8093,3.8242,3.9469,3.926,4.0379,4.3512,4.3097,4.3198,4.4305,4.519,4.4963,4.3477,4.4418,4.5128,4.55,4.4248,4.3443,4.3172,4.1847,4.0798,4.0113,4.0113,4.0113,4.0113,4.0113,4.0113,4.0113,4.0113,4.0113,4.018,4.0899,4.1204,4.1305,4.2151,4.2963,4.3707,4.7309,4.7309,4.7452,4.7988,4.7798,4.7707,4.8012,4.7798,4.7205,4.5987,4.5214,4.4676,4.4347,4.3678,4.317,4.288,4.315,4.291,4.1991,4.2231,4.1961,4.0935,4.0576,4.0247,3.9948,3.9918,4.0367,4.1422,4.0367,4.0397,4.1392,4.0485,4.009,4.0163,4.0642,4.1111,4.1573,4.2026,4.2462,4.2888,4.3664,4.3977,4.4006,4.444,4.4615,4.4547,4.4113,4.3432,4.2667,4.2246,4.1276,4.0195,3.9849,3.9466,3.9046,3.8736,3.8613,3.8546,3.8149,3.8016,3.8007,3.7897,3.7883,3.7973,3.8302,3.8123,3.7883,3.7883,3.7375,3.6926,3.6926,3.7195,3.7524,3.7823,3.8153,3.8153,3.7494,3.7674,3.7883,3.7883,3.7614,3.7943,3.9254,3.9373,4.0405,4.2842,4.3424,4.3614,4.3415,4.4754,4.4725,4.2868,4.3978,4.4553,4.4519,4.4181,4.3436,4.2252,4.1542,4.0798,4.0113,4.0113,4.0113,4.0113,4.0113,4.0113,4.0113,4.0113,4.0113,4.0146,4.0493,4.0629,4.0764,4.188,4.2523,4.2929,4.7892,4.7764,4.7946,4.8963,4.9135,4.9135,4.9135,4.9135,4.8573,4.7038,4.5458,4.4638,4.5001,4.3988,4.3349,4.3499,4.3379,4.312,4.265,4.262,4.2321,4.1662,4.0965,4.0546,4.0397,3.9738,3.9918,4.0965,4.007,4.0209,4.124,4.1079,4.0687,4.0194,4.1105,4.1778,4.2294,4.306,4.3775,4.435,4.4547,4.4615,4.4615,4.4615,4.4513,4.4248,4.3639,4.3172,4.282,4.2204,4.1125,4.0021,3.9923,3.9738,3.9555,3.9427,3.9363,3.9211,3.8623,3.8433,3.8273,3.7607,3.7436,3.7462,3.7409,3.7315,3.7225,3.7225,3.6716,3.6327,3.6447,3.6776,3.7075,3.7375,3.7734,3.7793,3.7285,3.7315,3.7375,3.7225,3.7315,3.7823,3.8901,3.9436,4.0238,4.147,4.3195,4.3761,4.2834,4.4485,4.4485,4.2354,4.3606,4.4113,4.3673,4.3809,4.3064,4.1441,4.1136,4.0663,4.0113,4.0113,4.0113,4.0113,4.0113,4.0113,4.0113,4.0113,4.0113,4.0113,4.0113,4.0214,4.0485,4.1644,4.2252,4.2625,4.9734,4.9336,4.9004,5.0048,5.0242,5.0242,5.0242,5.0242,4.9821,4.8707,4.6587,4.5766,4.733,4.501,4.3529,4.4167,4.3648,4.326,4.32,4.32,4.294,4.2321,4.1662,4.0995,4.0397,3.9738,3.9433,3.9619,4.0231,4.065,4.0773,4.1525,4.1914,4.1996,4.2802,4.2854,4.2341,4.3078,4.3443,4.3606,4.431,4.4615,4.4615,4.4615,4.4147,4.3477,4.3409,4.2557,4.1381,4.1328,4.1127,4.0779,4.024,3.9531,3.8786,3.8176,3.7985,3.7985,3.7897,3.7868,3.7818,3.7623,3.7589,3.7549,3.7425,3.6985,3.6567,3.6567,3.6058,3.5789,3.6387,3.6058,3.6058,3.7225,3.6985,3.6656,3.6567,3.7045,3.7195,3.6626,3.7075,3.7464,3.7584,3.9584,4.0641,4.0126,4.1981,4.3485,4.4361,4.4615,4.3944,4.2354,4.3098,4.3842,4.4479,4.2523,4.1745,4.2185,4.0857,4.018,4.0113,4.0113,4.0113,4.0113,4.0113,4.0113,4.0113,4.0113,4.0113,4.0113,4.0113,4.0493,4.1102,4.1271,4.2151,4.3308,5.0242,5.0048,5.0087,5.1117,5.1303,5.1303,5.1303,5.1303,5.1155,5.0709,4.8966,4.8028,4.8667,4.6944,4.5803,4.6084,4.5453,4.5048,4.5048,4.5048,4.4923,4.4679,4.4059,4.3336,4.2615,4.1963,4.1588,4.1551,4.1517,4.1683,4.2062,4.2105,4.2177,4.2256,4.2119,4.2422,4.2997,4.3274,4.3673,4.4147,4.4479,4.4615,4.4547,4.4045,4.3673,4.3274,4.2422,4.1711,4.1136,4.0696,4.049,4.0421,4.0172,3.9861,3.9526,3.9255,3.9156,3.9076,3.858,3.8469,3.8339,3.7848,3.7703,3.7586,3.7027,3.6714,3.6434,3.5977,3.5699,3.5579,3.5848,3.5998,3.6148,3.6237,3.6387,3.6357,3.5968,3.6118,3.6345,3.656,3.6744,3.7242,3.8153,3.9501,4.0788,4.1859,4.4047,4.466,4.3274,4.4107,4.4079,4.2997,4.2388,4.2455,4.32,4.188,4.1136,4.0993,4.0383,4.0113,4.0113,4.0113,4.0113,4.0113,4.0113,4.0113,4.0113,4.0113,4.0383,4.0764,4.0764,4.1204,4.1914,4.2354,4.2868,4.3443,5.1187,5.1075,5.1155,5.2205,5.2348,5.2348,5.2348,5.2348,5.2348,5.2348,5.1316,5.0481,5.0154,4.8409,4.7397,4.7585,4.6753,4.6208,4.6208,4.6208,4.6208,4.6208,4.5571,4.4831,4.4125,4.3456,4.2879,4.2429,4.2397,4.2524,4.2782,4.2864,4.2802,4.2625,4.232,4.2658,4.3409,4.3673,4.4079,4.4615,4.4615,4.4615,4.4513,4.3707,4.3267,4.2929,4.1644,4.1068,4.0798,4.0282,4.0113,4.0113,4.0113,4.0113,4.0113,4.0113,4.0113,3.9978,3.9394,3.9262,3.9076,3.8302,3.8104,3.7905,3.7144,3.6934,3.6814,3.629,3.6164,3.6164,3.6164,3.6561,3.6679,3.6211,3.6554,3.6679,3.6211,3.631,3.6598,3.6905,3.7122,3.7553,3.8437,3.9374,4.0629,4.2239,4.4495,4.4857,4.2726,4.3436,4.3538,4.2794,4.1745,4.1441,4.1982,4.1238,4.0595,4.0113,4.0113,4.0113,4.0113,4.0113,4.0113,4.0113,4.0113,4.0113,4.0113,4.0113,4.0527,4.1204,4.1204,4.1779,4.2692,4.3206,4.3572,4.3842,5.3041,5.2592,5.2241,5.3314,5.3484,5.3484,5.3484,5.3484,5.3484,5.3484,5.345,5.3042,5.1993,4.9131,4.7553,4.8221,4.7005,4.6208,4.6208,4.6208,4.6208,4.6208,4.5571,4.4831,4.4125,4.3456,4.2398,4.102,4.2535,4.2957,4.2352,4.3871,4.4147,4.3409,4.4215,4.4113,4.3443,4.4248,4.4615,4.4615,4.4615,4.4615,4.4513,4.3707,4.2963,4.2219,4.1474,4.073,4.0113,4.0113,4.0113,4.0113,4.0113,4.0113,4.0113,4.0113,4.0113,4.0113,4.0087,4.0087,3.9901,3.9102,3.8881,3.869,3.7933,3.7793,3.7793,3.7764,3.7764,3.7764,3.7764,3.7764,3.7753,3.7592,3.7706,3.7723,3.7592,3.8274,3.8501,3.7857,3.8371,3.8531,3.7857,3.9182,4.0117,4.0117,4.221,4.3409,4.3375,4.2726,4.1982,4.1271,4.1204,4.1204,4.1204,4.0485,4.0113,4.0113,4.0113,4.0113,4.0113,4.0113,4.0113,4.0113,4.0113,4.0113,4.0113,4.0113,4.0527,4.1204,4.1204,4.2117,4.3375,4.3375,4.391,4.4581,5.3382,5.3246,5.311,5.3416,5.3518,5.3518,5.3518,5.3518,5.3518,5.3518,5.3518,5.3382,5.3041,5.1161,5.0059,5.0258,4.8961,4.8129,4.8129,4.8129,4.8129,4.8129,4.7896,4.743,4.6699,4.5965,4.5163,4.4197,4.4198,4.3809,4.3037,4.3563,4.3673,4.3409,4.3673,4.3944,4.4215,4.4513,4.4615,4.4615,4.4615,4.4615,4.4479,4.3132,4.2489,4.2117,4.0925,4.0316,4.0113,4.0113,4.0113,4.0113,4.0113,4.0113,4.0113,4.0113,4.0113,4.0113,4.0113,4.0113,4.0062,3.9765,3.9714,3.9532,3.8718,3.8161,3.7793,3.7793,3.7793,3.7793,3.7793,3.7793,3.7799,3.7757,3.7775,3.777,3.7757,3.7966,3.8219,3.853,3.8721,3.9007,3.9322,4.0287,4.1057,4.156,4.2726,4.32,4.2692,4.2422,4.2185,4.1948,4.0967,4.0696,4.1204,4.0485,4.0113,4.0113,4.0113,4.0113,4.0113,4.0113,4.0113,4.0113,4.0113,4.0113,4.0146,4.0629,4.1001,4.1305,4.232,4.297,4.3443,4.4012,4.4378,4.4615,5.3518,5.3518,5.3518,5.3518,5.3518,5.3518,5.3518,5.3518,5.3518,5.3518,5.3518,5.3518,5.3518,5.2131,5.1185,5.1185,5.0101,4.9289,4.9018,4.9018,4.9018,4.9018,4.9018,4.8545,4.753,4.7022,4.6278,4.5297,4.4852,4.4316,4.3842,4.3842,4.3842,4.3842,4.3842,4.4113,4.4615,4.4615,4.4615,4.4615,4.4615,4.4445,4.4012,4.276,4.2117,4.1711,4.0553,4.0113,4.0113,4.0113,4.0113,4.0113,4.0113,4.0113,4.0113,4.0113,4.0113,4.0113,4.0113,4.0113,4.0113,4.0113,4.0113,3.9952,3.948,3.8995,3.8668,3.8668,3.8668,3.8668,3.8668,3.8668,3.865,3.8663,3.8665,3.8683,3.8663,3.8665,3.8832,3.9289,3.9342,3.9558,4.0028,4.0493,4.0967,4.1467,4.2151,4.2388,4.1914,4.2151,4.2049,4.15,4.0587,4.0316,4.0764,4.035,4.0113,4.0113,4.0113,4.0113,4.0113,4.0113,4.0113,4.0113,4.0113,4.0113,4.0146,4.0595,4.0933,4.1339,4.2523,4.3166,4.3477,4.4282,4.4615,4.4615,5.3518,5.3518,5.3518,5.3518,5.3518,5.3518,5.3518,5.3518,5.3518,5.3518,5.3518,5.3518,5.3518,5.2198,5.1285,5.1185,5.0473,4.9729,4.9052,4.9018,4.9018,4.9018,4.9018,4.8342,4.6921,4.6819,4.6104,4.4615,4.4615,4.4615,4.4615,4.4615,4.4615,4.4615,4.4615,4.4615,4.4615,4.4615,4.4615,4.4615,4.4615,4.4113,4.3308,4.2591,4.1847,4.1102,4.0383,4.0113,4.0113,4.0113,4.0113,4.0113,4.0113,4.0113,4.0113,4.0113,4.0113,4.0113,4.0113,4.0113,4.0113,4.0113,4.0113,4.0113,4.0113,4.0113,4.0113,4.0113,4.0113,4.0113,4.0113,4.0146,4.0179,4.0177,4.0172,4.0187,4.0183,4.0105,4.0113,4.0113,4.0113,4.0113,4.0113,4.0113,4.0113,4.018,4.0798,4.1238,4.1271,4.1914,4.1644,4.0214,4.018,4.0146,4.0113,4.0113,4.0113,4.0113,4.0113,4.0113,4.0113,4.0113,4.0113,4.0113,4.0146,4.018,4.018,4.0282,4.0696,4.1373,4.2151,4.2828,4.3477,4.4282,4.4615,4.4615,5.3518,5.3518,5.3518,5.3518,5.3518,5.3518,5.3518,5.3518,5.3518,5.3518,5.3518,5.3518,5.3518,5.2638,5.1826,5.1219,5.0033,4.9187,4.9018,4.9018,4.9018,4.9018,4.9018,4.8578,4.7665,4.709,4.6104,4.4615,4.4615,4.4615,4.4615,4.4615,4.4615,4.4615,4.4615,4.4615,4.4615,4.4615,4.4615,4.4615,4.4615,4.4113,4.3308,4.2591,4.1847,4.1102,4.0383,4.0113,4.0113,4.0113,4.0113,4.0113,4.0113,4.0113,4.0113,4.0113,4.0113,4.0113,4.0113,4.0113,4.0113,4.0113,4.0113,4.0113,4.0113,4.0113,4.0113,4.0113,4.0113,4.0113,4.0113,4.0561,4.0949,4.0927,4.0931,4.0949,4.0961,4.045,4.0113,4.0113,4.0113,4.0113,4.0113,4.0113,4.035,4.0899,4.1102,4.1441,4.2016,4.2185,4.188,4.0967,4.0933,4.0663,4.0113,4.0113,4.0113,4.0113,4.0113,4.0113,4.0113,4.0113,4.0113,4.0146,4.0696,4.0933,4.1035,4.2151,4.2388,4.2151,4.3532,4.3775,4.3477,4.4282,4.4615,4.4615,5.3518,5.3518,5.3518,5.3518,5.3518,5.3518,5.3518,5.3518,5.3518,5.3518,5.3518,5.3518,5.3518,5.2503,5.1657,5.1219,5.0168,4.9357,4.9018,4.9018,4.9018,4.9018,4.9018,4.8646,4.7906,4.753,4.6583,4.5094,4.4784,4.4615,4.4615,4.4615,4.4615,4.4615,4.4615,4.4615,4.4615,4.4615,4.4615,4.4615,4.4615,4.391,4.2861,4.2455,4.161,4.0629,4.0248,4.0113,4.0113,4.0113,4.0113,4.0113,4.0113,4.0113,4.0113,4.0113,4.0113,4.0113,4.0113,4.0113,4.0113,4.0113,4.0113,4.0113,4.0113,4.0113,4.0113,4.0113,4.0113,4.0113,4.0113,4.0451,4.0798,4.117,4.0933,4.0798,4.117,4.0561,4.0113,4.0113,4.0113,4.0113,4.0113,4.0113,4.0282,4.0663,4.1305,4.188,4.2286,4.2963,4.2828,4.1745,4.1373,4.1001,4.0595,4.0282,4.0282,4.0595,4.0595,4.0764,4.1128,4.1128,4.1128,4.1128,4.1508,4.1711,4.1745,4.2557,4.2658,4.2422,4.3572,4.3775,4.3477,4.4282,4.4615,4.4615,5.3518,5.3518,5.3518,5.3518,5.3518,5.3518,5.3518,5.3518,5.3518,5.3518,5.3518,5.3518,5.3518,5.2131,5.1185,5.1185,5.0439,4.9661,4.9052,4.9018,4.9018,4.9018,4.9018,4.8646,4.7906,4.7669,4.6955,4.5703,4.4959,4.4615,4.4615,4.4615,4.4615,4.4615,4.4615,4.4615,4.4615,4.4479,4.4445,4.4412,4.431,4.3396,4.2117,4.2117,4.1271,4.0113,4.0113,4.0113,4.0113,4.0113,4.0113,4.0113,4.0113,4.0113,4.0113,4.0113,4.0113,4.0113,4.0113,4.0113,4.0113,4.0113,4.0113,4.0113,4.0113,4.0113,4.0113,4.0113,4.0113,4.0113,4.0113,4.018,4.0493,4.1238,4.073,4.0493,4.1271,4.0654,4.0113,4.0113,4.0113,4.0113,4.0113,4.0214,4.0282,4.0282,4.1508,4.2354,4.2455,4.3707,4.3842,4.2658,4.1914,4.1441,4.1204,4.0561,4.0561,4.1204,4.1305,4.1677,4.2286,4.2286,4.2286,4.2286,4.2422,4.2455,4.2489,4.2591,4.2625,4.2692,4.3335,4.3606,4.3673,4.4378,4.4615,4.4615,5.3518,5.3518,5.3518,5.3518,5.3518,5.3518,5.3518,5.3518,5.3518,5.3518,5.3518,5.3518,5.3518,5.2131,5.1185,5.1185,4.9965,4.912,4.9018,4.9018,4.9018,4.9018,4.9018,4.8646,4.7906,4.6684,4.594,4.5703,4.4959,4.4615,4.4615,4.4615,4.4615,4.4615,4.4615,4.4615,4.4581,4.3876,4.3606,4.3538,4.2895,4.2151,4.1373,4.1373,4.0832,4.0113,4.0113,4.0113,4.0113,4.0113,4.0113,4.0113,4.0113,4.0113,4.0113,4.0113,4.0113,4.0113,4.0113,4.0113,4.0113,4.0113,4.0113,4.0113,4.0113,4.0113,4.0113,4.0113,4.0113,4.0113,4.0113,4.0595,4.1271,4.2016,4.1508,4.1305,4.2016,4.0959,4.0113,4.0113,4.0113,4.0113,4.0113,4.0663,4.1035,4.1035,4.1813,4.2557,4.32,4.347,4.3809,4.4242,4.347,4.2455,4.1204,4.1102,4.1102,4.1204,4.1813,4.2185,4.2286,4.2286,4.2286,4.232,4.2963,4.3234,4.3274,4.3944,4.4242,4.4276,4.4378,4.4384,4.4445,4.4547,4.4615,4.4615,5.3518,5.3518,5.3518,5.3518,5.3518,5.3518,5.3518,5.3518,5.3518,5.3518,5.3518,5.3518,5.3518,5.2503,5.1657,5.1219,5.0608,4.9864,4.9052,4.9018,4.9018,4.9018,4.9018,4.8849,4.8511,4.7056,4.6278,4.6278,4.519,4.4615,4.4615,4.4615,4.4615,4.4615,4.4615,4.435,4.3944,4.3572,4.3166,4.2794,4.2422,4.1847,4.1204,4.1204,4.073,4.0113,4.0113,4.0113,4.0113,4.0113,4.0113,4.0113,4.0113,4.0113,4.0113,4.0113,4.0113,4.0113,4.0113,4.0113,4.0113,4.0113,4.0113,4.0113,4.0113,4.0113,4.0113,4.0113,4.0113,4.0113,4.0113,4.0383,4.0722,4.106,4.0857,4.073,4.1094,4.0519,4.0113,4.0113,4.0113,4.0113,4.0113,4.0764,4.1204,4.1204,4.2252,4.3064,4.3375,4.3809,4.4215,4.4581,4.3809,4.2868,4.1813,4.1779,4.1982,4.2388,4.2726,4.3132,4.3565,4.3565,4.3565,4.3565,4.3876,4.4045,4.4079,4.4445,4.4615,4.4615,4.4615,4.4615,4.4615,4.4615,4.4615,4.4615,5.3518,5.3518,5.3518,5.3518,5.3518,5.3518,5.3518,5.3518,5.3518,5.3518,5.3518,5.3518,5.3518,5.2773,5.2063,5.1522,5.1319,5.0676,4.9357,4.9255,4.9187,4.9018,4.9018,4.9018,4.9018,4.7564,4.6786,4.6786,4.5326,4.4615,4.4615,4.4615,4.4615,4.4615,4.4615,4.4248,4.3673,4.3301,4.2828,4.2252,4.1914,4.1441,4.0933,4.0933,4.0595,4.0113,4.0113,4.0113,4.0113,4.0113,4.0113,4.0113,4.0113,4.0113,4.0113,4.0113,4.0113,4.0113,4.0113,4.0113,4.0113,4.0113,4.0113,4.0113,4.0113,4.0113,4.0113,4.0113,4.0113,4.0113,4.0113,4.0113,4.018,4.035,4.0214,4.018,4.035,4.0214,4.0113,4.0113,4.0113,4.0113,4.0113,4.0764,4.1271,4.1441,4.2658,4.3477,4.3673,4.4248,4.4615,4.4615,4.3809,4.3132,4.2557,4.2557,4.2828,4.3375,4.3606,4.4012,4.4615,4.4615,4.4615,4.4615,4.4615,4.4615,4.4615,4.4615,4.4615,4.4615,4.4615,4.4615,4.4615,4.4615,4.4615,4.4615,5.3518,5.3518,5.3518,5.3518,5.3518,5.3518,5.3518,5.3518,5.3518,5.3518,5.3518,5.3518,5.3518,5.2773,5.2266,5.2232,5.1589,5.0879,5.0067,4.9999,4.9695,4.9052,4.9018,4.9018,4.9018,4.7564,4.6786,4.6786,4.5326,4.4615,4.4615,4.4615,4.4615,4.4615,4.4615,4.4581,4.4412,4.2963,4.2354,4.2185,4.0823,4.0248,4.018,4.018,4.0146,4.0113,4.0113,4.0113,4.0113,4.0113,4.0113,4.0113,4.0113,4.0113,4.0113,4.0113,4.0113,4.0113,4.0113,4.0113,4.0113,4.0113,4.0113,4.0113,4.0113,4.0113,4.0113,4.0113,4.0113,4.0113,4.0113,4.0113,4.0316,4.1001,4.0553,4.035,4.1035,4.0553,4.0113,4.0113,4.0113,4.0113,4.0113,4.0764,4.1474,4.2151,4.2963,4.3741,4.4479,4.4581,4.4615,4.4615,4.3809,4.3375,4.3308,4.3308,4.3341,4.3409,4.4147,4.4547,4.4615,4.4615,4.4615,4.4615,4.4615,4.4615,4.4615,4.4615,4.4615,4.4615,4.4615,4.4615,4.4615,4.4615,4.4615,4.4615,5.3518,5.3518,5.3518,5.3518,5.3518,5.3518,5.3518,5.3518,5.3518,5.3518,5.3518,5.3518,5.3518,5.3247,5.2841,5.2334,5.2503,5.1928,5.0202,5.0541,5.027,4.9052,4.9018,4.9018,4.9018,4.7564,4.6786,4.6786,4.5326,4.4615,4.4615,4.4615,4.4615,4.4615,4.4615,4.4316,4.3809,4.2726,4.2049,4.1542,4.0519,4.0113,4.0113,4.0113,4.0113,4.0113,4.0113,4.0113,4.0113,4.0113,4.0113,4.0113,4.0113,4.0113,4.0113,4.0113,4.0113,4.0113,4.0113,4.0113,4.0113,4.0113,4.0113,4.0113,4.0113,4.0113,4.0113,4.0113,4.0113,4.0113,4.0113,4.0113,4.018,4.046,4.0282,4.0214,4.0485,4.0282,4.0113,4.0113,4.0113,4.0113,4.0113,4.0764,4.1508,4.2219,4.2997,4.3775,4.4581,4.4615,4.4615,4.4615,4.4282,4.4147,4.4147,4.4147,4.4147,4.4147,4.4479,4.4615,4.4615,4.4615,4.4615,4.4615,4.4615,4.4615,4.4615,4.4615,4.4615,4.4615,4.4615,4.4615,4.4615,4.4615,4.4615,4.4615,5.3518,5.3518,5.3518,5.3518,5.3518,5.3518,5.3518,5.3518,5.3518,5.3518,5.3518,5.3518,5.3518,5.3518,5.3281,5.2739,5.3179,5.2638,5.0574,5.0507,5.0067,4.9052,4.9018,4.9018,4.9018,4.7564,4.6786,4.6786,4.5326,4.4615,4.4615,4.4615,4.4615,4.4615,4.4615,4.4282,4.3741,4.2963,4.2219,4.1474,4.073,4.0316,4.0113,4.0113,4.0113,4.0113,4.0113,4.0113,4.0113,4.0113,4.0113,4.0113,4.0113,4.0113,4.0113,4.0113,4.0113,4.0113,4.0113,4.0113,4.0113,4.0113,4.0113,4.0113,4.0113,4.0113,4.0113,4.0113,4.0113,4.0113,4.0113,4.0113,4.0113,4.0113,4.0113,4.0113,4.0113,4.0113,4.0113,4.0113,4.0113,4.0113,4.0113,4.0764,4.1508,4.2219,4.2997,4.3775,4.4581,4.4615,4.4615,4.4615,4.4615,4.4615,4.4615,4.4615,4.4615,4.4615,4.4615,4.4615,4.4615,4.4615,4.4615,4.4615,4.4615,4.4615,4.4615,4.4615,4.4615,4.4615,4.4615,4.4615,4.4615,4.4615,4.4615,4.4615,5.3518,5.3518,5.3518,5.3518,5.3518,5.3518,5.3518,5.3518,5.3518,5.3518,5.3518,5.3518,5.3518,5.3518,5.3518,5.3518,5.3484,5.2841,5.1286,4.983,4.9018,4.9018,4.9018,4.9018,4.9018,4.7564,4.6786,4.6786,4.5326,4.4615,4.4615,4.4615,4.4615,4.4615,4.4615,4.4615,4.4547,4.3741,4.2963,4.2219,4.1508,4.0764,4.0113,4.0113,4.0113,4.0113,4.0113,4.0113,4.0113,4.0113,4.0113,4.0113,4.0113,4.0113,4.0113,4.0113,4.0113,4.0113,4.0113,4.0113,4.0113,4.0113,4.0113,4.0113,4.0113,4.0113,4.0113,4.0113,4.0113,4.0113,4.0113,4.0113,4.0113,4.0113,4.0113,4.0113,4.0113,4.0113,4.0113,4.0113,4.0113,4.0113,4.0113,4.0764,4.1508,4.2219,4.2997,4.3775,4.4581,4.4615,4.4615,4.4615,4.4615,4.4615,4.4615,4.4615,4.4615,4.4615,4.4615,4.4615,4.4615,4.4615,4.4615,4.4615,4.4615,4.4615,4.4615,4.4615,4.4615,4.4615,4.4615,4.4615,4.4615,4.4615,4.4615,4.4615,5.3518,5.3518,5.3518,5.3518,5.3518,5.3518,5.3518,5.3518,5.3518,5.3518,5.3518,5.3518,5.3518,5.3518,5.3518,5.3518,5.2976,5.2029,5.0541,4.9526,4.9018,4.9018,4.9018,4.9018,4.9018,4.7564,4.6786,4.6786,4.5326,4.4615,4.4615,4.4615,4.4615,4.4615,4.4615,4.4615,4.4547,4.3741,4.2963,4.2286,4.2049,4.1204,4.018,4.0663,4.0527,4.0113,4.0113,4.0113,4.0113,4.0113,4.0113,4.0113,4.0113,4.0113,4.0113,4.0113,4.0113,4.0113,4.0113,4.0113,4.0113,4.0113,4.0113,4.0113,4.0113,4.0519,4.0865,4.0865,4.1271,4.1636,4.1636,4.1636,4.1636,4.1636,4.1204,4.0865,4.0865,4.0451,4.0113,4.0113,4.0113,4.0113,4.0113,4.0764,4.1508,4.2219,4.3504,4.4378,4.4581,4.4615,4.4615,4.4615,4.4615,4.4615,4.4615,4.4615,4.4615,4.4615,4.4615,4.4615,4.4615,4.4615,4.4615,4.4615,4.4615,4.4615,4.4615,4.4615,4.4615,4.4615,4.4615,4.4615,4.4615,4.4615,4.4615,4.4615,5.3518,5.3518,5.3518,5.3518,5.3518,5.3518,5.3518,5.3518,5.3518,5.3518,5.3518,5.3518,5.3518,5.3518,5.3518,5.3518,5.2503,5.1352,5.0168,4.939,4.9018,4.9018,4.9018,4.9018,4.9018,4.7564,4.6786,4.6786,4.5326,4.4615,4.4615,4.4615,4.4615,4.4615,4.4615,4.4615,4.4581,4.4079,4.3436,4.2726,4.2726,4.1847,4.0561,4.1035,4.073,4.0113,4.0113,4.0113,4.0113,4.0113,4.0113,4.0113,4.0113,4.0113,4.0113,4.0113,4.0113,4.0113,4.0113,4.0113,4.0113,4.0113,4.0113,4.0113,4.0113,4.0663,4.1204,4.1204,4.1779,4.2286,4.2286,4.2286,4.2185,4.1914,4.1508,4.1102,4.0798,4.0383,4.0113,4.0113,4.0113,4.0113,4.0113,4.1035,4.2049,4.3132,4.4073,4.4615,4.4615,4.4615,4.4615,4.4615,4.4615,4.4615,4.4615,4.4615,4.4615,4.4615,4.4615,4.4615,4.4615,4.4615,4.4615,4.4615,4.4615,4.4615,4.4615,4.4615,4.4615,4.4615,4.4615,4.4615,4.4615,4.4615,4.4615,4.4615,5.3518,5.3518,5.3518,5.3518,5.3518,5.3518,5.3518,5.3518,5.3518,5.3518,5.3518,5.3518,5.3518,5.3518,5.3518,5.3518,5.2097,5.0879,5.0033,4.9357,4.9018,4.9018,4.9018,4.8984,4.8917,4.753,4.6786,4.6786,4.5326,4.4615,4.4615,4.4615,4.4615,4.4615,4.4615,4.4615,4.4615,4.4615,4.4147,4.3409,4.3477,4.2625,4.1305,4.1305,4.0832,4.018,4.0113,4.0113,4.0113,4.018,4.0214,4.0214,4.0282,4.0248,4.0214,4.0214,4.0146,4.0113,4.018,4.0214,4.0214,4.0282,4.0316,4.0282,4.0214,4.0798,4.1407,4.1407,4.1982,4.2489,4.2489,4.2489,4.2286,4.161,4.1407,4.1068,4.0383,4.018,4.0113,4.0113,4.018,4.0214,4.0214,4.1508,4.2997,4.4513,4.4615,4.4615,4.4615,4.4615,4.4615,4.4615,4.4615,4.4615,4.4615,4.4615,4.4615,4.4615,4.4615,4.4615,4.4615,4.4615,4.4615,4.4615,4.4615,4.4615,4.4615,4.4615,4.4615,4.4615,4.4615,4.4615,4.4615,4.4615,4.4615,4.4615,5.3518,5.3518,5.3518,5.3518,5.3518,5.3518,5.3518,5.3518,5.3518,5.3518,5.3518,5.3518,5.3518,5.3518,5.3518,5.3518,5.2097,5.0642,4.9323,4.9086,4.9018,4.9018,4.9018,4.8748,4.8142,4.7259,4.6786,4.6786,4.5326,4.4615,4.4615,4.4615,4.4615,4.4615,4.4615,4.4615,4.4615,4.4615,4.4147,4.3443,4.4079,4.3403,4.2049,4.2049,4.161,4.0899,4.0316,4.0113,4.018,4.0764,4.0967,4.1068,4.1644,4.1407,4.0967,4.0967,4.0527,4.0248,4.0798,4.0967,4.1102,4.1677,4.1813,4.1677,4.1102,4.1982,4.2902,4.2902,4.3538,4.4107,4.4107,4.4107,4.4073,4.3904,4.2828,4.2016,4.1873,4.0823,4.0113,4.0113,4.0595,4.0967,4.0967,4.232,4.3572,4.4547,4.4615,4.4615,4.4615,4.4615,4.4615,4.4615,4.4615,4.4615,4.4615,4.4615,4.4615,4.4615,4.4615,4.4615,4.4615,4.4615,4.4615,4.4615,4.4615,4.4615,4.4615,4.4615,4.4615,4.4615,4.4615,4.4615,4.4615,4.4615,4.4615,4.4615,5.3518,5.3518,5.3518,5.3518,5.3518,5.3518,5.3518,5.3518,5.3518,5.3518,5.3518,5.3518,5.3518,5.3179,5.2638,5.1928,5.1454,5.0574,4.912,4.9018,4.9018,4.9018,4.9018,4.8815,4.8443,4.7361,4.6616,4.6278,4.5156,4.4615,4.4615,4.4615,4.4615,4.4615,4.4615,4.4615,4.4615,4.4615,4.4147,4.3443,4.3876,4.3132,4.1779,4.1779,4.1305,4.0595,4.0248,4.0113,4.0214,4.0933,4.1204,4.1339,4.2049,4.1779,4.1271,4.161,4.1204,4.0696,4.1102,4.1474,4.1745,4.1779,4.232,4.2625,4.188,4.2591,4.3375,4.3375,4.4045,4.4615,4.4615,4.4282,4.4012,4.4012,4.3064,4.2286,4.2286,4.1305,4.0764,4.1128,4.0865,4.0933,4.1644,4.276,4.3741,4.4547,4.4615,4.4615,4.4615,4.4615,4.4784,4.5094,4.5128,4.5128,4.5128,4.5466,4.5466,4.5128,4.4784,4.4784,4.5094,4.4784,4.4615,4.4615,4.4615,4.4615,4.4615,4.4615,4.4615,4.4615,4.4615,4.4615,4.4615,4.4615,4.4615,4.4615,5.3518,5.3518,5.3518,5.3518,5.3518,5.3518,5.3518,5.3518,5.3518,5.3518,5.3382,5.3281,5.3281,5.2706,5.1758,5.0405,5.0845,5.0574,4.912,4.9018,4.9018,4.9018,4.9018,4.8951,4.8815,4.7496,4.6481,4.5906,4.4993,4.4615,4.4615,4.4615,4.4615,4.4615,4.4615,4.4615,4.4615,4.4479,4.4012,4.3375,4.324,4.2489,4.1373,4.1271,4.0832,4.0282,4.0146,4.0113,4.0248,4.1102,4.1407,4.1542,4.2422,4.2185,4.1711,4.232,4.1982,4.1407,4.1542,4.2016,4.2354,4.1914,4.2692,4.3436,4.2828,4.3166,4.3606,4.3606,4.4147,4.4615,4.4615,4.4045,4.3606,4.3606,4.2997,4.2489,4.2489,4.1847,4.161,4.2219,4.1331,4.1196,4.2557,4.3234,4.3876,4.4547,4.4716,4.4818,4.4818,4.4919,4.5263,4.5872,4.5906,4.5906,4.5906,4.6481,4.6549,4.6075,4.5331,4.5297,4.5872,4.5128,4.4818,4.4784,4.4649,4.4615,4.4615,4.4615,4.4615,4.4615,4.4615,4.4615,4.4615,4.4615,4.4615,4.4615,5.3518,5.3518,5.3518,5.3518,5.3518,5.3518,5.3518,5.3518,5.3518,5.3518,5.2909,5.2469,5.2469,5.2367,5.1961,5.115,5.115,5.0574,4.912,4.9018,4.9018,4.9018,4.9018,4.8714,4.8041,4.7225,4.6752,4.665,4.5292,4.4615,4.4615,4.4615,4.4615,4.4615,4.4615,4.4615,4.4547,4.3876,4.3477,4.3341,4.2726,4.232,4.2083,4.1441,4.1136,4.0967,4.035,4.0113,4.0316,4.1677,4.2151,4.2388,4.3836,4.3741,4.3105,4.3206,4.2726,4.2286,4.2929,4.32,4.3403,4.3978,4.431,4.4412,4.431,4.4378,4.4445,4.4445,4.4513,4.4615,4.4615,4.4513,4.4445,4.4445,4.3775,4.324,4.324,4.2625,4.2185,4.2286,4.2692,4.3301,4.4209,4.4378,4.4479,4.4615,4.5196,4.5568,4.5568,4.6143,4.6549,4.665,4.665,4.665,4.665,4.6752,4.7056,4.7567,4.6853,4.6549,4.6616,4.5872,4.5568,4.5534,4.4857,4.4615,4.4615,4.4615,4.4615,4.4615,4.4615,4.4615,4.4615,4.4615,4.4615,4.4615,5.3518,5.3518,5.3518,5.3518,5.3518,5.3518,5.3518,5.3518,5.3348,5.2875,5.2536,5.2131,5.1725,5.1691,5.1217,5.0067,5.0338,5.0135,4.9086,4.9018,4.9018,4.9018,4.9018,4.8849,4.8545,4.78,4.7225,4.6786,4.5326,4.4615,4.4615,4.4615,4.4615,4.4615,4.4615,4.435,4.391,4.3544,4.2902,4.2151,4.1813,4.1441,4.106,4.0696,4.0595,4.0527,4.0214,4.0383,4.0865,4.1914,4.2557,4.3098,4.4215,4.4045,4.3504,4.3944,4.3538,4.2997,4.3308,4.3741,4.4045,4.3944,4.4248,4.4615,4.4615,4.4615,4.4615,4.4615,4.4615,4.4615,4.4615,4.4215,4.4079,4.4547,4.391,4.3572,4.4012,4.3403,4.276,4.2354,4.3335,4.4045,4.3944,4.4316,4.4784,4.5162,4.5534,4.5872,4.6278,4.6616,4.6989,4.7394,4.7428,4.7428,4.7428,4.7834,4.8003,4.7906,4.8003,4.78,4.7394,4.621,4.5703,4.5669,4.4919,4.4615,4.4615,4.4615,4.4615,4.4615,4.4615,4.4615,4.4615,4.4615,4.4615,4.4615]}]]